GFSSE_sfc_thetae_000.txt.gz
Theta_e
336 345 354 354 352 351 352 349 346 342 340 337 337 339 341 341 338 337 338 338 336 333 335 339 340 342 343 343 342 339 339 337 334 334 334 335 335 336 338 337 333 334 335
340 346 354 354 352 352 351 348 344 342 340 337 334 336 334 335 335 334 336 335 335 332 334 336 338 338 340 340 337 335 334 334 334 333 334 335 336 335 334 333 333 334 341
337 345 349 355 354 353 351 347 343 341 339 338 333 333 332 334 334 336 336 335 333 333 334 334 333 335 335 338 338 337 335 333 331 332 334 329 326 336 335 335 333 335 339
338 344 346 356 353 352 351 347 344 342 339 336 334 336 337 335 336 336 334 332 334 333 333 333 332 332 334 335 336 336 337 334 332 333 329 326 326 337 335 334 333 334 336
333 343 350 355 354 352 349 346 344 342 340 337 335 334 337 338 340 337 336 335 335 333 332 332 332 331 332 333 334 335 335 334 333 333 327 322 324 331 334 333 332 335 334
332 346 352 355 355 353 350 348 345 343 342 340 336 336 336 340 342 342 338 340 336 333 332 332 332 333 334 333 332 332 333 335 336 326 324 326 322 330 334 334 335 334 335
334 347 351 355 354 353 352 349 346 345 342 340 337 336 337 341 342 342 340 339 337 334 333 333 332 333 335 336 335 335 334 336 329 322 322 323 324 330 331 334 335 335 335
335 342 348 351 352 352 351 350 348 346 344 342 338 335 336 339 341 342 341 339 337 335 336 334 334 334 335 337 338 337 337 336 329 322 321 322 329 334 333 332 334 335 336
337 338 340 345 348 351 350 350 349 348 347 344 341 338 339 338 337 339 340 338 337 336 337 337 336 335 334 335 336 337 338 336 328 324 324 322 332 335 336 335 333 334 336
335 337 336 339 342 344 342 347 347 346 346 344 342 341 340 339 339 340 340 340 337 337 336 335 335 336 336 335 336 338 337 336 328 325 325 324 334 335 335 335 335 334 334
335 335 336 337 340 339 340 342 344 344 343 342 339 338 336 331 330 334 335 336 336 336 336 336 336 337 338 337 336 336 335 329 325 324 323 330 337 334 334 334 335 335 335
330 333 335 336 337 337 339 339 338 338 337 336 335 333 332 327 328 331 330 334 337 339 338 337 338 339 337 331 329 332 330 328 326 325 324 335 337 336 335 334 335 335 335
328 332 335 336 337 337 336 335 335 334 333 332 331 330 329 329 327 328 329 330 329 332 331 333 333 333 330 328 326 326 326 325 324 324 328 336 339 338 337 337 338 336 336
324 329 333 335 336 336 337 335 333 332 331 330 330 330 328 328 328 328 328 329 329 330 329 330 329 330 331 330 329 328 327 326 326 326 327 333 338 340 339 339 340 340 337
323 325 328 332 335 336 335 335 334 332 331 331 331 332 331 330 329 330 330 331 333 333 332 331 330 330 330 329 328 328 329 327 327 329 328 330 335 339 341 340 339 339 339
323 325 327 329 332 335 334 334 333 332 331 331 331 331 332 331 330 330 332 331 331 331 331 330 328 327 326 324 324 323 323 323 324 324 326 326 332 336 339 341 340 340 340
318 319 321 324 329 332 332 333 332 331 331 330 330 330 331 331 330 331 330 328 327 325 322 320 318 318 317 319 318 320 320 321 321 321 322 323 326 329 334 340 342 341 340
318 319 321 322 323 329 331 331 331 330 329 328 329 331 327 328 327 321 316 312 313 313 312 311 310 310 309 309 310 311 312 312 313 317 319 321 322 325 330 335 337 339 339
317 319 321 322 324 328 330 328 327 326 323 320 317 312 312 312 312 311 310 308 308 310 309 308 307 307 306 307 308 306 308 309 309 312 312 311 312 313 315 322 328 331 333
319 321 323 325 326 327 326 325 317 314 313 311 310 308 308 308 308 307 307 306 306 306 306 303 301 303 303 303 303 305 304 305 307 306 305 307 309 310 311 312 313 318 327
320 321 322 324 325 325 323 316 313 311 309 308 307 306 305 304 305 303 303 303 302 302 301 300 299 298 299 299 298 298 300 302 303 303 304 306 304 306 306 307 310 309 311
317 319 321 321 319 318 317 314 312 309 308 307 306 304 302 300 300 300 298 299 298 299 298 297 296 297 297 298 295 295 292 295 299 300 302 302 300 302 303 304 302 302 305
312 312 314 314 315 316 314 313 311 310 307 304 304 302 300 298 297 297 297 296 296 297 296 296 295 295 295 296 296 292 289 289 293 297 297 298 298 299 299 300 300 301 301
310 312 312 313 313 313 311 309 306 303 301 302 302 301 299 297 296 296 296 295 295 295 294 294 296 295 295 293 294 296 293 292 290 289 293 295 295 296 297 298 298 299 299
310 308 307 307 307 307 307 306 304 302 301 301 299 297 296 295 294 295 294 294 293 294 292 292 292 292 294 293 292 291 291 290 290 289 287 289 292 294 296 297 296 297 297
308 307 306 305 305 306 304 303 302 300 299 297 295 294 293 294 294 293 294 292 292 292 291 291 291 291 292 292 291 290 289 288 288 288 287 288 288 291 294 294 294 293 294

GFSSE_sfc_thetae_003.txt.gz
Theta_e
336 347 357 355 355 354 353 351 346 344 340 338 340 342 345 341 338 338 339 338 336 336 334 338 340 343 344 343 342 339 340 338 335 334 334 334 333 334 338 339 332 335 337
342 349 356 355 354 353 353 350 346 343 340 337 336 336 337 337 335 336 337 336 334 334 333 334 337 338 339 340 338 337 336 335 333 333 334 335 334 334 336 334 333 333 339
345 350 352 356 356 354 352 348 346 343 341 337 335 335 335 335 336 338 336 334 334 335 333 333 332 333 334 336 337 338 338 334 332 332 334 328 328 333 337 336 334 334 337
345 348 350 356 356 354 351 348 345 343 340 338 335 337 334 337 335 334 337 335 335 333 333 332 331 330 332 335 336 336 336 336 333 334 329 329 325 335 337 335 334 334 336
342 346 350 356 356 355 350 348 346 345 341 339 336 335 337 339 342 340 339 336 336 334 332 332 332 332 331 331 332 333 334 335 335 334 328 326 322 331 338 335 334 334 336
341 346 353 355 357 354 351 348 346 345 343 341 339 338 337 341 343 345 342 343 338 336 334 332 332 333 334 335 334 333 333 334 336 329 324 324 323 330 333 336 335 335 336
343 348 352 356 355 354 352 350 347 346 344 342 340 338 339 342 343 343 342 341 339 337 335 334 333 333 335 336 338 337 336 337 330 324 321 321 323 334 334 334 336 337 337
346 350 351 353 354 354 353 351 349 347 345 343 339 338 338 338 341 342 344 341 338 337 336 337 336 336 334 336 338 339 339 338 331 323 322 320 326 334 337 336 335 335 336
344 347 347 348 350 350 351 351 350 350 348 345 342 339 341 339 338 340 344 340 338 337 337 338 338 337 336 335 336 339 339 338 330 326 326 323 329 335 336 337 337 336 335
337 340 343 344 347 347 345 348 347 347 346 346 343 341 339 339 338 340 341 341 339 339 338 336 336 337 337 337 337 338 337 337 331 328 327 325 334 337 337 337 337 337 336
333 334 338 341 342 344 341 343 345 344 344 342 340 338 336 331 330 333 336 338 338 337 338 337 338 338 339 338 338 337 335 329 328 327 327 331 335 337 337 338 337 336 336
330 332 334 338 340 340 342 340 339 339 338 336 335 333 333 329 327 332 331 335 337 339 340 339 339 341 338 331 329 332 328 328 328 327 327 333 337 338 339 341 341 338 337
330 332 334 334 337 336 337 336 334 334 333 333 333 331 331 327 327 327 328 329 328 330 330 332 330 332 330 329 329 328 328 327 327 327 328 335 338 339 340 342 343 342 341
326 331 333 334 334 335 334 333 332 331 330 328 329 328 327 326 326 326 327 327 329 331 330 331 331 331 331 331 330 329 327 326 326 327 327 332 337 340 341 343 343 343 343
323 329 331 333 334 335 334 334 333 329 329 329 330 330 329 328 328 329 329 330 332 332 332 330 330 328 324 324 323 322 322 323 325 326 326 329 334 339 341 342 341 341 341
321 326 330 332 334 335 333 332 332 330 331 329 329 330 331 329 328 329 331 329 327 326 323 318 315 313 314 314 315 314 317 320 320 321 322 323 330 333 337 341 342 341 338
317 320 325 330 334 333 333 332 330 330 329 328 328 331 331 331 328 328 315 310 312 313 311 310 309 309 309 310 308 311 311 310 310 311 315 319 322 326 331 335 340 340 339
318 319 319 329 332 331 331 330 329 327 325 324 319 314 313 312 312 310 308 306 307 309 308 306 305 304 304 304 305 304 304 307 307 306 311 310 311 312 319 326 329 328 333
317 319 318 323 330 329 325 325 319 312 311 310 310 309 307 307 307 306 305 304 304 305 303 302 301 299 299 300 300 301 302 301 303 308 305 304 307 308 309 315 320 324 324
318 319 320 325 326 323 314 312 310 309 307 306 305 304 304 304 303 302 302 301 301 301 299 298 296 297 297 297 301 299 298 300 301 299 300 304 303 304 304 306 308 306 313
318 320 321 324 322 316 312 309 307 305 304 303 302 301 300 300 300 298 298 298 298 298 296 296 296 296 296 297 295 295 297 299 297 298 299 301 301 300 302 300 301 301 302
317 318 318 317 317 314 313 310 307 305 303 302 301 298 297 297 297 297 296 295 295 296 294 294 294 294 295 295 292 291 290 292 295 296 297 297 296 298 298 299 298 299 298
310 311 312 312 312 312 311 309 307 305 303 301 300 297 296 295 295 295 295 294 294 294 293 292 293 292 292 293 293 291 287 286 290 293 292 294 293 294 296 297 298 297 298
308 310 311 312 311 310 309 306 303 301 300 300 300 297 295 294 294 294 294 293 293 293 291 291 293 292 291 291 293 295 291 289 287 285 290 291 292 294 294 295 296 296 294
306 304 304 305 305 305 304 302 302 300 299 299 296 294 293 292 293 293 292 291 291 291 290 290 289 289 290 289 290 290 289 289 287 286 284 286 291 292 292 293 292 293 292
304 303 302 303 302 302 303 302 300 298 296 294 292 291 291 291 291 291 291 290 289 289 289 289 288 288 288 288 288 288 287 286 286 286 285 286 287 289 290 291 290 290 292

GFSSE_sfc_thetae_006.txt.gz
Theta_e
336 346 358 356 356 355 353 349 346 343 340 341 340 343 344 342 340 339 339 336 336 335 333 336 339 342 344 344 342 340 339 336 334 334 333 334 333 334 335 339 335 333 339
340 348 357 356 355 354 352 348 346 342 339 338 338 339 340 339 337 337 336 336 333 334 332 333 335 337 338 339 338 337 338 334 332 332 333 333 334 334 335 336 334 331 338
345 349 352 356 355 354 352 348 345 343 339 337 336 336 337 336 338 338 336 334 335 333 332 331 331 331 333 335 336 336 336 334 333 333 333 328 327 334 337 336 335 335 336
347 349 350 356 355 354 350 347 345 342 340 337 337 335 337 337 336 333 337 336 334 333 332 331 330 329 330 333 335 335 335 335 334 334 328 328 327 333 337 337 337 335 335
345 347 350 356 356 354 350 347 345 343 340 338 337 336 337 339 339 339 339 337 336 335 333 331 331 332 332 332 332 332 334 335 336 334 326 325 324 329 337 338 336 336 336
341 344 351 355 356 355 352 347 346 344 341 339 337 337 337 341 342 344 342 344 339 336 334 332 332 332 334 335 336 336 335 334 338 328 325 323 325 331 333 336 337 336 335
339 344 351 355 356 354 350 349 346 345 344 341 339 338 340 341 343 343 344 344 339 337 335 334 334 334 334 335 337 339 338 338 330 324 322 320 320 332 336 336 336 337 337
342 347 349 353 354 352 351 350 348 346 345 343 340 339 340 338 340 342 342 340 338 336 335 336 336 337 336 335 336 337 339 339 332 325 323 321 326 334 335 336 338 336 336
345 347 347 349 350 351 351 350 350 349 347 344 341 339 340 339 337 339 344 341 339 337 337 337 338 336 336 337 337 337 339 338 331 327 327 324 329 335 336 337 337 338 338
344 346 345 345 347 345 346 348 347 347 346 345 342 341 340 338 338 339 342 340 339 338 338 337 336 336 337 337 337 339 337 336 330 328 328 327 334 338 339 339 338 338 338
338 340 343 342 342 343 342 343 345 344 344 343 339 337 335 329 328 331 335 336 340 338 338 338 338 339 340 338 338 338 336 329 326 327 327 331 336 339 339 339 339 339 338
328 333 338 340 339 341 343 339 338 338 338 335 334 331 331 328 327 329 331 335 338 339 339 339 340 341 339 332 330 332 330 329 325 327 327 332 337 340 341 341 343 342 341
329 331 335 338 338 338 337 336 334 334 333 333 332 331 330 327 324 325 325 327 327 328 328 330 329 328 329 329 328 326 326 324 324 326 327 333 336 339 341 341 341 341 341
326 331 332 336 336 334 335 335 332 331 330 329 331 330 327 324 325 325 325 328 328 328 330 331 329 326 322 320 320 320 318 320 323 323 324 330 333 333 337 336 340 341 342
323 330 331 333 334 333 333 331 329 328 328 327 327 327 327 327 326 328 327 327 326 326 324 316 312 311 310 311 311 310 311 314 314 317 318 324 328 330 332 332 334 336 339
322 329 330 333 333 333 332 331 330 328 330 327 327 328 329 328 327 327 314 314 315 311 309 307 306 305 304 305 305 307 306 306 307 307 309 312 324 326 324 324 326 331 334
319 326 329 332 334 333 332 331 329 332 331 329 329 325 325 324 316 312 309 306 307 307 305 303 302 301 301 303 301 303 302 302 303 303 307 307 309 316 320 320 324 319 321
317 321 326 335 333 332 330 330 328 328 325 316 312 311 311 310 308 307 304 302 304 302 301 300 299 298 298 297 297 298 298 299 300 303 304 302 304 306 309 316 313 313 314
317 318 321 331 331 329 326 323 317 312 310 308 306 306 305 305 304 302 301 300 301 299 297 297 295 295 295 295 297 298 295 297 300 299 296 299 302 301 301 308 310 309 310
316 317 320 329 323 315 314 312 309 307 303 302 301 302 301 300 300 299 297 298 298 296 295 294 293 294 295 294 298 296 293 297 295 293 294 298 297 296 298 296 296 298 308
317 317 322 321 312 312 311 308 306 301 300 299 298 298 298 297 297 296 296 295 296 294 293 293 293 293 293 294 292 291 294 294 292 293 294 292 294 293 296 295 297 296 296
317 318 319 316 312 311 310 306 304 302 300 298 296 295 295 295 296 296 294 293 293 293 291 291 291 291 292 292 289 289 287 289 291 292 292 292 291 293 294 295 294 295 295
313 313 315 313 311 310 308 306 303 302 300 297 295 294 293 294 294 294 293 292 292 291 290 290 289 289 288 290 290 289 285 284 288 289 290 289 291 290 292 293 294 294 292
308 310 311 311 309 308 307 304 302 299 297 298 296 293 292 292 292 293 292 291 290 290 288 289 290 289 288 286 289 292 289 287 283 283 287 289 288 290 290 291 292 292 291
307 307 308 308 307 305 304 302 300 298 298 296 293 291 290 290 291 291 291 289 289 289 288 287 287 286 287 286 286 287 286 286 286 283 281 284 287 289 290 290 289 290 290
302 303 303 304 302 302 301 300 299 297 294 292 291 290 290 289 289 289 289 288 287 287 287 287 286 285 285 285 285 285 285 284 283 283 282 283 283 286 287 289 288 289 289

GFSSE_sfc_thetae_009.txt.gz
Theta_e
333 341 356 357 356 354 352 348 346 343 341 340 340 342 344 345 343 340 339 337 335 333 331 335 339 341 344 343 342 340 339 335 333 334 333 332 334 334 334 336 337 331 338
337 345 357 357 356 354 352 348 345 342 340 339 339 342 343 341 338 337 336 335 334 333 331 332 334 335 338 339 338 337 338 338 333 333 334 332 333 333 334 337 334 329 337
341 348 353 357 357 354 351 348 344 341 338 337 336 339 337 335 338 337 336 335 333 333 331 331 331 332 334 335 336 336 336 335 333 333 334 327 325 333 335 337 334 334 336
345 348 349 356 355 354 351 347 344 341 338 336 336 336 336 336 336 336 335 335 333 333 332 331 330 330 330 331 333 335 335 335 335 335 327 326 326 333 336 337 337 336 336
344 347 349 356 355 354 350 347 345 342 339 337 337 336 337 337 337 337 338 337 336 335 333 331 331 332 333 333 333 332 332 333 337 334 325 323 323 328 335 336 338 336 337
341 343 350 355 356 354 351 347 345 342 340 337 337 336 337 340 341 342 341 343 340 337 334 332 332 331 332 334 336 338 337 336 337 327 325 324 324 330 335 335 335 337 335
338 342 348 356 356 354 351 348 346 344 341 339 337 338 339 339 342 343 345 344 338 337 334 333 334 335 335 334 335 337 338 339 331 325 323 322 320 332 334 336 336 336 336
338 343 349 353 355 354 351 349 347 345 345 341 339 338 340 338 340 342 342 340 338 336 335 335 336 337 337 336 336 335 338 338 332 326 324 322 327 334 336 335 336 337 338
340 343 346 348 351 350 349 349 348 347 347 344 341 340 340 340 336 340 343 341 339 337 336 337 338 337 336 336 337 338 339 337 331 328 328 325 331 337 339 339 338 338 338
341 344 344 345 346 345 345 348 347 346 345 344 342 340 340 338 337 338 342 340 339 338 338 338 337 337 338 338 338 339 338 337 329 327 327 327 335 339 341 341 341 340 340
340 342 344 344 344 343 343 344 345 345 343 342 339 337 334 328 327 330 334 336 338 339 338 338 339 339 340 338 338 338 336 330 328 325 326 331 336 339 341 341 341 341 341
334 336 342 341 341 340 343 339 338 339 337 336 333 330 329 326 325 327 329 334 338 339 339 338 340 339 333 330 328 330 325 325 323 324 325 333 337 338 338 339 340 340 340
332 334 338 338 338 339 339 335 334 333 333 332 330 328 328 327 323 325 324 325 325 328 327 329 328 329 323 321 320 318 317 318 318 321 324 330 329 331 332 335 336 337 340
324 330 335 336 335 336 334 334 333 331 330 329 329 329 326 323 323 323 324 330 329 327 326 320 315 310 309 309 308 308 308 310 310 314 315 322 326 328 330 330 332 334 338
320 327 331 334 334 335 332 332 330 329 329 328 328 328 325 324 324 325 325 320 315 315 310 306 305 303 303 303 303 303 303 304 304 306 308 317 322 321 322 325 329 326 326
310 324 329 332 334 333 331 330 328 327 328 327 326 326 328 326 322 311 312 312 309 306 304 302 300 300 299 299 299 300 299 297 300 302 305 304 315 314 319 321 320 319 320
316 323 329 331 333 332 330 330 329 329 330 329 326 326 322 315 311 310 308 306 303 301 300 297 297 298 296 297 295 297 297 296 299 297 300 300 303 308 313 313 314 314 316
317 324 328 334 332 331 330 331 329 328 319 313 312 312 311 310 308 306 304 301 299 297 297 295 295 295 294 293 293 295 294 296 296 293 296 297 300 298 303 307 309 309 312
316 322 327 331 331 330 327 321 316 312 310 308 308 307 306 305 302 300 299 298 296 295 295 294 293 293 292 293 294 295 292 295 293 292 292 293 296 294 297 300 304 304 306
315 318 327 330 327 319 313 311 308 307 305 305 303 302 300 299 297 296 296 296 295 294 293 292 291 292 292 291 295 294 291 295 291 290 291 292 291 291 294 292 294 295 303
314 316 325 322 315 313 310 308 306 303 301 299 299 297 296 296 295 294 294 294 293 292 291 291 291 290 291 291 290 290 291 291 290 290 291 289 290 291 291 292 294 293 293
314 316 317 313 311 312 310 305 305 302 299 295 294 293 294 294 294 294 293 292 291 290 289 289 289 289 289 290 288 287 285 287 289 291 289 290 288 290 290 292 292 292 292
313 314 312 311 309 308 305 304 302 300 297 293 292 292 292 293 293 293 291 291 290 289 288 287 287 287 286 287 288 286 282 282 285 287 287 287 288 287 289 290 291 291 291
311 313 311 310 308 306 305 304 301 296 294 294 292 290 290 291 291 292 291 289 289 288 287 287 288 286 286 284 287 289 286 285 282 281 285 287 286 287 286 287 290 290 289
309 310 310 308 306 303 302 301 299 297 296 293 290 289 289 289 290 290 289 288 287 287 286 285 285 284 285 284 284 284 283 284 284 282 279 281 285 286 286 287 287 288 288
306 307 307 306 303 302 301 299 299 296 294 291 289 288 288 288 288 288 288 287 286 286 285 285 284 284 283 283 283 282 282 281 281 280 279 281 280 283 284 286 287 286 287

GFSSE_sfc_thetae_012.txt.gz
Theta_e
332 339 357 358 356 354 352 348 345 343 342 340 339 341 343 345 342 341 338 337 336 333 332 336 339 342 343 343 344 342 339 336 335 335 334 333 333 333 334 335 336 332 334
334 340 354 357 357 354 351 348 345 343 342 339 339 341 343 344 341 340 337 335 335 332 331 332 334 336 338 340 340 338 337 338 334 334 334 333 331 332 334 335 335 330 334
336 343 352 357 357 355 351 348 344 341 341 338 339 343 341 335 338 337 336 334 332 333 333 331 331 331 334 335 336 336 336 336 335 334 334 325 325 333 334 335 334 334 334
342 347 349 357 357 354 350 348 344 340 337 337 336 338 336 336 337 336 334 335 333 333 332 331 331 331 330 330 331 333 333 334 334 336 326 325 325 333 334 334 337 337 336
343 347 348 357 355 353 350 347 344 341 338 337 336 336 336 337 338 337 338 337 335 334 332 331 331 332 333 333 334 334 333 332 336 332 325 323 323 329 334 335 337 338 335
340 344 350 355 355 355 351 347 345 342 340 337 338 337 337 339 341 339 342 342 341 336 334 332 332 332 332 333 335 336 338 336 338 325 324 324 324 329 332 334 336 334 337
338 342 348 355 355 354 350 348 345 343 341 338 337 337 338 339 341 341 345 344 338 337 334 333 334 335 335 336 335 336 337 338 330 325 324 323 322 333 334 334 335 337 337
338 342 347 352 354 353 351 349 347 344 342 339 337 338 339 338 339 343 344 341 339 336 335 335 337 337 337 336 337 337 337 338 332 326 325 324 328 337 338 338 337 337 338
338 341 344 348 351 351 350 349 348 346 346 343 340 339 341 340 337 342 342 340 338 337 336 337 338 337 337 337 338 338 339 338 331 327 327 326 331 338 340 340 340 340 339
337 340 342 345 347 346 344 347 347 346 345 345 342 340 339 339 338 337 341 341 338 337 338 338 338 339 339 339 339 339 338 336 327 325 325 325 335 340 341 341 342 342 342
338 339 342 343 343 342 342 343 345 345 343 341 338 337 334 327 325 328 333 336 337 338 338 338 340 340 338 335 335 334 331 326 323 323 323 331 336 339 338 338 339 340 341
336 340 343 343 342 339 344 340 338 339 337 335 332 329 327 324 323 326 327 332 336 335 334 336 337 333 326 323 320 321 317 316 316 319 322 329 329 331 332 333 336 336 336
331 336 341 341 339 337 338 335 334 334 333 332 330 327 326 325 322 324 324 324 324 327 326 327 314 311 308 308 308 307 308 309 308 311 315 324 327 328 328 330 332 336 335
325 332 337 339 338 336 335 334 333 331 331 329 329 327 326 322 322 322 324 328 325 324 311 308 305 303 303 302 301 301 302 301 302 305 308 322 322 324 326 329 327 326 327
320 324 332 336 336 336 333 332 331 329 329 328 328 328 326 322 323 323 317 313 311 306 303 301 300 299 297 298 298 298 296 296 299 302 301 316 315 321 323 321 321 321 323
310 317 328 334 335 334 332 330 330 329 329 327 326 326 326 328 317 313 311 308 305 302 299 297 297 296 294 294 295 296 294 296 295 296 298 300 309 313 314 316 316 317 319
308 309 325 331 334 333 331 330 328 330 329 329 328 330 325 314 311 309 306 303 299 297 295 295 295 295 293 293 292 294 293 295 291 293 294 297 298 305 308 311 311 313 313
311 318 325 332 332 331 330 330 330 330 321 318 315 314 311 309 307 306 302 298 295 295 294 293 293 293 291 290 290 292 291 295 290 291 292 294 293 294 299 305 306 307 309
313 320 325 329 330 330 328 324 317 314 313 311 309 308 306 303 303 301 296 294 294 293 292 292 291 291 290 290 291 292 290 294 289 292 289 291 290 292 292 298 301 302 303
314 321 326 329 328 322 316 313 310 307 306 305 304 302 301 300 297 296 294 293 293 292 290 290 289 289 291 289 292 291 290 293 289 288 289 291 289 291 291 290 291 293 300
313 322 327 327 318 315 315 310 308 303 302 300 299 298 297 295 295 294 293 292 291 290 288 289 289 288 288 289 288 288 289 290 290 289 289 288 288 289 289 289 290 291 291
312 319 323 318 315 315 315 308 304 302 298 297 297 296 294 293 293 293 291 290 289 288 287 287 287 286 286 288 285 285 283 285 287 288 287 288 285 288 288 289 289 290 290
310 316 315 313 314 312 305 302 299 298 296 295 293 291 292 292 292 291 290 289 288 288 286 286 286 285 284 285 287 283 280 279 283 286 286 286 285 286 287 287 288 289 289
310 312 310 310 311 307 306 301 299 297 295 292 290 289 290 290 290 290 289 288 287 287 285 286 286 284 284 283 285 287 284 283 280 279 283 285 284 285 285 284 286 287 288
311 308 309 310 309 305 304 303 299 296 294 290 289 288 288 288 289 289 288 287 286 286 285 284 283 283 284 282 283 283 282 282 282 280 278 280 283 284 284 283 284 285 286
308 307 308 309 305 303 300 300 298 295 291 289 287 287 287 287 287 287 287 285 285 285 284 284 283 282 282 282 281 281 281 280 280 278 277 279 279 281 283 284 284 284 285

GFSSE_sfc_thetae_015.txt.gz
Theta_e
338 345 356 358 356 354 351 348 345 343 342 341 340 342 346 345 344 341 339 337 336 335 333 337 339 344 342 341 345 342 339 336 336 335 335 333 332 332 334 333 335 334 334
340 345 358 358 356 353 351 348 345 343 342 340 340 342 344 344 343 341 338 335 335 333 332 332 335 337 340 342 341 340 339 338 335 335 335 332 331 332 333 335 334 333 334
341 347 353 358 357 355 351 348 345 343 341 338 339 342 342 337 339 337 336 335 332 334 333 331 332 333 334 336 336 336 335 335 335 335 333 332 332 333 334 334 335 334 333
342 346 351 358 357 355 351 348 344 341 340 338 340 341 337 339 336 334 335 334 333 334 333 331 331 332 331 331 331 331 332 332 333 336 333 332 330 331 334 336 336 338 337
343 348 352 357 357 355 351 347 344 341 338 337 337 338 337 338 338 337 336 336 334 335 333 332 332 333 333 334 335 335 335 334 334 333 333 333 332 329 333 335 336 340 338
345 350 353 356 356 354 352 347 345 341 339 338 337 336 336 338 338 340 342 342 340 336 333 332 333 334 335 334 335 336 338 337 337 335 335 333 333 331 333 332 335 335 334
346 350 352 355 356 354 352 348 345 343 340 338 339 338 336 339 340 342 344 344 339 336 334 334 335 337 337 337 336 336 336 338 335 335 335 334 334 335 337 337 336 336 338
345 348 351 352 354 353 351 349 347 343 341 338 337 337 338 339 339 344 345 342 339 337 335 335 337 338 337 336 337 337 338 338 335 335 334 334 334 337 340 340 339 339 338
344 346 349 351 352 351 350 349 348 346 344 342 340 339 341 340 337 343 343 341 339 338 336 337 338 338 338 339 339 339 339 338 337 336 334 334 332 338 340 341 341 342 342
341 344 347 350 351 351 349 347 347 346 345 344 342 340 339 338 337 337 341 341 339 337 338 338 340 340 340 339 338 336 333 332 332 332 333 333 335 339 340 339 340 341 341
338 342 345 348 350 350 348 345 345 344 343 341 339 336 336 336 333 333 334 336 337 337 338 339 339 335 332 329 327 325 325 322 323 325 328 331 333 335 335 333 334 338 337
337 340 343 346 346 348 346 346 345 344 342 339 337 337 335 332 330 331 330 332 334 333 334 332 324 320 319 318 317 318 316 317 316 317 320 326 328 330 331 331 333 336 336
336 340 341 344 345 345 346 344 344 342 341 339 337 336 334 332 332 333 333 334 335 330 324 317 314 312 311 311 311 311 310 310 312 315 320 325 327 328 329 331 330 329 330
332 339 342 342 341 343 345 343 342 340 340 339 337 335 334 331 331 332 332 326 317 314 311 311 309 307 306 305 306 306 304 308 312 311 316 319 323 327 326 325 324 325 328
327 332 340 343 340 341 342 342 341 339 338 338 336 335 334 331 332 328 318 311 309 309 308 307 305 303 302 302 304 304 305 305 306 308 311 315 318 318 320 320 319 322 321
322 326 332 340 341 341 341 340 339 339 338 336 335 335 333 331 322 315 310 308 308 305 304 304 303 301 300 300 302 302 303 301 303 303 305 305 311 312 314 315 315 316 316
316 316 322 333 340 340 340 339 338 338 336 334 331 330 329 317 314 310 306 305 303 302 301 301 302 300 299 298 298 301 301 299 300 301 301 301 302 305 308 309 309 310 311
314 315 317 329 336 339 338 338 337 335 331 328 327 322 314 311 309 305 302 301 301 301 301 299 299 299 297 297 297 300 300 300 298 298 299 299 300 299 301 304 304 305 306
315 317 323 331 334 336 336 335 330 323 321 317 314 311 309 308 305 302 301 300 299 299 298 298 297 298 296 296 297 298 299 300 297 297 298 298 298 298 298 298 299 299 301
316 319 327 332 333 333 325 317 313 310 309 309 307 305 303 302 302 300 299 298 298 297 296 296 295 296 295 295 295 295 299 302 298 298 296 297 296 296 297 296 296 296 298
318 323 329 329 328 323 319 314 311 306 304 302 302 300 300 299 299 299 297 297 296 295 294 294 295 293 293 295 294 295 297 298 298 299 296 297 295 295 295 295 294 294 294
317 325 328 326 323 323 321 319 311 305 300 299 299 298 298 298 298 297 296 295 295 294 293 293 293 293 292 293 290 292 290 293 295 294 295 294 293 294 293 293 293 293 294
316 323 324 322 321 321 313 306 300 298 297 296 296 296 296 297 296 296 295 294 294 294 292 292 292 292 290 291 292 290 288 286 288 293 294 294 292 292 292 292 291 292 292
316 321 321 319 318 311 310 306 303 303 300 298 295 295 295 296 295 294 294 293 293 292 292 291 291 291 291 289 291 290 290 289 285 284 290 291 291 289 290 290 290 290 291
315 318 317 316 313 309 309 307 303 303 299 295 293 293 293 293 294 293 293 292 292 291 290 290 290 290 290 289 289 289 288 288 288 286 283 286 288 289 289 289 289 290 290
314 314 314 314 310 309 307 303 303 299 295 292 292 292 292 292 292 291 291 291 290 290 290 290 289 289 289 288 288 288 287 286 285 284 283 284 284 287 288 288 289 289 290

GFSSE_sfc_thetae_018.txt.gz
Theta_e
341 353 358 357 355 354 351 348 345 344 343 342 341 345 347 345 343 341 339 338 336 333 334 338 341 345 339 340 344 342 339 337 337 336 335 332 331 333 334 333 335 335 334
344 353 359 359 356 353 350 348 345 343 342 340 341 342 346 345 344 341 339 336 334 334 333 333 336 339 342 343 342 340 340 337 335 335 333 330 330 333 333 335 335 334 333
344 351 354 358 357 354 350 348 345 343 340 339 341 342 344 342 342 339 336 335 334 335 333 332 333 333 335 336 337 336 335 335 334 335 333 332 330 332 334 335 335 334 332
345 351 352 358 357 354 351 347 345 343 339 339 344 341 338 339 337 336 335 335 334 335 333 332 333 333 333 332 332 331 332 332 334 335 331 327 328 329 335 337 335 338 337
345 350 352 357 357 354 350 347 343 341 339 338 341 340 339 338 335 334 335 335 335 335 333 333 334 333 334 334 335 336 336 334 334 334 333 333 333 329 331 334 337 337 340
344 348 354 357 356 354 351 346 344 340 338 338 339 339 336 338 337 338 339 339 337 336 333 333 334 336 336 336 335 336 338 338 337 335 335 335 335 334 336 336 334 335 337
343 348 352 357 356 354 350 347 344 341 339 338 338 338 336 340 340 342 341 342 338 336 334 334 336 337 337 336 337 337 336 337 335 336 336 337 337 336 338 339 339 338 337
343 348 349 353 354 353 351 348 346 343 340 339 339 338 337 340 339 344 344 341 339 337 336 336 338 338 337 338 338 339 338 338 336 337 337 338 336 337 340 341 342 342 341
344 347 347 349 352 350 350 349 347 345 343 340 338 338 338 339 339 343 344 341 339 338 337 338 339 339 339 340 340 339 337 335 337 335 334 336 335 339 340 341 341 342 342
343 345 346 347 348 350 349 347 346 346 345 344 342 340 340 338 337 341 342 341 339 337 338 339 341 340 338 337 334 331 329 331 331 332 333 334 335 339 338 337 335 337 339
340 343 346 345 348 349 348 345 345 345 343 341 339 337 335 336 334 334 334 336 337 338 337 338 333 330 329 325 324 322 325 327 325 325 326 327 329 332 333 332 333 335 337
338 340 345 346 346 347 346 347 344 341 341 340 340 339 336 335 331 334 332 334 334 334 332 326 322 319 326 324 323 321 322 320 319 320 322 326 328 329 329 333 331 331 333
338 341 343 345 347 347 346 346 344 342 343 341 341 339 333 332 333 334 336 337 339 332 332 326 323 320 317 317 317 316 313 313 316 318 320 323 326 327 331 328 327 329 328
335 340 343 345 347 347 346 345 343 341 342 341 340 339 334 333 334 335 337 334 328 323 322 321 318 314 312 310 310 310 309 312 314 316 317 322 324 325 325 323 324 324 324
332 337 342 345 345 346 346 345 344 342 341 341 341 338 336 335 335 336 327 321 315 318 318 317 314 310 308 307 307 307 307 309 311 313 314 316 318 319 319 320 321 320 320
328 331 337 343 345 345 346 345 344 342 341 341 341 337 338 336 336 323 318 313 315 314 312 310 308 306 306 305 305 305 306 308 309 310 311 310 311 312 313 314 314 314 315
324 325 328 336 343 342 346 346 344 342 341 340 339 339 338 333 325 315 310 310 311 309 307 307 307 306 305 303 303 304 305 306 307 307 307 307 306 306 307 308 308 309 309
324 323 323 324 334 342 344 345 343 342 341 341 339 337 328 319 315 309 306 306 307 307 306 305 304 305 303 302 303 304 304 304 304 304 303 304 304 303 302 303 303 304 305
323 323 323 326 328 335 341 343 342 342 339 334 330 322 318 313 308 305 305 306 305 305 304 303 302 301 301 301 300 301 303 304 303 302 302 302 302 302 301 299 299 299 300
322 323 324 327 332 335 338 340 339 334 327 321 318 314 313 307 305 308 306 304 304 303 302 301 300 300 299 299 298 300 305 306 303 303 303 301 301 300 300 299 299 299 298
321 322 325 328 333 335 335 330 324 315 317 310 308 307 306 304 305 307 305 303 303 301 300 299 299 298 298 298 298 301 301 302 303 304 303 299 299 298 298 298 297 297 297
320 323 327 330 332 335 332 330 324 315 311 304 303 301 301 301 303 305 304 302 301 300 299 298 298 298 297 297 295 296 295 297 299 300 299 299 297 297 297 296 296 296 296
320 323 328 331 331 332 330 324 316 310 302 299 298 298 299 300 301 303 302 301 300 300 298 298 297 296 295 296 295 293 293 292 292 298 297 296 297 296 295 295 295 295 295
320 325 329 328 331 329 319 314 314 315 308 300 298 297 298 299 301 301 300 300 299 298 297 296 296 295 296 294 296 294 294 292 290 289 295 295 295 293 294 294 294 294 294
319 324 327 327 329 322 317 317 320 312 311 301 297 296 297 299 300 299 299 298 297 297 296 295 295 295 295 294 293 293 292 292 292 289 287 291 293 294 294 293 293 293 293
320 324 326 327 325 319 315 313 311 304 298 296 296 295 297 299 298 298 297 297 296 296 295 295 295 294 294 294 293 292 291 289 289 289 288 289 289 291 293 293 292 292 292

GFSSE_sfc_thetae_021.txt.gz
Theta_e
341 352 358 355 354 352 350 348 345 344 343 342 345 348 347 345 343 341 340 338 335 334 335 339 342 345 341 342 345 343 340 339 338 337 334 330 331 334 336 335 336 336 336
346 353 358 357 355 352 350 347 345 344 342 341 341 345 346 345 343 341 339 338 336 335 334 336 339 340 343 344 342 342 340 338 337 336 334 332 332 335 335 335 337 335 333
347 354 355 357 356 354 350 347 345 343 340 340 341 344 347 345 342 339 338 335 337 335 334 334 336 335 336 336 337 337 336 335 335 336 335 332 330 332 334 336 336 337 335
346 352 352 357 356 353 349 347 345 341 339 341 343 343 341 341 340 337 336 336 337 334 334 334 335 335 335 336 336 334 334 333 333 334 332 327 327 332 330 335 338 337 339
345 350 354 357 356 354 350 346 344 342 338 344 342 341 340 336 335 334 336 336 337 335 335 335 336 336 336 336 336 337 339 335 336 337 334 335 333 335 334 333 334 337 339
345 350 354 356 356 354 350 346 343 340 338 341 341 338 338 337 336 337 337 337 338 336 334 335 336 337 337 337 337 336 337 338 337 335 335 335 336 338 338 338 337 336 336
343 350 353 356 355 354 350 346 343 340 339 339 340 338 339 341 340 340 340 341 338 336 335 335 337 338 337 337 337 338 338 338 336 336 336 336 337 338 340 340 341 341 340
342 347 352 353 354 353 350 347 344 341 339 340 339 338 339 339 340 344 344 341 339 337 337 337 338 339 338 339 340 339 339 338 336 335 336 335 338 337 340 340 342 342 343
342 345 349 353 351 350 349 348 347 344 342 341 341 339 340 338 343 344 343 342 340 338 338 339 340 340 341 340 339 337 336 336 334 333 332 333 337 339 339 339 338 337 339
342 343 345 349 351 349 348 347 346 345 344 342 341 341 341 338 341 342 343 341 340 338 339 340 339 338 337 334 330 327 328 332 329 328 328 328 332 335 336 335 334 335 338
339 342 343 344 348 346 347 344 344 344 343 341 339 338 336 335 334 335 335 337 338 338 338 334 330 329 329 327 323 321 325 325 324 322 323 328 330 331 331 333 335 334 335
336 339 342 343 345 346 345 345 342 340 342 339 338 336 335 333 332 333 333 336 336 336 331 327 321 321 325 325 324 323 320 317 317 318 321 326 328 329 334 331 330 332 330
337 338 341 343 344 345 343 344 343 340 339 339 338 338 332 330 330 332 334 333 335 333 331 325 323 321 319 318 317 315 313 313 314 317 320 326 327 330 329 327 328 327 327
334 338 341 343 345 345 346 343 343 340 340 339 339 337 331 329 331 331 333 337 332 328 325 323 321 317 315 312 310 310 309 311 311 314 317 321 324 325 324 325 323 323 323
330 335 340 342 345 346 346 344 343 341 339 339 339 338 333 331 331 333 332 328 324 323 322 319 316 312 309 308 307 308 307 308 309 311 314 317 318 318 319 319 318 318 319
329 332 337 340 343 345 345 344 343 342 340 340 338 338 334 333 334 332 326 322 321 319 316 313 308 307 307 306 305 306 305 306 307 309 311 310 312 312 312 313 312 312 313
325 328 331 338 341 343 344 345 343 342 340 339 338 337 335 336 333 326 320 317 316 313 310 309 308 307 306 305 304 304 304 304 306 307 307 309 307 307 306 307 307 308 308
325 325 326 329 336 342 343 344 342 341 340 339 339 337 336 335 328 319 314 313 313 310 308 306 305 305 304 304 303 304 304 305 304 304 304 304 305 303 304 302 302 303 304
324 325 325 326 328 334 342 342 341 341 339 337 339 338 333 322 316 312 309 310 309 308 306 304 303 302 302 302 302 302 304 304 304 302 303 302 303 303 303 303 300 302 300
322 324 325 325 326 328 337 340 342 338 337 337 336 328 320 314 309 307 308 308 307 306 304 303 302 302 300 300 299 301 305 306 305 304 303 302 302 301 301 301 300 300 302
320 322 323 324 327 329 333 338 337 333 330 328 324 319 314 308 307 309 309 307 307 304 303 302 301 300 299 299 301 302 303 302 303 304 305 302 301 300 300 300 298 298 298
320 321 322 324 327 332 336 339 335 329 322 316 314 307 306 306 306 307 308 306 304 303 302 301 301 300 299 298 295 299 297 298 300 301 301 299 299 299 298 298 297 297 297
319 321 322 325 330 333 337 333 322 311 306 305 304 303 301 302 304 306 306 305 304 304 301 301 300 299 298 298 297 294 294 294 293 299 299 298 298 298 297 297 296 296 296
319 324 325 328 331 334 335 328 317 313 308 308 305 301 300 301 302 304 304 303 302 302 300 298 298 298 298 296 297 295 294 293 290 289 297 297 297 294 296 296 295 295 295
318 323 326 329 331 333 332 324 320 319 315 308 302 298 298 300 301 302 302 302 301 300 299 298 297 296 296 294 294 293 293 294 293 290 288 292 294 295 295 295 294 294 294
315 324 327 329 329 331 328 322 322 321 309 303 298 296 297 298 299 301 301 300 299 298 298 297 297 296 295 294 293 293 291 290 289 289 288 289 289 292 294 294 294 293 293

GFSSE_sfc_thetae_024.txt.gz
Theta_e
345 351 357 354 353 351 350 347 346 345 344 347 349 348 347 344 343 343 341 338 337 335 338 341 344 346 346 347 346 343 342 340 339 337 333 330 333 336 337 338 338 335 336
348 352 356 356 354 351 349 347 346 344 343 342 345 347 347 345 343 341 339 337 336 335 336 339 340 341 344 344 343 341 340 339 337 336 336 335 335 335 336 336 337 336 335
347 352 353 356 355 353 348 346 345 343 341 341 342 346 347 345 343 340 337 338 335 335 335 337 338 337 338 337 336 336 335 334 334 335 338 331 329 334 335 337 337 336 337
350 349 351 356 355 352 348 346 344 340 342 343 345 345 344 343 341 339 338 339 336 335 335 336 336 336 336 337 337 337 337 334 334 338 332 329 329 334 331 332 336 337 340
348 348 352 355 355 352 348 346 344 340 344 346 345 343 340 339 337 339 338 339 337 336 336 337 337 337 337 336 337 338 340 337 340 338 331 328 328 337 338 337 335 335 336
345 350 353 355 354 353 350 346 344 340 343 344 345 343 340 339 338 337 339 339 338 336 336 338 338 338 338 337 337 337 337 337 339 328 329 334 333 340 339 338 339 339 337
347 350 352 355 355 353 349 346 343 340 341 342 340 340 341 342 340 340 343 341 339 337 337 338 339 340 338 338 339 338 338 339 334 333 331 334 336 340 339 339 342 343 343
347 349 351 353 353 352 349 347 345 341 340 341 341 340 342 340 341 343 344 341 339 338 338 339 340 340 340 341 340 339 339 338 333 331 330 333 339 339 339 339 339 339 340
342 348 349 350 350 349 348 346 345 344 343 343 343 342 343 342 346 345 344 341 340 338 339 340 341 341 341 339 337 335 335 335 329 327 328 326 336 337 337 336 335 337 340
338 345 347 348 347 345 344 345 345 344 342 343 342 342 339 338 343 345 343 342 340 339 340 340 338 338 337 333 328 327 329 329 323 318 321 325 331 332 333 334 337 336 336
336 337 344 347 346 345 343 343 344 343 341 340 338 338 336 332 335 338 337 338 340 339 339 335 331 333 331 330 328 327 326 315 312 316 319 329 330 330 336 334 334 335 332
331 334 337 345 345 345 344 341 338 339 337 334 332 333 332 329 328 333 332 337 338 338 334 330 325 327 327 318 317 322 309 307 308 314 319 329 327 333 332 332 330 330 329
331 333 335 337 341 342 342 340 338 337 337 335 333 331 329 326 327 329 328 331 330 330 324 323 318 315 312 310 308 306 305 305 305 314 321 328 330 331 327 328 326 326 327
330 332 335 337 337 342 342 341 339 336 336 335 333 332 323 322 323 324 328 330 331 327 319 316 313 310 307 303 302 302 301 303 302 311 316 324 324 325 326 324 322 322 322
326 331 334 336 338 341 340 342 339 336 336 334 333 332 326 324 324 325 328 321 318 317 314 311 306 303 301 301 300 300 299 299 301 308 309 319 318 319 319 318 318 316 316
320 328 334 336 338 340 340 340 339 338 336 335 335 335 329 326 326 326 319 317 315 311 308 303 301 300 299 299 299 298 297 298 299 303 306 308 314 313 312 312 312 312 312
318 325 330 334 338 340 339 339 340 339 337 335 335 335 330 329 326 321 316 313 310 306 303 302 301 300 299 299 297 297 297 297 298 299 302 302 305 309 307 307 307 308 308
318 319 325 335 336 338 339 339 339 339 337 336 336 335 332 328 321 314 311 309 306 304 302 299 298 298 297 296 295 296 296 298 297 297 298 298 299 300 304 303 303 305 304
316 318 319 326 334 336 338 338 337 338 336 335 336 334 331 322 314 309 306 306 306 302 299 298 296 296 294 295 295 294 296 296 296 298 295 297 297 297 296 302 304 303 302
314 316 318 320 321 328 338 338 335 336 335 336 335 329 318 314 310 305 305 306 304 300 298 297 295 295 294 293 297 296 297 298 297 295 295 298 296 295 294 295 293 294 302
312 312 316 318 318 319 327 334 333 330 331 329 324 319 311 308 306 304 306 304 301 298 296 296 295 294 293 293 293 294 295 294 296 297 297 297 295 295 293 293 292 292 292
312 312 312 316 319 320 322 332 334 326 322 318 317 311 305 305 307 307 305 302 298 297 296 295 295 294 293 292 289 290 289 292 293 294 294 294 292 292 292 292 291 291 290
312 313 314 315 317 323 326 329 311 309 306 305 304 302 301 302 304 305 303 301 298 297 295 294 293 293 292 291 290 288 286 286 286 291 291 291 291 290 290 291 292 291 290
309 314 314 315 317 324 333 321 315 316 308 305 304 303 305 301 302 303 302 300 297 296 294 293 294 292 291 290 291 292 288 287 284 283 289 289 290 290 289 289 290 290 290
305 309 315 316 320 327 331 320 316 311 307 303 300 300 299 300 301 301 301 299 296 295 292 292 292 290 290 289 289 288 287 287 286 284 282 285 287 289 289 289 288 288 289
304 306 315 317 323 326 327 318 317 312 304 299 298 297 298 300 300 300 299 298 294 293 292 292 291 290 289 289 288 287 286 285 284 283 281 282 283 286 287 288 288 288 288

GFSSE_sfc_thetae_027.txt.gz
Theta_e
344 350 356 354 352 351 350 349 348 349 351 351 351 349 346 345 344 341 339 338 336 338 341 344 345 347 348 347 346 344 342 341 338 335 333 332 335 336 337 337 338 335 335
347 350 355 355 352 351 348 347 346 345 348 348 349 348 346 345 342 339 338 336 335 337 339 341 343 345 346 344 343 341 340 337 335 335 335 334 335 335 336 338 336 335 333
348 350 351 355 354 352 348 346 345 343 343 345 347 347 346 345 341 339 337 336 335 336 338 339 339 340 340 339 337 336 334 332 332 334 337 329 327 333 336 337 336 335 336
350 350 350 355 354 351 347 346 343 342 343 344 348 349 346 342 339 340 339 336 336 336 336 336 336 337 337 337 337 340 337 335 335 339 332 328 328 335 332 331 334 337 339
348 349 352 355 353 351 347 345 342 345 345 347 346 345 343 342 341 340 340 337 337 337 338 338 338 337 337 337 338 339 339 337 339 336 330 326 331 338 338 337 335 335 335
345 349 353 354 353 351 350 346 342 346 347 344 346 344 343 340 340 340 340 339 337 337 338 339 339 338 338 338 338 337 336 336 339 330 330 337 333 340 338 337 340 340 339
345 350 351 354 353 352 350 348 344 345 345 343 342 341 341 342 342 341 341 340 338 337 338 339 340 339 339 340 339 338 338 339 333 329 331 334 336 340 339 341 341 341 341
347 349 350 352 352 351 349 347 345 344 345 344 343 343 343 341 341 343 342 340 339 339 339 340 340 340 341 341 340 339 338 338 332 327 330 330 339 338 337 338 336 338 341
348 348 349 349 349 348 347 345 344 344 345 345 344 344 342 345 346 345 343 341 340 339 340 341 341 341 341 339 336 333 333 332 323 323 324 325 336 334 334 334 337 339 337
346 347 347 347 347 344 343 344 343 343 343 344 343 343 339 342 344 345 343 342 340 340 342 341 340 339 338 334 328 330 328 325 316 319 322 326 332 330 334 336 336 336 335
344 345 346 345 344 342 340 340 343 342 341 341 339 338 335 334 338 338 338 339 341 340 340 338 337 336 333 331 328 327 320 306 312 316 320 331 330 337 334 336 333 332 333
335 342 345 344 343 341 343 339 337 337 334 333 332 333 331 329 332 336 333 337 340 340 337 333 329 329 327 316 314 314 304 304 311 317 323 332 331 333 333 330 329 329 329
330 336 344 344 343 342 341 338 336 335 332 330 329 330 328 326 328 328 329 331 330 330 326 323 317 312 308 306 303 301 302 303 311 315 325 333 332 329 329 326 326 326 325
329 332 339 344 343 342 340 337 336 334 334 331 330 329 324 322 325 324 325 326 327 326 321 315 309 306 301 299 299 299 298 300 308 311 319 326 326 327 325 323 322 321 320
328 331 333 340 341 341 338 337 337 334 335 335 332 331 322 321 320 322 325 326 321 316 312 306 301 299 298 298 297 297 296 297 306 308 311 321 321 320 319 317 316 315 315
324 329 334 334 338 340 339 339 337 336 335 335 332 330 323 323 321 322 318 316 313 308 303 300 299 298 297 296 297 296 295 296 301 305 306 311 316 313 313 312 311 311 311
314 328 332 335 337 338 338 339 337 338 335 335 334 332 327 325 323 317 314 311 307 302 301 300 299 297 296 297 295 295 295 295 296 301 302 302 304 312 309 308 308 308 308
314 317 332 336 337 338 338 336 337 338 334 334 334 334 329 324 319 314 311 307 303 301 299 297 296 295 294 294 292 293 294 296 295 295 298 299 298 300 303 304 305 305 305
310 314 322 334 336 338 338 337 334 334 332 333 333 333 327 320 316 312 308 304 302 300 298 297 294 294 292 292 294 292 294 295 295 296 294 295 295 295 294 301 303 303 303
312 311 314 326 334 338 338 338 332 333 333 334 334 331 320 316 313 310 305 302 302 299 296 295 294 293 292 291 295 295 295 296 295 293 294 296 294 294 293 293 292 293 301
307 307 309 316 330 334 335 333 328 330 330 331 329 321 315 310 308 308 305 301 301 298 295 294 294 292 291 291 291 291 294 294 294 295 295 295 294 294 292 291 290 290 291
309 310 308 312 319 331 335 335 330 325 322 321 317 314 311 309 308 305 302 301 300 296 294 294 294 292 291 290 288 289 287 290 290 292 292 292 290 290 291 291 290 290 289
306 308 310 310 314 319 328 321 313 311 310 307 306 308 307 307 306 304 303 300 298 297 294 292 292 292 290 290 288 288 286 285 285 289 289 289 289 289 288 289 290 290 289
302 307 310 311 312 316 325 323 322 322 317 310 305 306 305 306 304 301 300 300 299 297 293 292 293 291 291 289 290 290 287 286 283 283 287 287 288 288 287 287 288 288 289
300 302 308 310 312 317 325 324 325 319 308 305 303 304 303 302 304 302 299 299 297 296 294 291 290 289 289 288 288 287 286 286 285 283 282 284 286 287 287 287 287 287 287
303 301 303 309 311 323 323 322 323 311 303 302 302 301 302 301 301 301 299 296 295 294 293 290 289 289 288 288 287 286 286 284 283 282 281 281 281 284 286 287 286 286 286

GFSSE_sfc_thetae_030.txt.gz
Theta_e
344 349 356 354 353 353 353 353 353 353 353 352 350 347 346 344 342 340 338 336 339 341 345 344 342 343 347 346 345 343 342 339 336 334 334 335 336 336 337 338 337 333 336
346 350 355 354 352 351 350 349 350 351 352 351 349 347 345 343 340 339 336 336 337 339 343 345 347 349 348 346 343 341 339 335 334 334 334 333 335 334 336 336 336 333 333
347 349 350 354 353 350 347 346 345 346 348 349 348 346 345 342 340 336 335 335 337 338 341 342 342 341 341 339 337 335 333 332 334 334 335 326 326 333 334 335 335 335 335
347 349 349 354 352 348 347 346 344 343 345 348 348 347 345 342 340 337 336 335 336 337 338 338 338 338 338 338 339 339 336 336 337 339 329 328 328 336 333 331 333 336 337
346 348 349 354 352 349 347 344 342 343 344 347 349 347 342 340 340 339 337 337 337 337 337 336 336 336 336 337 338 338 338 337 338 331 327 325 329 337 338 337 336 335 334
345 347 351 353 352 350 348 345 346 345 347 346 348 347 344 341 341 341 338 337 337 338 338 338 338 338 338 338 337 336 336 338 336 331 327 331 333 339 337 338 341 340 340
345 348 350 353 352 350 347 346 347 346 345 343 343 342 341 341 341 342 340 338 337 338 339 340 340 339 339 340 339 338 339 338 329 327 328 333 333 339 338 340 339 339 340
345 348 349 351 351 351 349 346 347 349 346 345 344 344 342 342 342 342 341 339 338 338 340 341 340 341 341 340 339 338 337 335 326 324 325 328 338 336 336 335 337 341 341
347 347 347 348 348 348 347 345 345 348 345 345 345 346 345 344 344 343 342 340 339 339 340 340 341 341 340 338 335 332 330 330 320 322 324 324 337 333 334 336 338 337 337
345 346 346 346 345 343 342 344 343 345 344 344 345 343 340 342 344 345 343 342 339 340 341 341 341 339 337 333 328 329 323 325 316 319 321 324 333 333 337 337 336 335 334
344 345 346 345 342 340 339 339 342 342 342 342 341 337 336 336 338 339 338 340 341 341 341 339 339 336 332 328 327 324 314 311 313 316 318 332 337 336 336 334 332 333 331
340 342 344 344 341 340 340 337 335 336 335 334 334 333 329 332 334 336 334 337 341 341 339 335 333 331 323 314 306 310 303 309 314 318 322 333 334 335 332 329 329 329 328
340 342 343 343 341 339 339 336 334 332 330 330 330 331 329 328 330 330 329 332 331 332 327 322 315 310 305 303 301 299 301 310 312 317 327 334 330 331 328 326 325 325 324
336 340 343 343 341 340 339 337 335 333 330 327 328 329 326 323 325 325 326 326 326 324 318 314 308 301 299 298 297 296 298 307 309 313 322 328 328 326 324 322 320 319 318
329 336 342 342 341 340 338 336 334 333 332 330 328 328 325 322 325 324 324 324 324 323 313 305 299 298 297 296 296 295 296 304 307 310 313 323 323 321 319 317 316 315 314
325 330 340 342 342 341 338 335 334 333 333 332 331 330 324 324 324 323 323 323 316 312 305 299 298 297 295 295 295 294 294 300 304 306 308 312 318 315 313 312 311 311 311
313 328 331 341 342 340 338 335 335 333 334 333 332 331 325 323 320 321 318 314 307 302 299 299 297 296 295 295 293 294 294 295 302 302 303 302 305 313 310 308 308 308 309
310 315 329 335 339 339 338 337 336 335 334 333 333 332 327 322 321 316 314 307 302 300 298 297 296 294 293 292 291 291 293 294 297 299 299 298 298 300 304 305 304 305 306
308 310 322 331 334 337 338 338 335 335 333 333 333 332 326 322 318 315 310 303 300 299 297 296 294 293 291 291 292 292 293 293 293 296 296 295 296 296 294 303 303 302 302
310 307 314 329 333 336 336 335 332 332 331 332 331 332 325 319 317 314 306 302 301 297 296 295 293 291 291 290 294 294 294 294 292 292 292 294 294 293 292 292 291 293 300
304 304 306 317 330 334 334 331 330 330 330 329 331 327 321 318 316 312 305 303 299 297 295 294 293 291 290 289 290 291 293 292 292 293 293 293 293 292 291 290 289 289 290
306 306 305 309 322 332 335 334 331 332 325 329 322 320 319 316 313 309 305 302 298 296 296 293 293 291 290 288 288 289 287 290 290 290 291 291 289 289 289 290 288 289 288
302 304 307 307 312 328 334 322 315 315 313 312 311 311 311 314 311 308 305 302 299 299 297 294 293 292 290 289 287 288 285 286 284 287 288 287 287 287 287 288 288 288 288
300 302 305 307 309 317 326 326 324 323 318 313 316 312 310 312 309 305 303 301 299 298 296 292 293 292 291 288 289 289 286 285 283 283 286 286 286 287 286 286 286 287 287
299 298 300 304 307 311 323 327 325 325 322 307 307 307 307 307 306 303 301 299 298 295 294 294 291 291 289 289 288 286 285 285 284 283 282 283 285 286 286 286 286 285 285
301 302 301 302 304 308 319 325 325 324 307 305 305 304 303 303 302 302 301 299 298 295 294 291 291 290 288 287 287 286 285 284 283 282 281 281 281 284 285 285 285 284 284

GFSSE_sfc_thetae_033.txt.gz
Theta_e
341 347 356 355 352 352 354 355 354 355 353 350 348 347 346 343 342 339 338 339 341 343 343 341 343 346 346 346 344 343 340 336 334 335 336 337 336 336 338 337 337 331 336
345 349 354 353 352 352 354 354 355 354 353 350 348 345 344 342 340 338 336 337 339 342 344 347 345 346 347 346 343 341 336 334 335 334 333 335 336 336 336 335 336 330 334
346 348 349 354 353 353 352 352 352 352 351 349 347 346 343 340 337 336 335 337 338 341 343 344 345 345 343 340 337 333 332 334 336 336 335 325 325 334 333 335 334 336 334
347 347 347 353 352 350 348 347 349 350 350 349 346 345 343 341 337 336 336 337 337 340 340 341 340 340 339 338 338 336 337 338 338 336 326 326 327 337 334 332 333 335 337
345 347 347 353 351 347 347 346 345 346 347 348 348 346 343 340 337 337 336 336 336 337 337 336 336 336 336 338 339 338 338 337 336 330 325 324 327 336 337 337 337 336 334
344 345 350 352 351 350 347 343 343 343 346 347 348 345 341 340 340 337 337 337 337 337 337 337 337 337 337 337 337 337 339 338 333 326 325 326 333 338 339 342 341 341 341
343 345 348 352 350 348 345 346 346 345 348 349 347 343 342 341 341 339 337 337 337 338 338 338 338 338 339 339 339 339 338 334 327 326 327 330 332 338 339 338 339 342 342
344 346 348 350 350 349 346 347 348 348 346 346 347 345 343 342 342 341 339 337 337 338 339 340 340 340 340 339 338 336 333 330 324 323 325 326 337 336 336 335 340 339 339
345 345 346 346 347 348 346 346 348 347 345 345 345 344 344 344 344 343 341 339 338 339 340 340 340 340 339 337 332 328 328 329 320 320 323 322 336 334 335 339 337 337 335
344 345 343 344 344 343 342 344 345 345 344 344 343 344 342 341 342 344 343 341 339 340 340 341 341 339 337 329 327 324 329 324 317 319 320 322 334 336 338 337 336 334 333
343 344 345 344 342 339 338 339 342 344 342 342 341 339 336 336 338 339 338 340 340 341 341 340 339 337 330 327 326 319 318 313 313 315 317 332 336 337 335 333 333 331 329
339 343 344 343 341 338 339 335 334 336 336 335 335 332 332 333 334 337 334 338 341 341 340 338 336 329 317 309 304 308 307 312 315 317 320 336 335 334 331 331 329 328 325
340 341 342 341 341 338 337 334 332 331 331 331 331 330 327 331 331 331 330 332 331 333 328 321 313 308 303 301 299 298 307 310 313 317 329 334 332 330 328 326 325 324 323
338 340 341 342 340 338 337 335 333 331 329 327 328 329 326 324 327 326 327 327 326 325 319 312 306 299 297 297 296 296 305 309 311 314 322 330 328 326 324 321 320 319 318
337 339 340 341 340 339 336 335 334 332 330 329 327 328 327 323 324 325 324 324 323 321 315 308 299 297 295 295 295 295 302 306 308 311 313 324 325 322 320 318 316 315 315
331 338 341 340 340 339 337 335 333 333 331 328 327 327 327 324 323 324 322 322 322 320 308 300 297 296 294 294 294 293 298 303 305 307 309 313 320 317 314 313 312 312 312
319 329 339 341 341 339 338 336 334 333 332 329 328 327 326 323 323 324 322 320 317 310 300 297 296 295 295 294 292 292 294 301 303 304 304 302 306 315 311 310 309 309 310
310 315 329 342 340 339 338 337 335 332 332 331 331 330 327 323 322 320 318 316 306 300 298 297 295 294 293 292 291 291 292 296 300 300 299 297 299 299 305 306 306 306 306
307 309 319 331 339 339 338 337 335 333 331 331 332 331 328 322 320 319 316 309 301 299 299 297 294 293 291 290 291 291 292 292 297 299 296 295 296 294 294 304 304 303 302
306 306 310 326 333 338 338 336 335 332 332 331 331 331 327 322 319 317 312 303 301 301 298 296 293 291 290 290 294 293 293 292 291 293 294 294 294 293 291 291 290 291 301
303 303 305 316 328 333 333 332 331 329 329 329 330 330 322 321 319 317 311 304 302 301 298 294 292 290 289 289 290 291 291 291 291 291 291 291 292 291 290 289 288 288 289
305 304 303 306 321 330 333 334 331 331 332 330 328 326 323 320 318 315 309 304 301 298 295 294 293 291 289 288 288 289 288 289 289 289 290 291 288 289 288 289 288 288 287
301 303 305 305 308 325 333 326 317 317 316 315 315 316 318 319 317 315 309 306 302 300 297 297 296 293 289 287 287 289 285 286 285 286 287 286 287 286 287 287 287 287 286
299 301 302 304 306 311 325 328 324 325 322 323 324 319 315 316 315 313 310 306 304 300 298 297 296 293 290 288 287 288 285 286 284 283 285 286 286 286 285 286 285 286 286
298 298 299 300 303 306 317 327 326 325 325 318 312 312 313 312 312 308 307 307 303 300 299 296 294 291 290 289 288 286 285 284 283 283 282 283 285 285 285 285 284 284 284
298 299 299 301 302 303 309 322 325 325 313 309 307 312 310 309 306 305 304 303 302 300 299 297 294 292 289 289 289 286 285 284 283 282 281 281 281 283 284 284 284 283 283

GFSSE_sfc_thetae_036.txt.gz
Theta_e
335 346 357 356 355 355 356 356 356 354 352 350 349 348 345 343 341 340 340 342 342 343 342 343 345 347 346 345 345 342 337 336 337 337 338 338 337 339 338 338 335 331 336
342 348 356 356 355 354 355 356 356 355 353 349 347 346 344 342 340 338 338 340 342 344 344 343 345 346 346 345 342 337 336 336 336 335 334 334 339 336 336 336 337 331 337
344 347 349 355 354 354 356 354 354 353 351 350 347 345 342 340 337 337 337 339 340 344 346 348 347 346 343 340 335 334 336 338 338 336 333 324 326 334 333 336 336 338 333
346 346 346 354 354 354 354 353 353 352 351 349 347 343 342 338 336 336 337 338 340 343 342 342 342 340 340 339 337 338 339 339 337 333 325 325 328 338 335 333 333 335 337
344 345 347 354 353 351 350 350 351 351 351 348 347 344 342 337 337 337 337 337 339 339 338 338 338 338 338 339 339 339 339 338 336 330 324 324 328 336 339 341 338 338 335
341 342 349 352 352 350 348 346 346 348 348 347 347 345 341 338 338 337 337 337 337 337 337 336 337 337 338 338 338 340 339 336 331 326 324 325 332 340 341 340 341 342 342
340 343 347 352 350 348 347 345 344 345 347 348 348 344 342 340 338 337 337 338 338 338 338 338 339 340 340 340 340 339 336 334 326 324 328 329 330 338 338 340 342 342 343
343 344 346 349 350 349 346 346 347 347 348 349 348 344 343 342 341 339 337 337 338 339 339 340 340 341 341 339 337 334 332 330 324 324 324 325 337 337 335 339 339 338 338
344 343 343 344 346 347 346 347 347 347 348 349 347 346 344 344 343 341 339 337 338 339 341 340 341 341 339 333 330 328 331 328 318 320 322 321 336 335 340 339 337 335 334
342 343 341 341 342 341 340 345 346 346 345 345 345 343 341 341 342 343 341 340 338 339 340 340 341 339 333 328 326 331 327 323 315 316 317 320 337 338 338 337 335 333 330
341 343 342 341 340 339 338 338 343 343 342 342 340 339 337 334 334 337 337 339 340 340 341 341 340 335 328 328 322 324 319 312 313 313 316 337 338 336 334 334 332 330 328
336 341 342 342 341 337 340 335 336 337 336 335 335 333 331 332 333 336 334 337 340 341 340 339 337 327 317 303 303 312 310 312 314 317 319 337 335 332 332 331 328 326 325
337 339 342 343 342 337 337 333 331 333 332 332 333 330 328 331 331 331 331 332 331 332 327 319 311 305 301 300 298 303 309 311 313 318 328 334 331 329 327 326 325 324 322
338 339 341 342 341 339 336 333 332 331 331 331 331 329 325 327 328 327 328 328 327 325 319 310 304 297 297 296 296 301 307 310 311 314 324 330 328 327 324 322 320 319 318
336 338 340 342 341 340 335 333 332 331 330 333 330 329 326 324 326 325 325 325 324 321 315 307 298 296 295 295 294 299 305 307 309 311 314 325 326 322 321 319 317 316 316
336 338 340 341 341 340 337 333 332 331 330 328 328 328 327 324 324 325 323 323 322 320 312 302 297 295 294 294 293 296 303 305 306 308 309 313 322 319 316 314 314 313 314
328 338 340 340 340 339 338 335 333 332 331 328 327 326 327 324 322 324 323 321 320 317 302 296 295 294 294 294 292 292 300 302 304 304 303 303 307 316 314 311 311 311 311
311 324 337 342 341 339 338 337 335 333 332 329 327 326 326 325 323 322 322 321 316 307 299 296 295 294 292 292 290 291 293 300 301 301 299 298 298 298 306 308 308 307 307
305 308 319 334 339 339 339 338 336 333 331 330 328 327 326 324 323 322 321 319 307 301 298 298 294 293 291 290 291 290 291 293 298 299 296 295 296 294 294 306 305 304 303
304 304 307 320 336 338 339 338 335 332 331 330 330 329 327 325 321 321 319 313 304 299 298 299 296 293 291 290 293 293 292 291 293 295 294 294 294 292 291 290 289 291 302
303 303 304 307 323 335 337 334 333 331 331 329 330 330 329 326 322 320 318 311 304 302 300 298 295 293 289 290 291 291 290 290 289 290 290 290 291 290 289 288 288 288 289
303 303 302 304 312 326 334 335 333 333 332 332 330 329 328 325 322 319 316 311 305 302 297 295 295 291 289 289 289 289 288 289 288 288 289 291 289 288 288 288 287 287 286
299 302 303 302 305 318 329 331 319 320 319 320 322 326 324 322 321 320 316 312 307 303 299 297 297 295 289 288 288 290 285 286 286 286 286 286 286 286 286 287 286 286 285
298 299 301 303 304 307 322 327 327 327 325 325 327 327 322 320 320 319 313 311 306 305 301 301 298 297 293 288 287 288 285 287 285 283 285 285 285 285 284 285 285 285 285
297 297 298 299 302 305 310 327 326 325 326 319 320 322 321 318 318 317 313 311 306 304 304 301 298 295 294 291 288 286 285 284 283 283 282 283 284 285 285 284 284 283 284
299 300 299 297 298 300 305 319 325 325 323 313 311 316 316 315 314 313 312 309 307 304 302 300 299 298 293 292 291 287 287 286 284 283 281 281 282 283 284 284 283 283 283

GFSSE_sfc_thetae_039.txt.gz
Theta_e
341 352 359 359 357 357 357 357 358 356 354 352 350 348 346 345 343 343 343 342 343 343 343 344 346 347 345 344 343 339 338 339 338 339 339 340 339 339 339 336 334 334 337
344 353 357 358 358 357 358 358 357 355 353 351 349 346 345 343 341 340 342 342 344 344 343 344 346 346 346 343 339 337 338 337 336 336 336 338 340 336 336 338 336 336 337
346 352 352 357 356 358 358 356 356 354 352 349 348 346 343 340 338 338 340 341 345 348 346 346 347 346 342 338 336 338 339 339 337 335 333 335 335 333 336 337 338 336 333
349 350 348 354 354 357 357 355 355 353 350 350 348 344 341 338 336 337 338 339 345 346 345 344 343 341 340 337 339 340 340 338 336 333 334 337 338 339 336 334 334 336 337
347 348 347 353 354 356 355 354 354 353 350 349 348 345 341 337 337 338 338 340 341 341 341 341 340 340 340 339 340 340 340 338 336 333 334 337 340 340 343 343 340 339 336
346 347 350 353 354 354 353 352 352 352 351 348 348 344 340 338 338 338 338 339 339 338 338 337 337 339 339 339 340 340 338 336 333 335 333 335 339 340 339 342 343 343 344
345 348 348 353 352 350 348 348 350 349 350 347 347 344 341 339 339 338 338 338 338 338 338 338 339 341 341 340 341 338 337 334 334 335 337 338 338 338 338 342 341 341 343
345 347 346 349 350 349 348 347 348 349 349 350 349 344 342 340 339 338 338 339 339 339 340 340 341 342 341 339 336 335 333 332 334 336 335 335 339 335 340 340 338 336 337
346 346 347 347 347 347 346 346 346 347 348 350 348 346 345 344 342 338 338 338 339 340 341 341 342 340 336 332 330 331 331 328 331 330 329 332 339 339 340 338 336 334 334
345 346 346 347 346 345 343 346 345 346 347 349 346 344 342 341 342 342 340 339 339 340 341 341 341 337 330 329 333 331 328 324 326 326 329 333 339 340 338 336 334 331 330
340 344 346 345 345 344 342 343 344 344 343 343 342 339 338 341 341 340 338 339 340 341 341 342 340 331 328 325 327 324 321 322 322 326 335 339 337 336 335 333 331 329 328
336 339 343 345 344 344 341 341 344 343 341 340 341 341 340 341 341 340 337 338 340 341 341 340 335 326 315 313 315 318 321 322 324 330 334 337 334 334 332 330 328 327 326
337 338 340 341 344 343 342 340 339 342 340 340 340 340 339 338 339 340 341 340 339 335 335 331 321 315 312 309 311 317 319 322 327 332 334 334 331 329 327 327 325 323 322
337 338 340 343 344 343 343 340 337 338 338 337 339 339 337 337 338 339 339 339 338 337 330 323 315 309 307 306 309 314 317 322 327 329 330 330 329 327 325 323 321 320 319
335 337 341 342 342 342 340 340 338 336 339 337 337 337 336 335 337 338 338 337 336 334 329 318 310 306 305 304 306 312 316 320 323 325 327 326 327 324 322 320 318 317 317
338 339 340 341 343 342 340 338 338 337 336 338 337 337 336 334 336 336 335 335 334 332 326 316 308 305 304 304 303 309 314 318 320 320 322 322 324 322 318 316 315 315 315
335 340 341 341 343 341 341 338 338 337 336 334 335 336 335 333 333 335 334 333 332 330 322 310 305 303 303 302 302 306 312 315 316 316 315 316 316 317 316 314 313 312 313
317 332 340 342 342 341 341 340 337 339 337 335 334 334 334 334 332 332 332 332 331 327 315 308 304 303 303 302 301 302 308 312 313 313 310 310 310 309 311 311 309 308 308
311 312 328 340 341 341 341 341 338 338 337 337 334 332 332 333 332 331 330 331 329 323 312 306 303 304 302 300 300 300 301 308 310 308 306 306 306 305 306 308 306 305 304
310 310 311 324 339 342 343 340 338 336 336 337 335 332 331 331 331 330 329 329 326 319 312 305 304 300 300 300 297 299 301 301 306 306 305 302 304 302 304 302 300 300 303
308 308 308 309 320 337 337 336 334 332 333 332 335 334 331 330 328 328 329 326 322 318 313 307 303 299 297 298 299 299 300 299 299 303 303 301 301 299 299 298 298 298 298
306 307 308 308 310 320 335 336 336 335 334 335 334 333 333 331 328 327 326 323 319 317 312 305 302 298 296 299 299 299 297 297 297 297 299 299 299 298 297 296 296 296 297
302 304 306 307 309 312 326 336 331 330 328 330 330 330 332 332 329 328 326 324 318 317 310 306 303 302 297 296 298 300 294 296 296 295 295 297 297 296 296 295 294 294 294
301 302 303 304 307 309 318 331 330 328 327 329 330 331 331 331 329 327 325 324 320 316 313 308 304 303 300 295 294 293 294 296 295 292 293 293 294 294 294 294 293 293 293
304 305 304 302 302 306 309 322 330 329 330 331 331 331 330 326 328 327 325 322 320 316 315 310 306 304 302 299 298 292 291 292 292 294 292 291 291 292 293 293 293 292 291
305 306 306 306 306 305 305 310 324 328 328 326 326 327 327 325 324 324 323 321 320 317 314 309 308 305 303 300 298 294 293 291 290 291 292 291 292 291 292 292 291 291 291

GFSSE_sfc_thetae_042.txt.gz
Theta_e
347 353 360 358 357 358 357 359 358 357 355 353 351 349 348 347 346 345 343 341 342 343 345 345 347 346 345 343 341 340 339 339 339 340 340 340 339 338 337 335 332 337 339
349 354 359 360 359 358 359 358 358 356 354 351 349 347 345 343 342 343 341 343 344 343 343 346 347 346 344 341 339 339 338 337 336 337 338 339 340 336 339 339 339 336 339
349 353 354 359 359 360 359 357 356 353 352 350 348 346 343 341 340 341 341 345 348 346 345 347 347 345 341 338 339 339 339 337 335 335 334 335 333 336 337 336 338 334 336
350 352 351 356 358 359 357 355 354 353 350 349 347 344 341 338 338 340 340 345 348 348 347 345 343 340 338 339 340 340 339 337 335 333 337 337 337 339 337 335 335 337 337
349 350 350 354 357 358 357 355 354 353 351 349 346 344 339 338 338 339 340 343 344 343 343 342 341 340 339 340 340 340 339 338 334 335 338 341 341 341 343 342 340 337 335
349 349 349 352 355 357 356 356 355 352 350 348 347 343 339 338 339 339 341 341 340 339 339 339 339 339 340 340 341 339 337 335 335 335 338 338 339 338 343 343 344 343 342
346 347 347 352 355 354 354 353 353 352 351 347 346 342 339 339 339 338 339 339 339 338 338 339 339 340 340 341 340 337 336 333 336 336 337 337 339 336 342 341 342 341 342
346 347 347 349 351 350 350 350 351 351 350 348 347 343 340 339 339 339 338 339 338 339 340 341 341 341 340 339 336 335 334 336 335 336 336 337 337 337 340 338 336 338 339
347 346 347 347 348 348 348 348 348 350 350 350 348 346 344 342 340 339 339 340 340 340 341 341 342 339 336 333 331 333 330 329 336 335 332 334 338 340 340 336 334 334 333
347 345 345 346 346 344 344 345 345 346 347 349 346 344 342 341 341 340 340 340 340 342 341 343 340 333 331 333 333 332 328 328 330 330 330 333 339 340 338 335 332 331 330
344 345 345 344 343 343 342 342 344 344 345 345 342 340 338 340 341 339 337 339 341 341 341 342 337 330 327 330 328 325 324 328 326 327 332 339 337 337 335 332 330 329 328
337 342 344 344 343 343 341 343 342 342 345 347 345 344 341 339 339 339 336 338 340 341 342 341 333 325 323 322 322 320 325 325 325 329 331 337 335 334 332 329 328 327 326
338 340 343 343 344 343 342 341 341 342 342 341 342 341 339 338 341 341 340 339 336 337 339 337 331 327 323 321 321 323 323 323 324 327 332 335 332 331 329 327 325 323 322
338 339 341 342 342 344 344 343 340 340 341 339 338 338 337 337 338 338 339 338 337 337 337 336 331 323 320 317 318 318 318 321 323 326 330 331 330 328 325 324 322 321 320
338 340 341 341 342 345 344 344 343 340 341 341 339 338 337 336 337 338 338 337 338 336 335 332 326 320 317 314 314 315 316 319 322 325 328 328 329 325 323 321 319 319 319
340 341 341 341 343 343 342 343 344 344 341 341 340 339 339 336 336 338 338 337 338 337 334 331 325 319 315 313 312 314 315 318 320 322 324 325 326 324 320 318 317 317 317
330 338 342 344 345 343 343 343 342 344 343 341 341 340 339 338 336 337 338 338 338 337 334 330 323 317 314 311 311 312 314 316 318 320 320 321 319 319 319 316 315 315 315
319 323 332 340 344 345 343 342 342 342 343 343 341 341 339 337 337 336 336 336 337 336 333 326 320 315 313 311 310 310 312 315 316 317 317 317 316 314 313 315 312 311 310
318 319 320 330 338 342 345 343 342 345 343 345 343 341 340 338 337 335 334 335 336 335 331 325 319 316 313 311 309 308 309 312 314 314 313 313 313 312 310 310 310 306 306
318 318 319 320 328 337 341 343 342 340 342 341 343 342 340 338 337 336 333 334 334 333 329 324 319 315 314 312 305 304 306 308 312 312 311 309 309 309 309 309 306 304 304
315 316 317 317 319 325 333 339 338 336 337 338 338 342 341 339 337 336 334 333 333 331 329 324 320 313 308 309 305 305 304 305 306 309 310 308 307 306 306 306 304 303 301
311 312 313 315 316 317 323 333 339 338 338 339 337 336 339 339 337 335 334 333 332 330 329 325 320 312 311 306 307 307 302 301 302 304 307 307 306 305 304 303 302 302 302
308 309 310 311 313 315 317 324 333 338 339 336 335 335 335 338 338 336 334 334 332 330 328 327 320 314 308 304 307 310 302 302 301 302 302 304 304 303 303 302 301 300 300
312 314 312 310 310 312 315 316 323 328 329 332 333 336 337 334 335 336 334 333 331 329 327 326 321 317 314 306 303 302 302 305 301 297 299 300 302 301 302 301 300 299 298
312 313 314 313 312 310 311 313 318 325 328 329 332 333 334 335 333 333 332 333 331 328 327 325 320 317 316 311 305 299 299 299 300 302 298 296 298 299 301 300 299 298 297
312 313 314 313 313 313 312 312 314 319 325 326 330 331 333 333 331 330 329 330 330 329 327 325 321 316 314 313 307 301 300 300 298 298 300 299 297 298 298 298 297 297 295

GFSSE_sfc_thetae_045.txt.gz
Theta_e
347 352 361 360 358 359 358 358 358 358 356 354 352 351 349 348 347 345 342 342 342 343 345 348 347 345 345 342 342 341 340 340 340 341 340 340 339 338 337 337 341 337 337
350 351 359 359 359 359 359 359 358 357 354 352 350 347 345 344 344 343 342 345 343 343 344 347 346 346 343 341 340 339 338 338 338 337 340 340 340 339 340 341 338 336 338
349 352 352 359 359 360 359 356 356 354 352 350 348 346 344 342 341 341 345 347 347 344 347 348 347 343 340 340 339 339 337 336 335 334 338 333 333 336 336 337 337 338 338
350 351 351 358 360 359 358 355 354 353 351 349 347 344 341 339 340 341 346 348 349 348 347 345 341 339 339 340 340 340 338 336 333 335 335 335 339 343 341 338 336 337 337
349 350 354 358 359 359 357 355 353 353 351 349 345 342 339 338 339 341 345 346 345 345 344 343 341 339 340 340 340 340 339 335 334 336 337 341 340 340 344 345 342 335 337
348 349 350 355 358 357 357 355 353 351 350 347 345 340 339 339 340 341 343 342 342 341 341 341 340 340 340 341 340 339 337 335 337 336 337 338 336 342 343 344 344 344 343
345 348 347 352 357 357 356 356 355 352 350 346 345 340 339 339 339 340 341 340 339 339 339 339 339 340 341 341 339 338 336 335 335 335 335 337 335 341 342 341 342 342 341
345 347 346 349 354 354 354 353 354 353 349 347 345 341 340 339 339 339 340 339 338 338 339 340 341 341 340 338 336 335 334 335 334 334 334 336 337 341 340 337 337 338 338
345 345 346 347 348 348 349 350 351 352 351 349 347 344 343 342 340 339 339 339 339 340 341 342 341 339 335 333 333 333 330 332 333 332 330 333 340 341 338 336 334 333 333
345 344 345 346 346 346 345 346 347 348 349 349 345 343 341 340 340 340 341 341 340 342 342 342 339 334 332 333 333 331 330 331 329 329 328 335 341 339 337 334 332 331 331
344 344 344 343 343 342 340 341 343 344 345 345 342 339 338 338 337 336 337 340 341 343 342 341 335 331 332 332 330 328 329 327 324 325 333 339 338 337 334 332 329 328 328
341 342 343 342 342 341 340 342 338 338 342 344 342 340 340 337 337 336 335 338 340 341 342 340 334 329 327 324 324 322 323 324 323 326 334 338 336 334 332 330 328 327 325
340 343 343 343 342 341 340 341 340 340 341 344 344 342 340 336 338 338 338 336 336 336 339 338 332 326 324 323 323 323 323 321 322 326 333 336 334 333 330 328 326 324 323
340 340 342 343 343 342 342 340 340 340 340 338 340 341 339 336 337 337 337 336 334 335 336 337 333 329 326 322 322 321 319 320 321 325 331 332 332 329 327 325 323 322 321
339 342 342 343 343 343 343 342 341 340 340 340 338 337 336 336 335 337 337 338 336 334 334 334 332 326 323 320 318 318 317 318 321 324 329 328 330 327 325 323 321 321 320
339 341 343 342 342 343 343 344 344 343 342 341 340 338 336 336 335 337 336 338 337 336 334 333 330 324 321 318 316 317 317 318 320 322 327 325 327 327 323 321 320 320 318
337 339 341 342 344 344 343 343 344 345 343 342 342 340 338 336 335 335 336 337 336 337 335 332 329 325 321 317 315 315 316 317 318 319 322 324 321 322 323 319 318 318 317
324 326 333 341 343 344 344 342 342 342 344 344 342 342 340 338 337 335 336 336 337 338 336 332 328 322 319 316 314 314 315 316 316 317 319 319 319 316 318 319 316 316 314
320 321 322 327 334 341 344 345 343 342 341 343 344 343 342 340 338 336 335 336 336 336 334 333 327 321 318 316 315 314 313 314 314 315 315 316 317 315 313 317 316 313 311
318 319 320 321 322 328 336 341 346 341 342 342 345 344 342 341 340 338 336 335 335 334 333 332 327 322 319 317 312 310 311 312 314 314 313 312 313 313 312 310 308 306 308
317 317 318 318 320 320 326 331 340 339 339 340 341 344 343 342 341 339 337 335 334 333 333 331 327 321 318 318 311 309 309 308 308 311 312 311 309 309 309 309 307 305 304
312 315 315 317 318 319 321 324 331 340 338 338 338 338 341 343 341 339 338 336 334 332 332 331 326 321 317 315 309 310 305 304 304 305 309 309 307 307 306 306 305 304 304
311 312 311 313 314 317 320 321 323 332 339 339 338 337 336 339 341 340 338 337 335 333 331 330 327 322 313 312 312 311 308 305 302 303 304 306 306 305 304 304 303 303 303
313 316 315 314 312 313 316 316 317 320 326 333 334 336 337 337 334 338 336 335 335 334 332 330 329 324 318 309 309 309 310 308 303 297 302 302 305 303 303 303 301 301 301
314 315 316 316 315 315 313 313 315 316 321 327 331 331 331 335 337 334 335 334 333 332 332 330 328 324 319 315 310 307 305 303 303 302 296 296 300 302 303 302 301 299 299
315 315 315 313 313 315 315 314 313 314 316 321 326 327 329 332 334 335 331 331 331 331 330 328 328 325 319 319 312 308 305 303 299 298 300 298 297 298 300 301 300 299 298

GFSSE_sfc_thetae_048.txt.gz
Theta_e
344 351 359 360 361 362 360 359 358 358 358 355 354 352 349 348 347 344 344 343 344 345 349 349 347 346 344 344 343 341 340 341 340 341 341 341 341 340 342 341 343 335 342
346 349 358 360 360 360 360 359 358 357 355 353 351 349 346 346 345 343 346 345 344 345 348 348 347 344 343 342 340 339 339 338 338 339 341 340 342 341 340 339 342 336 339
346 351 354 359 360 360 360 358 357 355 354 351 349 347 344 343 342 344 348 347 345 348 349 348 345 342 341 340 339 338 337 336 336 338 340 330 333 339 338 339 338 340 339
347 348 350 359 360 360 358 357 355 353 351 349 347 344 341 340 342 347 350 350 349 349 347 343 341 341 340 340 340 339 336 334 336 339 336 338 338 345 344 341 338 339 340
346 347 354 359 360 359 357 356 355 352 350 347 344 342 339 340 342 347 348 347 346 346 344 342 341 340 340 341 340 339 336 335 338 337 333 334 334 343 346 346 342 340 341
345 349 354 358 359 357 356 355 354 352 349 346 343 340 339 340 342 345 344 344 344 344 343 341 340 341 341 341 340 339 337 337 339 332 335 338 336 344 345 345 345 345 344
345 347 349 357 358 357 356 355 354 353 348 346 342 340 340 340 342 343 342 341 341 341 340 340 340 341 342 340 339 337 336 337 331 330 330 330 333 342 341 342 342 341 341
343 344 345 352 355 355 356 355 354 353 349 347 343 341 340 340 340 341 341 340 340 340 340 341 341 341 340 339 337 335 335 336 332 328 329 328 341 341 339 338 336 336 336
342 342 340 347 350 350 352 352 353 352 349 348 345 344 343 341 340 340 340 340 340 341 342 342 341 339 336 335 334 332 333 333 326 325 330 332 342 340 338 336 334 333 333
339 341 339 343 345 343 343 347 348 350 348 347 345 342 340 339 340 341 341 341 342 343 342 342 338 335 333 334 333 331 331 331 321 323 332 337 341 339 336 334 332 330 330
338 339 340 341 340 340 340 342 344 345 346 345 342 338 336 332 334 335 336 339 341 344 344 341 335 333 334 333 332 332 330 321 317 322 333 340 339 337 334 331 330 328 328
335 336 339 337 337 335 337 337 335 339 340 341 340 337 334 332 331 332 334 337 340 342 343 340 335 332 331 322 320 325 317 317 315 326 331 339 336 335 332 330 329 328 326
335 337 337 335 335 334 334 335 332 333 335 339 339 338 335 333 331 331 331 332 332 334 334 335 329 322 317 317 316 314 316 314 313 325 334 337 335 333 330 329 327 325 324
335 336 338 337 335 334 335 334 334 334 335 338 340 338 336 331 332 331 332 330 328 330 331 333 328 323 320 317 314 315 313 312 313 326 330 334 335 331 329 326 325 324 323
335 336 338 338 337 336 335 334 333 333 334 333 338 339 337 330 329 331 331 331 330 330 330 332 328 324 318 315 313 312 311 311 313 324 323 328 331 330 326 325 324 323 322
333 336 338 338 338 338 337 336 337 335 334 335 333 331 331 330 329 330 330 333 330 329 328 327 326 320 316 313 310 310 310 310 312 320 322 323 328 329 326 324 323 322 321
332 336 338 339 339 339 338 339 338 339 340 335 336 334 332 330 329 329 329 331 330 331 329 326 324 319 315 311 309 308 309 309 311 313 320 318 321 325 326 322 321 322 320
319 322 337 341 340 339 339 340 340 339 338 338 337 336 334 332 330 328 328 330 331 330 330 326 322 317 313 309 307 307 308 309 310 311 314 317 315 314 320 323 321 320 319
315 315 316 319 333 339 339 340 338 340 340 339 339 339 337 335 333 330 328 329 332 331 330 327 322 316 311 308 308 306 306 307 308 311 310 311 313 311 309 320 320 320 317
311 313 314 316 317 318 328 338 338 336 338 339 339 339 337 336 334 331 329 328 329 329 327 326 321 316 312 310 310 307 304 305 307 307 307 309 308 308 307 306 305 305 314
308 309 310 311 313 313 314 318 330 335 334 336 337 340 340 340 336 333 331 329 328 327 328 325 322 316 312 311 305 302 302 302 302 305 306 305 306 306 305 303 302 300 303
304 306 308 309 311 313 313 313 318 332 337 337 334 337 338 335 337 336 333 329 329 327 325 326 324 317 312 310 302 301 297 299 300 301 304 305 303 304 303 303 302 299 299
307 308 309 308 307 308 310 312 312 314 328 330 330 332 335 337 335 337 336 334 328 327 326 325 324 319 313 308 306 304 300 298 295 299 299 303 302 301 301 301 301 299 298
308 311 311 311 310 309 308 308 308 308 310 321 330 334 333 334 333 335 334 332 333 332 329 325 325 321 314 308 306 308 305 301 297 293 298 299 301 300 300 299 300 299 298
309 309 310 311 310 310 308 306 306 307 309 311 317 324 327 331 332 331 331 331 331 332 331 327 325 323 319 313 309 305 304 299 297 296 292 295 298 299 299 299 298 297 295
309 309 309 308 308 309 309 309 307 306 306 306 309 316 320 322 325 330 329 331 330 329 329 329 327 325 322 315 309 308 306 305 299 297 298 296 296 297 298 299 297 296 294

GFSSE_sfc_thetae_051.txt.gz
Theta_e
342 352 361 363 361 360 360 359 359 358 357 355 353 351 350 348 345 345 344 345 346 350 350 348 346 346 345 343 342 341 341 340 339 340 342 342 342 342 343 341 339 338 346
347 353 360 362 362 361 360 358 359 358 356 355 352 350 347 346 344 346 346 345 347 349 349 347 344 344 343 341 339 339 339 339 338 340 341 341 342 340 339 339 339 336 343
347 353 357 360 360 361 360 358 357 355 355 353 350 347 344 343 344 348 348 346 348 349 349 345 344 342 341 339 338 337 338 338 337 338 340 331 338 340 339 339 341 340 338
349 351 354 359 360 360 358 357 356 354 353 351 347 344 342 342 348 351 348 347 349 349 345 343 342 340 340 340 339 336 336 336 337 340 336 336 340 345 345 339 341 343 343
346 349 356 359 360 359 358 356 354 352 349 346 344 342 341 343 349 349 349 349 348 345 342 342 340 340 341 340 339 337 337 338 341 336 331 332 337 344 347 344 343 344 345
343 350 356 358 358 357 356 355 354 350 347 344 342 340 341 344 347 347 346 346 345 345 342 341 341 341 341 341 339 338 338 339 336 332 334 339 336 345 345 345 344 344 343
346 349 354 358 358 357 356 355 354 352 347 343 341 340 341 343 345 344 343 343 342 342 341 341 341 342 341 339 338 337 337 337 330 328 328 331 334 341 342 341 340 340 341
345 348 353 354 355 355 355 354 354 352 349 344 342 341 341 342 343 342 342 341 341 341 340 341 341 342 340 338 336 335 336 335 328 326 326 331 341 339 338 336 336 336 335
342 343 347 348 351 351 353 352 352 351 349 346 344 343 342 342 342 342 341 341 340 341 342 342 341 340 338 336 334 332 334 333 322 326 333 334 342 339 337 335 334 333 332
338 339 341 344 348 348 346 348 349 348 347 345 344 342 340 339 340 342 341 342 342 343 343 342 339 336 334 334 333 333 333 330 319 329 334 336 341 339 334 333 331 331 330
337 337 341 340 339 340 342 344 346 345 344 342 340 337 336 333 335 336 336 339 342 344 343 341 337 335 335 334 333 332 330 319 316 330 333 341 339 337 333 331 330 329 328
332 335 339 339 338 338 342 339 338 342 341 339 336 333 331 330 330 333 332 337 340 343 343 340 336 335 330 322 321 326 317 315 320 329 332 340 338 335 332 330 329 328 327
332 334 336 338 337 336 336 335 332 334 336 338 335 333 331 331 328 328 330 332 332 334 336 335 331 324 318 317 316 312 313 312 318 328 333 338 336 334 332 329 327 326 325
331 334 336 334 333 331 335 331 330 331 332 335 337 335 333 329 328 328 329 328 328 330 328 329 326 322 317 315 315 312 313 311 316 325 330 335 336 334 331 328 326 325 324
332 334 336 336 332 332 333 332 330 331 333 335 339 337 335 329 329 330 329 327 326 328 328 330 327 324 319 316 312 312 309 309 314 324 325 330 334 333 329 327 326 325 323
333 334 336 336 336 335 334 331 331 332 334 333 338 337 336 332 329 329 330 329 327 327 328 331 330 325 318 314 312 309 308 308 310 321 322 325 331 331 328 326 326 325 324
333 335 336 337 337 335 335 336 336 337 335 332 332 331 334 329 328 328 327 329 329 327 327 324 325 320 314 312 309 307 308 307 310 319 320 320 324 326 328 326 325 324 323
324 332 337 340 337 336 335 336 336 337 337 338 336 333 330 329 328 326 327 327 330 329 327 324 321 317 313 310 306 305 306 307 307 316 318 317 317 318 325 327 325 324 323
312 314 324 336 337 337 334 337 337 337 335 336 336 336 335 331 329 327 326 326 330 329 327 326 322 317 311 308 306 305 305 306 307 309 315 315 313 313 312 323 324 324 323
307 309 310 314 328 337 338 337 335 332 333 335 336 335 337 333 332 329 327 326 330 328 328 324 321 316 312 309 308 307 304 305 306 306 307 315 313 311 309 311 312 312 321
305 305 306 309 309 311 312 326 331 333 332 330 333 337 335 334 334 332 327 326 326 328 329 327 322 317 311 309 305 301 301 301 302 304 305 306 310 309 306 307 305 302 309
306 306 307 306 305 307 310 310 314 330 332 335 336 335 336 335 333 333 333 330 326 324 323 324 323 315 314 311 305 299 296 298 300 300 303 305 304 305 306 305 302 300 300
306 307 308 308 307 306 306 307 308 309 318 327 328 329 331 333 333 332 332 330 329 327 324 322 322 318 314 311 307 304 297 297 296 298 299 304 302 302 303 304 303 301 299
306 308 309 309 309 309 306 304 304 304 305 312 325 329 330 331 332 333 332 329 328 328 327 326 323 321 316 311 308 307 306 301 296 295 296 299 302 302 302 301 302 301 299
308 308 308 308 307 308 308 306 303 302 304 306 308 310 321 329 331 331 331 329 327 325 329 327 325 321 318 316 312 307 304 303 298 296 293 297 299 301 303 302 300 299 297
307 307 307 306 307 307 306 306 305 304 303 303 304 304 307 315 322 328 329 328 327 326 325 325 324 324 322 320 315 309 305 304 304 297 298 297 298 300 300 300 299 298 296

GFSSE_sfc_thetae_054.txt.gz
Theta_e
347 354 362 361 359 359 358 358 358 357 357 354 353 351 349 346 345 343 344 345 349 350 348 347 346 346 344 343 342 341 341 339 340 341 342 343 342 343 340 340 341 342 345
348 355 360 361 360 360 360 359 358 357 356 354 352 350 346 344 345 345 345 348 350 347 346 345 344 343 342 340 340 341 340 339 338 339 340 340 342 339 338 338 340 340 343
349 355 358 360 360 360 359 358 358 357 355 353 349 347 345 342 347 347 346 348 349 348 346 344 342 341 339 338 339 341 340 338 338 338 338 335 335 339 340 340 340 337 338
349 354 355 360 360 359 358 356 355 353 352 350 347 344 342 346 350 347 347 349 350 346 344 342 340 340 339 338 338 339 338 337 336 339 333 337 340 344 340 342 343 343 343
348 352 354 359 359 359 357 355 354 352 348 346 344 343 343 349 350 349 348 350 346 343 342 340 339 339 339 339 339 339 339 339 340 335 332 335 337 344 343 343 344 346 346
344 350 355 358 358 357 356 354 353 349 346 344 342 342 344 349 350 349 348 347 344 344 342 340 340 341 341 339 338 338 339 338 337 331 334 339 336 344 345 344 344 343 344
346 351 354 357 357 356 355 354 352 348 345 342 340 341 345 347 346 346 345 344 343 342 341 340 341 341 340 339 337 338 337 336 328 328 331 332 333 342 341 340 340 340 339
346 351 354 354 355 355 355 354 352 350 345 342 341 341 343 345 345 344 343 343 342 341 340 341 341 341 339 337 336 336 336 333 328 325 329 332 340 338 337 336 336 335 334
347 349 351 351 352 351 352 352 351 350 347 345 344 344 344 344 343 342 342 342 341 341 341 341 341 340 339 337 334 333 334 331 323 326 333 333 341 339 336 335 333 332 331
343 346 345 346 348 348 347 348 348 348 345 344 343 342 340 339 341 342 342 342 342 342 342 342 340 338 336 335 334 333 331 328 323 330 332 333 340 337 334 332 331 331 330
337 339 340 341 344 346 344 345 345 345 343 342 340 337 335 332 335 336 336 339 342 343 342 341 338 336 337 335 334 332 328 317 322 330 332 341 340 337 333 331 330 329 328
331 335 339 338 338 340 345 341 340 341 338 336 334 332 331 329 330 334 332 336 341 343 343 341 337 336 332 322 321 327 317 313 324 328 332 340 338 336 333 330 329 328 327
330 333 337 337 337 337 338 336 335 337 336 335 332 331 329 329 327 328 327 331 332 334 336 336 331 325 320 316 315 313 312 311 323 328 333 339 338 335 332 330 328 327 325
332 333 334 336 334 334 333 334 333 334 334 335 334 331 328 326 325 326 326 327 328 330 330 330 326 323 317 314 313 313 311 309 320 325 329 336 337 335 332 329 328 326 325
330 333 334 333 332 332 331 330 328 330 333 335 336 335 332 329 327 326 326 326 327 328 327 327 326 324 320 315 314 312 311 308 314 324 325 330 335 335 331 329 328 326 325
331 332 335 334 331 329 331 328 328 329 330 332 337 336 335 332 328 328 327 326 325 326 328 327 328 326 323 318 313 310 309 307 311 321 323 326 332 334 332 329 328 327 325
332 333 333 335 336 332 331 329 328 328 330 331 334 337 336 334 329 328 328 327 327 326 326 325 327 326 322 317 312 311 309 307 307 319 321 321 326 329 331 329 328 327 326
330 332 334 337 335 335 334 334 335 335 334 332 331 334 336 335 330 327 328 328 329 327 325 323 323 322 318 315 310 308 306 306 306 316 319 319 319 321 327 329 328 327 326
320 325 332 335 335 334 334 334 334 335 334 336 335 333 330 330 329 327 327 327 328 328 326 325 321 319 314 310 308 306 305 305 305 310 316 316 316 316 317 324 326 326 326
305 307 309 326 334 334 334 333 333 332 332 334 335 335 336 333 329 326 326 325 327 326 326 323 324 317 314 314 311 307 304 304 304 304 312 317 314 313 313 313 317 317 324
303 303 304 306 306 317 324 328 329 330 331 329 331 334 333 335 334 328 326 324 324 326 327 325 323 319 316 310 308 303 301 302 302 303 304 312 313 313 310 310 312 309 316
305 305 305 305 305 305 308 309 316 327 330 332 330 331 333 332 331 331 328 327 325 326 327 324 321 316 315 311 308 301 302 301 300 302 302 304 309 312 310 310 307 305 306
305 306 308 308 307 306 305 306 306 308 312 325 326 327 330 332 331 329 330 328 326 323 323 321 322 319 320 311 309 309 297 298 297 298 299 302 303 304 309 309 307 305 302
306 307 308 307 306 308 306 304 302 303 303 308 316 322 325 328 329 331 330 328 328 326 325 324 323 321 318 313 310 310 306 302 298 298 296 297 302 301 302 303 305 304 302
307 305 305 305 306 305 305 305 303 302 302 303 304 304 306 313 322 327 328 328 324 325 326 324 322 319 319 321 311 308 306 304 300 299 298 297 301 300 301 302 303 303 302
306 305 304 305 305 306 305 304 303 303 303 303 303 303 304 306 311 317 322 325 325 324 323 323 322 319 320 319 319 317 311 306 307 298 298 298 296 300 301 303 302 302 299

GFSSE_sfc_thetae_057.txt.gz
Theta_e
344 352 360 359 358 358 357 357 357 356 355 353 352 350 347 345 343 343 344 348 349 348 347 347 346 345 343 342 343 341 340 340 341 342 342 343 342 339 341 343 345 341 345
348 354 359 359 359 358 359 358 358 357 355 353 351 348 345 345 345 344 348 350 347 346 344 343 343 343 341 341 342 341 341 340 339 338 339 340 341 338 339 339 342 340 343
350 355 356 359 360 360 359 357 357 356 354 352 349 347 344 346 346 345 349 349 347 346 344 342 341 340 339 341 341 340 339 339 338 339 339 335 332 339 340 339 337 337 339
351 354 355 359 360 359 358 357 356 354 350 348 347 344 342 348 347 347 349 349 346 345 342 340 340 339 338 340 340 339 338 337 335 338 333 337 340 340 342 343 344 343 340
351 353 355 359 359 358 357 356 354 351 348 346 344 342 346 351 346 348 350 349 345 343 340 339 338 339 338 339 339 339 339 339 340 336 333 335 337 339 343 345 344 346 345
346 348 356 358 358 357 355 354 352 349 346 344 343 343 348 350 349 348 349 346 345 343 339 339 340 340 340 339 339 339 338 339 336 332 333 338 336 345 345 344 343 343 344
346 349 353 357 357 356 354 353 351 347 344 342 341 343 348 348 348 347 347 344 343 342 340 340 341 340 339 339 339 338 338 338 329 329 331 331 334 342 341 340 340 340 339
347 350 351 354 355 355 353 352 350 346 344 341 341 342 347 347 346 345 345 344 342 341 339 339 340 339 338 336 337 336 335 334 327 327 328 330 339 338 337 336 335 335 334
348 349 350 350 351 351 352 351 350 348 345 344 344 344 344 345 343 342 343 342 341 340 340 340 340 339 337 336 334 334 334 333 322 326 332 331 341 336 335 334 332 331 331
345 348 348 348 349 348 347 349 348 346 345 344 343 343 341 340 341 342 342 342 341 340 340 340 339 338 336 335 334 333 330 330 322 327 331 331 340 335 333 331 330 330 329
340 343 342 342 343 345 343 345 346 344 343 342 340 338 335 332 335 336 336 338 341 343 342 341 339 336 336 334 334 332 324 317 322 328 330 338 339 336 333 330 329 328 327
332 337 339 339 339 341 345 341 339 341 337 335 334 332 329 328 330 334 332 336 341 342 342 341 338 337 332 320 319 322 316 312 318 327 329 341 338 336 333 330 329 327 327
331 334 338 336 336 338 340 338 337 336 334 332 331 330 328 328 327 328 327 329 330 333 334 337 331 326 321 316 315 313 312 311 319 326 332 340 339 336 333 330 328 327 325
329 332 335 335 334 335 335 336 335 335 334 331 330 329 326 324 324 324 324 326 327 328 329 330 326 323 319 315 314 313 310 310 314 325 327 336 339 336 334 331 328 327 325
329 331 333 334 333 333 332 332 331 333 334 334 332 330 328 325 323 324 324 324 326 327 327 327 325 323 321 317 313 312 312 309 308 322 324 330 336 337 334 331 329 327 326
330 331 334 332 333 331 330 328 329 330 332 333 334 333 331 329 326 325 325 325 324 325 327 326 326 324 323 321 317 313 310 310 307 317 322 324 332 336 335 332 330 328 327
329 331 333 333 333 330 331 329 326 327 329 330 333 334 334 332 329 328 326 325 325 324 324 325 324 325 323 322 317 314 310 308 306 312 320 321 325 330 334 332 331 329 327
329 331 332 337 334 330 331 331 329 328 327 329 330 333 335 334 331 328 327 327 327 324 323 322 323 323 322 320 318 315 310 307 306 307 317 320 320 323 328 333 332 330 328
326 329 331 333 333 332 331 331 331 332 332 330 329 330 332 334 333 330 328 328 327 326 325 324 321 321 318 318 316 315 309 306 305 307 313 317 318 319 318 325 329 329 329
305 312 320 329 333 332 332 332 333 331 331 332 333 333 331 330 329 328 327 326 325 326 325 322 323 318 317 317 316 312 306 305 304 304 308 316 317 317 316 315 318 321 326
302 302 303 308 306 328 329 328 328 328 328 328 330 333 333 333 332 327 326 324 323 324 325 324 322 320 317 310 308 307 304 303 302 303 304 309 314 316 314 315 314 314 317
303 303 304 304 304 304 309 311 322 326 328 329 329 330 332 332 332 331 328 326 324 323 323 324 325 318 316 311 310 302 306 305 301 303 302 304 307 312 313 313 312 312 311
305 305 306 306 306 304 304 304 305 306 309 319 322 325 328 330 331 330 330 327 325 323 323 322 320 319 320 310 310 315 303 302 299 300 298 300 303 305 310 310 311 310 309
304 306 306 305 305 306 304 303 302 302 302 305 310 312 310 314 322 327 328 326 325 323 322 322 321 321 317 316 307 310 306 303 302 301 300 297 298 301 302 305 308 308 308
305 304 303 304 305 304 304 304 303 302 302 303 304 304 305 307 309 315 321 324 323 323 324 323 320 317 319 318 313 306 309 308 304 302 306 306 301 300 302 302 305 307 306
303 303 303 304 304 305 305 304 303 303 303 303 303 304 305 306 310 311 313 315 321 323 321 321 320 318 318 317 320 316 312 308 306 303 301 305 301 304 304 304 301 303 304

GFSSE_sfc_thetae_060.txt.gz
Theta_e
339 349 360 359 358 358 358 357 355 356 355 352 351 348 347 345 344 344 348 349 349 348 346 345 344 345 344 344 343 342 342 341 342 342 342 342 339 342 345 345 345 342 344
345 353 358 359 358 358 358 357 357 356 355 352 350 347 345 345 343 347 350 348 346 345 344 344 344 343 343 343 343 342 343 342 340 339 339 340 342 340 341 341 343 340 342
348 354 355 358 359 359 359 357 356 355 353 351 348 346 345 346 345 350 350 347 346 345 342 341 341 341 343 342 341 341 340 340 341 340 340 334 332 340 341 338 337 339 339
351 352 352 359 359 359 358 356 355 353 349 348 347 343 345 346 347 350 350 347 346 343 340 341 340 339 342 341 341 340 339 337 337 338 336 337 338 342 345 346 345 342 339
350 352 354 358 359 358 357 356 354 350 347 346 344 342 348 347 347 349 350 347 345 341 339 339 339 339 340 340 340 340 340 341 340 336 333 335 335 341 345 346 346 346 344
348 350 355 357 358 357 356 354 352 348 347 344 342 344 350 347 347 351 348 345 343 340 338 338 339 339 340 340 340 340 340 340 336 331 333 337 339 345 345 344 343 343 344
345 350 354 357 357 356 355 353 351 348 345 343 342 345 351 350 348 350 347 344 343 340 339 340 340 340 339 339 339 339 340 337 330 329 329 330 334 341 341 341 340 339 338
344 348 352 354 355 354 353 352 350 346 343 342 342 345 348 346 347 345 344 343 342 340 339 340 340 339 339 338 337 336 336 334 329 327 328 329 339 337 338 336 335 334 334
346 345 349 350 351 350 350 350 349 347 344 343 345 347 348 347 345 345 344 343 341 340 339 339 339 339 338 337 335 334 334 331 323 327 331 330 341 336 335 333 332 331 331
345 345 344 345 347 346 346 347 346 346 344 344 343 342 340 341 342 343 342 342 341 339 339 339 339 338 337 336 334 332 330 329 321 326 329 330 338 334 333 331 330 330 329
343 344 345 343 343 343 343 344 345 344 342 341 340 338 336 332 332 333 336 339 341 342 341 340 339 336 335 331 332 331 323 317 321 325 328 335 339 335 332 330 328 327 327
337 339 341 340 339 340 344 341 339 339 336 334 333 331 329 328 330 334 332 336 340 342 342 341 339 337 330 319 318 322 316 312 316 324 328 336 339 336 332 329 328 326 325
333 336 338 337 337 338 339 338 336 335 333 332 330 329 327 327 326 328 326 328 329 332 332 335 330 326 321 316 314 313 313 310 312 323 329 337 340 337 334 330 329 326 325
330 333 336 336 335 335 336 337 335 334 332 330 329 328 325 324 323 323 323 324 325 326 327 328 326 324 320 316 313 312 311 309 309 320 325 334 339 338 335 332 330 327 326
328 330 333 334 333 333 333 333 333 333 333 331 329 328 326 324 322 322 322 322 323 325 326 326 326 324 321 319 315 311 311 310 308 315 322 328 335 339 336 334 332 329 327
328 330 332 333 333 332 331 330 331 331 333 332 331 330 328 326 324 323 322 323 322 324 325 325 325 324 323 321 320 317 313 310 308 308 319 323 331 336 338 335 333 331 329
328 331 331 332 333 331 331 330 328 329 331 332 333 332 331 329 327 326 324 323 324 324 324 323 323 323 322 322 320 320 315 311 308 306 313 319 323 329 335 335 334 332 330
328 329 331 336 332 330 330 330 328 326 326 328 329 331 333 332 330 327 325 325 325 323 323 321 321 320 320 320 319 320 317 312 309 306 309 317 320 324 329 335 335 333 332
326 327 329 331 332 329 329 330 329 328 326 326 327 328 331 333 332 330 328 328 325 324 322 322 320 320 318 319 320 319 317 313 310 308 306 312 317 321 321 326 330 331 332
306 312 323 329 331 331 330 329 329 330 329 329 329 328 328 331 332 330 330 327 325 324 323 321 322 318 320 319 318 317 313 311 307 306 306 310 315 317 318 318 320 324 327
301 303 304 314 317 328 327 326 327 327 327 328 331 332 332 330 328 326 327 324 323 324 325 324 321 321 317 312 310 310 307 307 305 306 305 305 310 315 315 316 317 316 318
302 302 302 303 303 308 316 320 326 326 327 328 328 329 330 331 331 330 327 324 322 322 322 322 321 317 316 311 313 305 310 310 304 303 302 303 303 310 313 313 313 312 313
302 303 305 305 305 303 303 304 304 305 308 314 320 322 324 326 328 328 329 329 326 323 323 321 320 319 319 310 310 315 307 305 303 305 300 300 301 302 307 310 310 311 311
303 304 304 305 305 305 304 302 301 300 301 302 306 307 306 308 310 317 323 326 327 326 324 321 320 319 316 318 308 310 308 307 307 306 305 302 300 299 302 307 308 308 309
303 302 302 304 304 304 304 303 302 302 301 302 302 303 304 306 310 312 313 314 321 324 325 324 319 317 317 316 311 308 310 307 305 305 307 309 305 304 303 303 305 306 307
301 301 302 304 303 304 304 304 303 302 302 303 303 304 306 307 309 308 310 310 311 319 322 324 322 320 316 316 316 315 313 310 307 304 302 303 305 306 303 304 301 302 304

GFSSE_sfc_thetae_063.txt.gz
Theta_e
343 354 360 360 359 358 357 355 355 354 352 351 350 348 346 345 344 349 350 350 349 347 346 345 346 347 345 344 344 343 342 342 341 342 340 342 344 346 347 346 345 344 345
347 356 359 360 359 359 359 358 357 356 354 351 349 347 345 344 347 351 350 347 346 344 345 344 345 346 345 345 345 345 344 342 341 340 339 340 343 342 342 342 343 342 342
350 354 355 359 359 359 359 356 356 354 353 350 347 346 347 346 351 351 348 347 345 342 342 343 343 344 344 343 342 342 342 342 341 343 341 340 342 345 345 338 340 340 340
352 353 353 357 358 359 359 356 355 352 350 349 346 346 346 348 351 350 348 347 344 341 342 341 341 343 343 342 342 341 340 339 342 341 343 340 341 346 347 348 344 341 343
352 353 354 358 359 359 357 356 353 350 348 347 343 346 347 348 351 351 349 346 342 340 341 340 340 342 342 342 342 341 342 342 340 342 344 342 342 345 346 347 346 346 345
351 353 356 358 358 357 357 354 351 348 346 344 343 346 350 348 350 351 347 345 341 340 339 339 340 341 341 341 341 341 341 339 339 342 342 344 345 345 345 344 342 342 343
350 353 355 357 358 356 354 353 351 348 345 344 344 349 350 347 351 350 346 344 342 340 340 340 340 341 340 340 340 341 339 337 339 339 340 340 341 341 340 340 339 338 338
350 353 354 354 355 354 353 352 350 347 344 343 346 350 351 350 349 346 344 343 342 340 340 341 340 340 339 338 338 336 337 335 334 335 337 338 340 338 338 336 334 334 334
350 351 351 353 351 351 350 350 348 347 345 345 347 348 347 346 347 346 344 343 342 340 339 340 340 339 338 337 335 333 335 331 333 336 336 339 340 336 335 333 333 332 331
349 348 349 351 350 349 348 346 346 344 343 344 343 342 341 341 343 345 343 343 341 340 340 340 340 339 337 336 334 331 333 329 332 336 339 339 338 334 334 332 330 330 329
346 347 348 349 349 348 347 344 344 343 341 341 340 338 337 341 341 341 338 339 342 341 340 340 339 336 334 332 332 330 326 330 332 335 338 336 340 335 333 330 329 328 327
340 343 344 346 348 348 346 346 345 343 341 340 339 340 340 339 339 338 335 336 340 342 342 340 338 335 331 329 328 326 329 325 327 333 336 336 340 337 333 330 328 327 326
338 339 341 343 347 346 346 347 345 343 341 339 338 337 337 336 337 339 338 338 340 335 341 341 340 337 331 328 325 325 325 324 323 326 333 335 340 340 336 332 330 327 326
336 339 342 345 344 345 345 345 344 343 340 338 337 336 334 332 333 335 335 335 335 337 338 338 338 337 333 329 324 322 321 321 321 323 330 332 338 340 338 335 332 329 327
335 338 341 343 343 343 343 343 343 342 341 339 337 336 334 332 331 331 331 331 332 334 335 335 335 336 334 332 329 324 321 321 321 320 325 327 333 339 339 337 335 332 329
335 336 339 340 341 341 340 341 341 342 342 340 338 337 335 334 332 331 330 329 329 331 333 333 334 334 334 333 331 330 328 325 321 320 320 325 329 334 338 338 336 334 332
332 336 336 338 340 338 339 339 340 341 340 340 340 339 337 335 334 333 332 331 330 331 331 332 332 332 332 332 331 331 330 330 326 321 319 320 325 327 333 338 337 335 334
333 333 336 337 337 338 338 338 338 337 338 339 339 340 339 338 336 334 333 333 334 333 332 331 331 330 330 330 330 330 329 329 329 325 321 319 321 324 328 334 337 336 335
333 332 333 336 337 337 337 337 337 336 334 335 335 335 336 337 338 336 335 335 335 333 332 331 331 329 329 329 328 329 329 329 329 327 325 322 320 321 325 328 331 333 334
317 330 332 334 335 337 335 335 335 335 335 335 334 334 334 334 336 336 336 335 335 333 333 332 330 330 329 329 326 325 328 327 326 325 324 322 321 321 322 325 328 330 329
306 309 318 326 333 334 334 333 333 333 335 335 335 335 335 334 334 335 335 335 334 332 333 332 331 329 328 326 323 325 323 322 322 322 322 319 318 319 320 321 324 326 328
306 306 307 314 316 328 332 333 334 334 334 335 335 336 336 337 337 336 334 333 332 330 330 330 329 327 326 323 324 318 318 321 318 317 315 313 314 314 316 318 320 322 324
306 307 307 308 308 308 313 312 313 314 315 321 327 330 327 325 331 333 334 334 333 330 329 330 328 326 325 322 322 324 313 313 312 316 313 312 312 312 313 315 316 317 319
307 309 308 308 308 308 308 307 308 309 310 309 311 312 311 311 313 317 321 325 329 330 328 327 326 326 325 323 317 318 318 313 312 311 316 313 306 305 307 310 312 315 316
307 307 307 307 307 307 308 308 308 307 307 308 308 309 310 312 315 315 316 317 320 322 323 324 326 323 323 324 320 316 316 311 310 309 308 314 313 311 308 311 310 311 312
306 305 307 307 307 308 309 308 308 308 307 308 308 309 311 313 313 311 312 313 315 317 319 321 324 325 322 321 322 321 319 314 312 308 306 307 310 315 310 312 312 311 310

GFSSE_sfc_thetae_066.txt.gz
Theta_e
348 355 359 360 358 357 357 357 356 353 352 351 350 348 346 345 350 351 350 349 348 346 348 348 348 347 346 346 344 342 342 341 340 341 341 344 346 347 347 346 345 342 343
350 354 360 360 359 359 358 356 356 354 353 350 348 345 344 349 351 351 348 346 345 346 344 347 347 347 346 346 346 345 345 344 342 340 339 341 344 341 341 343 343 340 340
349 352 356 360 360 359 358 355 354 353 351 349 347 346 346 350 351 348 347 345 343 343 345 346 346 345 344 343 343 342 342 343 344 343 340 344 346 348 346 340 340 342 345
351 351 353 359 359 359 357 355 354 352 350 347 347 347 349 352 350 349 347 343 342 343 343 344 344 343 343 343 343 342 342 343 343 343 342 342 343 347 348 345 344 346 347
350 350 353 357 359 359 357 355 352 350 348 346 346 347 349 352 351 349 347 342 341 342 341 342 343 343 343 342 342 343 342 341 341 344 343 345 345 345 346 346 345 345 346
349 350 353 357 359 358 356 354 350 348 347 344 346 348 348 351 352 349 345 341 340 340 340 341 342 342 342 342 342 342 340 340 341 339 342 343 342 343 344 342 341 340 341
348 350 353 358 358 357 354 353 351 347 345 345 344 349 348 351 351 348 345 342 340 341 340 341 341 341 341 340 342 341 339 338 336 336 337 339 340 340 339 337 336 335 336
347 349 352 354 355 354 353 352 351 347 344 347 350 351 350 350 349 347 345 343 341 341 341 340 340 340 339 339 337 338 336 334 335 335 337 339 338 338 336 335 334 334 334
348 349 352 353 352 351 351 350 349 347 346 346 347 351 349 348 348 346 344 343 341 340 341 340 340 339 338 336 334 333 335 331 335 335 334 339 339 336 336 334 333 332 331
347 349 349 350 350 349 348 347 346 345 344 345 345 343 342 342 344 346 344 343 341 340 340 340 339 338 336 335 333 332 333 331 336 336 337 337 338 335 334 332 331 329 329
346 347 348 348 348 348 347 345 343 342 342 341 341 338 338 343 343 341 338 340 341 339 340 340 339 336 333 333 331 328 327 335 336 335 335 336 338 336 333 331 329 328 327
343 343 345 348 348 347 346 346 345 343 341 338 335 338 337 338 339 340 337 337 339 340 341 340 338 335 332 332 331 328 332 332 331 333 333 335 338 339 335 331 329 327 326
343 345 346 348 348 346 346 346 345 345 344 342 338 337 335 335 336 336 338 338 340 337 338 339 340 337 334 333 330 328 329 330 330 329 331 334 338 341 339 334 331 328 326
340 340 342 345 348 347 346 346 345 344 344 342 341 339 338 336 333 333 334 336 337 336 334 336 336 336 336 335 332 328 326 326 327 327 329 332 335 340 340 338 334 331 329
339 342 344 347 346 346 346 346 345 344 344 344 343 341 340 338 335 334 332 332 332 333 332 334 336 336 336 335 333 332 330 328 327 327 326 328 331 336 340 339 337 335 332
340 343 346 345 346 347 346 346 344 345 345 345 344 343 341 340 338 336 336 334 331 332 333 335 336 337 337 337 336 335 334 333 333 331 328 327 329 332 336 339 338 335 335
340 341 343 344 346 346 346 346 345 345 344 344 344 344 342 341 339 337 337 337 337 336 336 336 337 337 336 336 336 336 336 335 335 334 332 329 329 327 330 336 338 337 335
339 339 341 341 343 344 344 344 344 345 345 344 344 344 343 342 341 339 337 338 340 339 338 338 337 336 336 336 335 336 336 336 336 335 335 333 331 329 329 330 335 337 337
339 340 339 340 340 342 343 343 344 344 344 344 343 343 343 342 342 341 340 339 340 340 339 339 338 337 336 336 336 336 336 336 336 335 335 335 334 331 331 329 330 332 335
327 338 339 340 341 341 342 343 343 342 342 343 343 342 341 340 340 341 340 340 340 339 339 339 338 338 337 336 334 332 334 335 335 334 334 333 333 331 330 330 329 328 328
314 315 335 337 339 340 340 339 339 339 341 342 343 343 342 341 340 340 340 341 341 339 339 339 338 337 336 337 332 331 332 333 332 332 332 331 328 327 327 327 327 327 327
313 313 316 326 334 339 340 341 341 341 342 342 343 342 341 340 341 341 341 340 340 338 339 338 337 334 333 335 329 328 322 325 328 328 328 325 325 324 323 323 324 324 324
311 313 313 315 319 325 336 334 333 332 333 334 338 339 338 334 338 337 336 336 336 335 333 334 334 332 328 332 331 327 319 316 320 323 323 322 322 322 321 319 320 321 322
312 314 314 314 313 314 317 324 328 331 331 327 324 322 320 317 318 320 323 327 330 332 330 331 332 331 329 325 326 327 328 324 318 314 320 322 320 318 318 317 318 319 319
312 314 314 314 313 314 314 314 314 314 315 315 315 314 315 317 319 319 320 320 321 324 325 325 326 327 328 327 325 320 322 320 317 313 312 316 319 321 322 320 319 319 318
313 313 314 313 313 314 315 314 314 314 313 314 314 315 317 318 319 316 316 318 319 320 322 323 323 322 324 324 325 323 322 318 318 316 311 312 313 317 320 319 318 317 315

GFSSE_sfc_thetae_069.txt.gz
Theta_e
348 355 359 359 357 357 356 355 355 353 352 351 349 347 346 350 351 350 348 348 350 349 350 349 348 348 346 345 344 343 342 341 341 341 344 346 345 346 346 345 346 339 341
350 354 358 359 359 359 357 355 354 353 352 349 346 345 348 351 351 347 346 345 346 346 349 348 346 347 346 346 346 345 346 344 340 339 341 344 347 342 342 342 342 343 343
349 353 356 358 359 359 357 354 353 352 350 348 346 345 351 351 348 347 344 343 344 345 346 346 345 345 344 343 343 343 345 344 342 342 342 344 345 347 343 342 346 347 347
348 352 354 359 359 358 356 354 352 350 348 347 347 349 351 350 349 346 343 342 343 344 345 343 344 344 344 343 342 343 342 344 343 344 341 342 342 347 347 347 346 347 345
348 350 355 359 359 358 356 354 352 350 347 347 347 349 352 350 349 347 342 343 342 342 343 344 343 343 343 343 343 341 340 341 344 343 343 343 342 344 345 344 343 343 345
346 349 354 358 358 358 356 354 350 348 346 346 347 348 352 352 350 346 341 341 341 341 342 343 343 342 342 343 342 340 340 341 341 339 339 341 339 341 341 339 337 338 339
345 351 352 357 357 356 354 353 349 346 345 347 348 347 351 352 349 345 342 341 341 341 342 342 342 342 341 342 342 339 337 339 334 336 337 338 338 339 338 336 335 335 335
345 348 351 354 355 354 353 352 349 346 346 347 351 350 350 351 348 346 343 341 342 342 341 341 341 340 340 338 338 338 335 337 334 334 337 337 339 339 337 335 333 332 333
346 345 347 352 351 351 351 350 349 346 347 348 351 351 351 348 347 345 343 342 340 341 341 340 339 339 338 336 335 334 334 335 334 333 333 337 339 338 336 334 333 331 331
346 344 348 349 348 348 346 347 346 345 345 347 346 344 343 343 344 345 344 343 340 340 340 340 339 338 336 335 333 331 334 334 334 333 334 336 339 336 335 333 331 330 330
344 346 349 346 345 345 344 344 342 342 342 342 341 340 338 341 341 339 339 341 341 340 340 339 338 336 334 333 332 330 330 333 332 332 332 337 337 336 333 331 329 329 328
341 344 345 345 344 345 343 344 343 339 335 334 340 341 339 338 339 339 338 338 339 340 340 340 339 336 333 332 331 330 329 330 330 330 332 336 336 339 336 332 329 327 327
341 342 343 345 345 344 343 343 343 342 341 337 333 333 333 333 335 334 337 337 338 336 337 338 338 336 334 333 330 328 328 328 328 329 331 335 335 338 340 336 331 329 327
341 341 345 346 346 344 343 343 343 341 341 339 338 336 335 333 332 331 332 335 337 337 333 334 334 335 335 334 332 330 327 327 326 328 328 332 334 336 339 340 336 333 330
339 340 342 345 346 344 343 343 343 342 342 342 341 340 338 336 333 332 331 331 332 332 331 331 333 334 335 335 334 332 330 329 328 329 329 329 332 334 337 339 338 337 334
340 340 343 343 345 343 343 343 342 342 342 343 342 341 340 338 336 335 335 334 330 330 331 332 334 335 336 336 336 335 334 334 333 333 332 331 330 331 334 337 338 338 336
340 343 341 343 343 344 344 344 343 341 341 341 341 342 341 340 338 336 336 337 337 335 334 335 336 336 336 336 335 336 336 336 335 335 335 334 331 328 331 333 336 337 337
340 340 343 343 343 343 342 342 340 342 341 341 342 343 342 341 340 339 337 337 340 340 339 338 337 336 336 335 335 335 335 336 335 335 336 336 335 332 330 332 333 335 337
338 339 341 343 342 343 342 342 342 341 342 343 343 343 343 343 342 341 340 339 340 339 339 338 337 336 334 334 334 334 335 336 336 335 335 336 336 336 334 331 329 331 334
335 338 341 342 342 342 343 343 344 342 343 344 343 342 342 342 342 341 341 340 340 338 337 337 335 336 336 336 334 332 336 336 336 336 334 334 334 335 334 332 332 328 328
319 332 338 339 341 341 341 339 339 339 342 343 343 343 343 342 341 340 340 340 339 338 338 336 335 336 335 338 333 332 333 333 333 333 334 332 332 331 329 328 329 329 329
316 317 325 336 338 340 340 341 342 342 343 343 345 344 344 343 341 340 340 339 340 339 339 337 335 333 333 334 329 328 322 324 328 330 330 328 327 328 326 325 325 325 326
314 316 315 320 329 336 340 341 340 337 337 337 339 340 341 340 341 340 339 337 336 336 334 334 333 332 328 330 331 326 320 317 321 324 324 325 324 324 325 321 322 323 323
314 317 316 316 318 322 327 335 332 331 332 335 333 333 330 324 324 324 327 330 331 333 332 332 331 330 330 326 330 329 329 325 319 316 323 323 321 321 322 322 319 321 321
316 317 316 316 315 316 317 321 325 327 324 320 318 317 316 317 319 319 319 320 321 323 324 324 325 326 326 324 323 324 325 324 319 314 314 317 322 322 322 322 320 320 318
316 317 317 315 314 315 316 316 316 317 315 315 316 316 317 318 319 318 317 318 319 320 321 322 323 323 321 320 322 322 320 318 315 314 314 316 316 317 318 320 319 316 313

GFSSE_sfc_thetae_072.txt.gz
Theta_e
347 353 359 359 357 358 357 355 354 353 352 350 348 347 351 352 350 348 348 349 351 352 350 349 347 346 346 346 346 344 340 341 342 343 346 346 345 345 343 346 347 340 341
349 353 358 359 358 358 356 354 355 354 352 348 345 349 352 349 347 345 346 347 349 351 350 349 345 346 345 345 346 346 344 341 340 341 345 347 345 344 345 347 347 346 341
348 352 355 358 358 357 356 353 353 351 350 349 347 352 351 349 346 343 344 345 347 349 347 344 345 344 344 343 344 345 345 344 344 344 344 342 341 348 348 347 348 345 341
349 351 353 358 358 357 355 353 351 349 348 349 350 352 349 349 345 342 344 344 345 344 343 343 344 344 344 343 342 342 344 344 346 345 341 339 339 347 347 345 344 346 346
347 349 354 358 357 357 355 353 350 348 348 350 350 352 352 349 346 342 344 343 344 344 342 344 344 343 344 343 340 340 342 343 343 341 338 334 335 341 342 340 338 340 342
344 351 355 356 357 356 355 354 350 348 347 348 350 353 353 349 345 342 342 342 343 344 343 343 343 343 343 342 340 340 340 342 341 333 334 338 334 338 338 337 336 336 337
347 351 354 357 357 355 354 352 350 347 348 348 349 352 352 349 345 342 341 341 342 343 343 342 342 342 343 342 340 339 339 339 331 330 332 332 333 339 337 335 334 334 335
345 348 352 354 354 353 352 351 349 348 349 350 350 351 353 349 346 344 341 342 342 342 342 341 341 340 340 338 338 338 338 336 331 329 331 332 340 339 337 335 333 332 333
344 346 349 350 350 350 350 349 348 348 349 351 351 351 351 348 347 345 342 341 342 342 341 340 340 339 338 337 335 335 336 335 328 328 334 332 340 338 336 334 333 331 331
341 344 348 347 346 344 344 346 345 345 347 347 348 346 343 342 344 345 343 342 341 341 341 340 339 338 336 335 333 333 333 333 326 327 331 334 340 337 335 333 332 331 329
341 343 346 345 344 342 341 341 341 342 343 341 340 339 338 337 339 338 339 340 341 341 340 340 338 336 336 334 334 333 331 324 325 325 329 339 339 337 334 332 330 329 328
339 343 345 342 341 341 342 337 334 335 335 337 337 334 334 335 335 339 335 338 340 340 341 340 339 338 334 326 325 330 323 323 322 322 329 338 336 338 337 333 330 328 327
341 342 343 342 343 341 341 338 337 333 328 328 333 334 332 331 331 333 332 332 332 334 334 338 336 333 329 326 324 321 321 320 320 321 331 336 335 336 338 338 333 330 328
338 339 340 343 341 342 341 338 337 336 334 330 327 327 326 324 325 324 329 330 330 331 330 331 330 331 329 328 326 323 321 319 319 320 326 332 336 335 337 339 339 334 331
337 339 340 343 342 342 340 340 338 335 335 334 332 332 330 328 325 324 324 326 327 326 324 323 325 326 327 327 327 325 324 322 320 320 320 329 332 335 335 337 338 339 336
338 338 339 340 340 341 340 340 337 336 337 336 336 335 333 331 328 328 326 325 323 323 323 322 324 328 329 329 329 329 327 327 326 325 325 323 331 332 334 334 337 338 339
336 339 340 341 341 340 340 340 340 337 336 336 336 336 335 333 331 329 328 329 328 326 325 326 327 329 329 330 329 329 329 329 328 328 328 327 325 328 331 333 334 337 338
335 337 340 342 341 340 341 341 340 336 334 334 335 336 336 335 334 331 329 330 333 332 330 330 329 329 329 328 328 328 328 330 330 329 329 329 328 326 327 333 335 335 336
333 336 336 338 339 339 339 339 338 338 338 336 337 338 338 337 336 334 333 333 333 333 332 332 331 331 330 330 330 331 331 331 330 331 328 329 329 330 328 329 329 331 333
332 334 336 338 336 338 338 338 339 338 338 338 339 337 338 337 337 335 335 334 335 334 333 333 332 332 332 331 333 330 329 330 329 328 328 330 328 328 327 325 324 324 327
316 332 334 336 335 335 335 334 333 333 336 338 338 340 339 338 338 336 335 335 335 334 334 334 331 330 330 330 326 325 326 329 328 328 328 327 326 323 322 321 322 322 322
310 318 327 334 335 334 336 336 335 335 336 337 338 338 340 339 338 335 334 335 336 336 336 333 333 331 331 331 326 324 319 318 321 324 325 323 320 321 319 319 317 317 316
310 311 314 326 333 334 335 335 334 331 332 331 334 335 335 333 334 337 336 335 334 333 332 332 331 329 326 328 329 324 316 311 314 317 318 318 317 316 314 314 315 316 315
309 311 311 312 320 323 327 332 329 327 326 329 329 328 323 320 320 320 322 325 329 330 330 329 329 327 327 324 324 326 324 318 312 309 315 316 316 314 314 313 312 314 314
311 311 311 311 312 314 316 324 325 325 319 314 312 313 313 314 316 316 316 316 316 316 317 318 318 318 320 318 317 317 320 320 315 314 310 312 316 318 314 315 315 312 311
312 312 311 311 311 311 312 313 315 315 310 309 309 309 310 312 314 314 314 313 314 315 315 316 317 316 316 315 316 317 317 316 314 313 311 312 310 313 314 314 311 307 307

GFSSE_sfc_thetae_075.txt.gz
Theta_e
346 354 359 359 356 356 356 356 354 353 351 347 351 352 351 348 349 349 352 352 354 351 350 347 346 346 346 346 341 342 343 344 347 348 347 346 344 348 349 348 345 336 340
349 354 358 358 358 357 355 353 354 353 351 349 352 352 347 345 345 347 350 351 351 350 346 346 345 345 345 346 346 344 344 342 342 343 346 345 347 349 349 348 345 338 341
349 353 355 358 357 357 354 353 351 349 349 350 353 349 348 345 343 345 347 348 347 345 345 344 345 344 344 344 346 347 346 345 345 345 344 340 343 348 347 346 347 347 347
350 352 354 357 357 356 353 352 350 348 347 352 353 351 347 343 344 344 346 347 344 343 343 344 344 344 343 341 343 344 344 344 346 342 336 337 336 343 342 342 342 344 342
347 351 354 356 356 356 353 350 349 349 348 352 353 352 348 343 344 344 345 346 342 342 342 344 344 344 342 340 342 343 343 345 344 338 334 332 331 336 338 337 336 340 340
347 350 354 355 356 355 354 351 348 349 348 352 353 353 348 343 343 343 343 344 343 343 343 343 344 343 342 341 340 341 341 341 337 332 332 334 330 338 336 335 335 336 338
348 351 353 355 356 355 353 351 349 349 349 352 353 351 348 344 341 342 342 343 343 343 343 343 342 343 342 341 340 339 339 338 329 330 330 331 332 338 337 334 333 334 334
348 351 352 353 353 353 351 350 349 350 350 351 354 353 348 346 342 342 342 342 343 343 342 342 341 340 339 338 337 337 338 335 329 329 330 331 340 338 337 334 333 332 333
349 349 349 350 349 349 349 348 348 350 350 351 351 352 348 347 344 342 343 342 342 341 341 341 340 339 338 336 334 335 335 335 325 329 332 331 340 338 336 334 333 332 331
346 347 345 346 345 344 343 344 346 346 347 349 348 347 343 342 343 344 342 343 342 341 341 340 339 338 336 334 333 334 332 330 324 326 330 334 340 337 335 333 332 331 330
344 344 343 341 340 340 339 339 342 343 343 343 342 339 338 338 339 339 337 339 342 341 340 340 338 336 335 334 334 332 331 322 321 324 328 340 339 337 335 333 331 330 328
338 342 342 341 339 338 340 334 333 339 337 336 336 335 334 333 334 338 335 337 340 341 340 340 339 338 334 325 324 329 322 320 320 323 328 338 337 338 338 334 331 329 328
338 342 341 342 341 337 335 333 329 329 332 334 333 332 332 332 333 333 331 333 332 333 333 337 334 332 327 325 323 321 321 319 318 319 329 337 337 335 337 339 334 331 329
338 339 341 341 340 339 337 335 331 328 326 326 331 333 326 326 328 329 328 329 329 330 328 329 329 329 328 327 324 322 320 318 317 318 323 333 337 335 335 338 340 336 333
337 338 340 342 340 340 340 336 336 333 331 325 325 329 324 323 322 322 324 327 327 329 326 325 325 325 325 324 325 324 322 321 318 318 318 329 333 337 335 335 338 340 338
337 338 339 340 339 339 340 337 336 336 335 330 329 329 329 326 323 322 321 322 322 322 321 320 320 323 325 326 327 326 325 323 323 322 321 322 331 333 336 335 335 337 339
337 338 338 339 340 339 338 339 336 336 337 336 333 332 331 330 327 326 325 324 324 321 321 321 322 325 326 327 327 328 327 327 326 326 325 324 324 328 332 335 336 336 338
336 337 339 342 340 337 338 340 339 339 335 336 336 333 333 332 331 328 326 327 329 326 324 325 326 326 326 326 326 327 327 329 330 329 329 327 326 324 327 333 336 337 337
334 336 337 339 339 339 340 340 340 339 336 334 335 334 336 334 333 331 329 329 330 330 330 329 328 329 329 329 330 331 330 329 329 331 328 327 327 329 326 328 330 331 333
332 335 336 336 337 337 339 339 337 336 337 338 337 336 336 335 334 332 332 332 332 333 332 332 331 331 330 331 331 330 328 328 328 327 327 328 327 326 327 326 324 324 327
329 332 333 334 334 334 334 333 332 334 336 338 337 339 337 338 338 335 333 334 334 332 333 332 331 330 329 330 328 325 324 326 326 327 327 326 326 322 320 320 319 320 320
315 329 331 334 333 335 334 335 334 332 334 334 335 336 337 337 338 336 334 332 335 335 335 334 332 330 330 331 326 324 318 317 319 320 321 323 322 320 318 316 315 315 314
308 318 327 334 334 333 334 334 332 332 331 332 332 333 333 331 333 336 335 335 334 333 332 332 331 329 326 327 327 323 315 309 313 317 317 317 317 316 314 314 314 314 312
307 309 316 323 332 331 333 330 328 327 326 327 330 327 321 321 319 320 320 324 328 329 330 329 329 323 321 318 319 323 321 320 315 311 314 315 317 315 312 314 313 311 309
308 308 308 312 319 320 325 329 327 325 325 317 317 316 313 314 315 316 316 315 315 315 316 316 316 316 317 316 315 315 313 313 315 315 309 310 313 314 313 312 310 308 307
309 310 309 309 310 312 316 320 323 323 313 310 308 310 311 313 313 313 313 312 313 313 314 314 314 314 314 314 313 312 311 310 309 311 311 310 311 313 313 310 308 307 304

GFSSE_sfc_thetae_078.txt.gz
Theta_e
345 352 358 358 356 355 354 354 353 350 348 352 351 350 349 350 352 353 352 353 352 350 347 346 347 346 343 344 345 346 348 347 347 344 345 348 349 349 348 341 339 336 342
350 353 357 357 357 356 355 353 353 350 350 352 350 346 346 348 352 352 352 352 349 346 345 346 346 346 347 346 346 345 344 343 344 345 346 346 347 347 345 345 345 344 347
350 353 354 357 356 355 354 352 350 348 349 352 349 346 344 346 349 350 350 348 345 345 344 345 345 346 346 347 347 345 345 344 345 345 344 337 339 344 343 344 344 343 346
351 352 353 356 356 354 352 351 349 346 350 352 349 344 343 344 347 347 347 345 344 344 344 344 343 343 344 344 344 344 346 345 343 340 334 334 335 339 338 340 340 340 340
348 351 353 355 355 354 352 350 348 348 352 352 350 344 344 344 345 347 345 344 343 343 343 344 343 341 342 342 343 344 345 342 340 335 330 328 328 334 336 336 337 339 339
346 349 352 354 354 353 351 350 349 350 352 353 351 344 343 344 345 346 344 344 344 343 343 343 342 341 341 341 342 342 341 339 336 330 329 333 330 336 335 335 336 336 337
346 350 351 353 353 352 350 350 350 351 353 352 349 345 342 344 344 345 343 343 343 343 343 343 343 342 341 340 340 340 338 337 329 328 329 329 331 337 336 334 333 334 335
348 349 350 351 352 352 350 349 350 351 353 353 351 346 343 342 342 343 343 343 343 343 343 342 341 340 339 337 337 336 337 333 330 328 329 331 338 337 336 334 333 333 333
349 347 347 348 349 348 348 348 349 350 351 353 351 349 346 343 342 342 342 343 343 342 342 341 340 339 337 335 333 335 335 334 324 328 331 331 340 337 335 334 332 331 331
347 347 347 344 344 341 341 346 347 347 348 349 348 346 343 341 341 344 343 343 342 341 341 340 339 338 336 334 334 335 332 329 323 327 328 332 339 337 335 333 332 330 330
344 344 343 340 339 338 337 341 343 344 345 344 343 340 338 337 338 337 336 340 342 341 340 339 338 337 336 334 333 332 330 320 320 324 327 339 339 337 336 333 331 329 328
336 341 341 339 337 336 338 334 336 339 338 338 338 335 334 333 334 336 334 337 341 341 340 340 339 338 333 323 322 327 321 319 318 322 326 339 338 338 337 335 331 330 328
336 339 341 339 337 336 333 329 330 333 333 334 334 333 332 332 332 332 331 332 331 332 331 335 332 330 326 324 322 321 320 319 316 318 328 337 338 336 337 339 335 332 329
333 337 339 340 337 335 332 329 326 329 330 331 331 331 329 328 329 329 328 328 327 329 326 326 327 327 327 326 323 321 319 317 316 316 320 333 338 336 335 337 340 337 334
327 337 338 338 338 337 333 331 329 325 326 329 330 331 326 326 327 327 327 326 326 326 326 325 325 325 326 327 324 322 322 319 318 317 316 326 333 338 336 335 337 340 340
335 337 339 340 338 339 336 333 333 331 329 324 325 327 325 325 322 321 321 325 325 325 327 323 323 323 321 323 325 324 323 322 321 321 319 318 330 334 338 336 336 337 339
336 337 337 339 339 338 337 336 335 337 335 330 325 326 327 325 323 322 320 320 321 320 320 318 318 321 324 325 325 326 326 326 325 325 325 324 324 328 333 336 337 337 337
336 336 337 342 339 338 337 338 335 336 335 334 330 331 330 330 327 325 325 325 326 323 320 320 322 323 324 325 325 326 327 328 329 328 329 328 327 325 327 333 337 338 337
334 334 336 338 337 338 340 339 339 337 335 335 335 335 334 331 331 328 326 326 327 328 327 325 325 328 328 329 328 330 330 330 329 329 328 327 327 326 324 326 330 332 334
333 335 336 338 338 338 337 337 338 338 337 336 335 335 334 334 332 330 329 329 329 328 329 331 330 331 330 330 330 330 328 328 327 326 326 328 326 326 326 324 324 324 327
330 330 333 335 336 336 334 334 333 333 334 335 337 337 335 336 334 333 331 331 332 332 331 331 330 329 329 329 328 326 323 324 324 325 325 324 324 325 323 321 319 319 319
328 329 330 334 333 335 335 334 333 332 332 332 336 335 336 337 336 334 334 333 333 332 333 333 332 330 330 330 325 323 315 316 317 318 318 320 320 319 319 319 317 316 315
318 327 331 333 334 335 334 333 331 331 331 330 331 332 334 335 336 334 334 334 334 333 332 332 331 329 327 327 327 323 315 308 311 316 316 316 315 314 316 315 315 314 312
309 316 328 331 332 333 331 331 330 328 328 328 328 328 325 325 325 326 326 329 330 331 328 328 328 327 325 320 318 320 318 319 312 311 313 315 315 314 313 313 312 310 307
304 304 311 319 327 329 330 331 330 325 325 324 324 321 318 319 319 318 319 318 316 317 316 315 315 314 315 315 314 313 310 310 311 311 307 309 312 313 313 311 309 305 306
306 306 306 309 315 320 324 327 328 327 322 318 317 317 315 315 316 315 315 313 313 313 313 312 312 311 312 312 312 311 311 309 308 307 306 307 307 309 308 308 307 305 304

GFSSE_sfc_thetae_081.txt.gz
Theta_e
344 350 356 357 355 355 354 353 349 349 350 349 350 352 353 353 353 353 351 350 348 346 346 345 345 346 347 347 348 347 346 344 345 347 347 349 346 344 343 342 341 340 341
348 351 355 357 356 354 354 353 349 351 352 351 349 350 352 352 353 352 350 348 347 346 346 346 346 347 347 347 346 345 345 346 347 345 344 344 344 345 346 346 346 343 345
349 351 352 356 356 354 353 351 348 349 351 349 346 348 350 352 352 352 349 347 345 345 346 346 347 346 347 347 345 345 345 345 344 341 340 334 335 342 341 341 340 343 344
349 351 351 355 354 353 352 350 346 350 349 347 344 345 348 350 350 349 347 345 344 344 345 345 345 346 344 344 346 347 346 344 341 337 331 330 331 337 337 339 339 339 340
348 350 351 354 353 352 351 348 346 351 349 346 344 345 346 347 346 346 344 344 343 344 344 344 343 343 343 344 346 345 344 341 338 332 327 327 327 334 337 337 337 338 338
345 348 351 352 352 352 350 348 348 351 349 346 343 345 346 346 345 343 343 343 343 343 343 342 342 342 342 343 343 344 342 339 334 328 329 332 328 336 335 335 335 336 337
345 348 349 352 352 349 348 348 350 352 349 346 343 344 344 345 344 343 342 342 342 343 342 342 341 341 341 341 341 340 340 335 327 327 327 328 330 337 336 334 334 334 335
345 347 348 349 351 350 348 349 349 351 351 348 344 343 343 345 344 342 342 342 342 342 343 342 341 340 338 338 338 338 336 335 329 327 328 329 337 337 335 334 333 333 333
346 345 345 347 347 348 348 348 350 351 352 350 347 344 344 344 343 342 342 342 342 342 342 340 339 338 336 335 334 335 335 332 325 327 330 330 340 336 335 333 332 332 331
341 344 343 343 342 340 341 346 347 348 349 349 346 344 340 340 341 343 342 343 342 341 341 340 338 336 335 333 333 333 331 329 322 326 327 329 338 336 334 333 331 331 330
343 343 341 338 337 336 337 342 344 345 345 345 343 339 337 334 336 337 337 340 342 341 339 339 337 336 336 332 333 332 329 319 318 322 326 334 339 336 334 332 331 329 328
338 341 340 338 336 335 338 336 336 339 339 340 339 336 334 333 332 334 333 337 341 341 340 339 338 338 332 322 321 325 320 317 317 320 325 334 339 337 336 334 331 329 328
336 338 336 337 337 334 333 333 334 334 334 336 334 333 331 332 330 330 329 331 330 332 330 333 330 328 324 322 321 320 319 317 315 316 325 334 338 337 336 338 335 332 330
334 336 337 338 336 335 331 331 332 332 332 332 332 331 328 328 328 328 328 327 326 327 324 324 325 325 325 325 323 321 320 318 315 315 317 330 338 337 336 337 340 338 335
329 329 329 337 335 335 331 329 328 328 330 332 330 330 329 327 327 328 327 325 325 325 325 323 323 323 324 324 326 323 321 320 318 317 316 322 333 337 337 336 337 339 341
323 325 329 336 337 336 333 330 327 325 328 328 329 330 328 326 327 327 326 325 324 324 325 324 322 323 322 320 322 323 322 321 320 320 320 318 326 333 337 336 337 338 339
323 327 335 335 338 337 335 334 331 330 328 326 326 327 328 324 325 325 323 321 324 324 324 323 318 317 319 323 323 325 325 325 325 324 324 324 325 327 332 336 338 338 339
332 332 337 339 338 337 337 336 335 334 333 332 327 325 327 325 324 321 320 319 321 320 319 317 318 320 321 323 323 325 326 326 327 328 327 327 327 325 327 332 337 339 339
334 335 335 336 337 337 338 338 336 336 335 333 331 328 328 328 327 325 324 324 325 324 322 321 321 324 326 327 328 328 329 329 330 329 327 327 326 326 324 326 329 332 334
335 336 334 335 336 337 335 334 333 337 336 335 335 333 333 332 330 327 326 325 326 326 327 327 326 328 329 329 329 329 329 329 327 325 325 326 325 325 325 325 323 324 328
332 333 335 335 335 336 335 334 333 333 335 334 334 335 334 334 332 331 329 327 327 327 327 329 330 329 328 329 325 324 323 324 322 323 322 322 321 324 323 323 321 322 325
327 332 333 334 335 336 336 335 334 334 332 332 335 336 335 334 334 333 332 330 331 330 331 330 331 330 329 330 325 323 317 315 316 316 316 317 317 318 318 318 317 318 319
323 326 331 333 335 334 335 331 329 330 330 329 330 333 333 334 334 334 333 333 332 332 331 331 331 330 327 327 327 324 314 308 311 317 315 315 314 313 313 313 314 315 313
310 322 328 329 330 332 331 330 328 326 326 327 328 328 328 329 329 331 331 330 329 329 327 327 327 325 326 322 319 318 318 319 312 308 312 313 314 312 311 312 311 310 309
307 310 320 324 328 330 330 331 330 326 327 325 324 324 323 323 324 324 324 324 323 321 319 318 316 315 316 315 313 312 310 309 310 311 308 308 311 312 311 311 309 307 307
303 304 307 314 320 323 325 327 329 327 325 322 320 321 319 317 318 316 315 315 315 316 317 315 314 311 310 310 310 310 309 308 305 305 306 305 305 306 305 305 304 303 305

GFSSE_sfc_thetae_084.txt.gz
Theta_e
342 348 356 356 354 354 353 350 350 348 351 351 354 355 354 354 353 352 350 348 346 345 345 347 348 349 348 347 346 345 347 349 348 347 347 346 345 347 347 346 345 338 341
345 350 355 356 355 354 353 349 351 350 351 352 353 354 354 353 352 351 350 347 346 346 345 347 347 347 346 346 346 346 348 346 344 343 342 341 343 343 343 343 347 338 344
347 350 351 355 355 354 352 349 350 351 350 350 352 353 353 353 352 350 348 346 346 346 346 348 346 346 347 346 346 346 346 343 342 340 338 330 332 340 340 340 340 342 343
348 349 349 354 354 353 352 348 350 350 346 347 350 351 352 352 351 348 346 345 346 346 346 346 346 345 345 347 347 346 344 341 338 335 328 328 330 337 338 339 339 339 339
347 349 349 353 353 352 350 347 350 350 346 344 348 351 351 351 349 348 345 344 345 345 345 346 345 344 346 347 346 344 342 339 336 331 326 326 326 335 337 337 337 338 338
346 347 351 352 352 352 350 348 350 348 346 343 344 348 350 349 346 345 344 344 344 345 344 344 343 343 344 346 345 343 341 337 333 327 327 331 328 336 336 336 336 337 337
346 347 347 351 351 350 348 348 350 348 345 343 343 344 345 346 344 343 343 343 343 343 343 343 342 342 342 342 342 342 338 334 327 326 326 327 330 337 336 335 335 334 337
344 345 346 348 350 349 347 348 350 350 346 343 344 343 344 343 342 342 342 342 342 342 342 341 341 340 339 340 339 339 337 333 328 326 327 328 338 337 336 335 334 333 334
345 344 343 345 346 347 347 348 349 350 349 346 345 345 345 343 341 341 341 342 342 342 342 341 339 338 337 336 336 336 335 333 324 326 330 329 339 336 335 334 333 333 332
342 343 343 342 341 339 340 346 346 347 347 346 343 342 340 340 340 340 339 342 342 341 341 339 338 337 335 334 333 333 331 329 322 325 326 328 337 335 334 333 332 332 331
338 340 340 338 336 335 337 341 344 345 345 344 341 337 336 333 335 336 336 339 342 341 339 338 337 335 334 330 331 332 326 318 317 320 325 332 339 335 334 332 331 330 329
336 337 338 336 334 334 340 336 336 341 343 342 337 333 331 330 331 334 333 337 340 340 340 338 337 337 330 321 320 323 318 317 316 317 324 333 339 337 336 334 332 330 328
338 339 337 335 334 333 335 334 333 335 337 340 337 333 331 331 329 328 327 330 329 331 329 331 328 327 323 321 321 319 319 317 315 315 321 332 337 339 337 339 337 334 331
335 336 336 336 334 332 333 333 333 334 334 336 335 332 329 327 327 326 326 326 325 326 323 322 323 322 323 323 321 322 320 318 316 315 316 325 334 338 338 337 339 339 337
334 335 336 336 335 334 329 330 332 331 331 332 332 331 329 327 327 327 327 325 324 323 323 321 321 322 322 323 324 324 323 320 319 318 316 322 326 335 337 337 338 338 341
333 334 337 336 336 335 331 328 326 328 330 330 329 330 329 328 327 327 326 325 324 323 323 323 322 322 322 320 320 322 322 321 321 320 320 320 325 328 333 337 338 339 339
331 330 330 334 336 335 334 333 328 326 329 330 329 329 329 327 326 326 326 325 324 323 323 323 322 318 318 320 321 324 324 324 324 324 324 324 325 326 329 334 337 338 339
325 327 331 332 332 331 334 334 333 332 328 326 326 327 328 329 325 324 324 323 322 322 322 320 318 316 317 320 322 324 325 325 327 328 328 328 326 327 328 332 335 337 339
326 327 332 333 334 334 335 336 335 334 333 332 329 324 325 328 325 323 323 321 320 320 318 318 317 319 320 322 326 328 328 329 329 329 328 326 326 325 325 327 328 330 333
331 331 333 334 335 335 336 335 332 334 334 335 332 329 327 327 326 324 323 322 323 323 322 322 320 322 323 327 328 328 327 327 327 323 323 324 323 324 324 324 323 323 327
332 332 333 333 334 334 333 331 329 326 332 333 331 333 332 331 330 328 326 326 324 324 325 326 326 326 328 329 326 323 321 322 321 320 319 318 318 320 321 321 320 320 323
330 332 331 332 333 332 333 332 331 331 332 333 333 333 332 332 332 330 330 328 326 327 326 327 329 328 329 327 322 319 314 315 315 316 315 315 313 315 317 317 317 316 317
325 328 331 332 331 331 333 332 330 330 330 330 331 331 332 332 332 332 330 331 330 329 328 329 328 328 325 324 326 321 314 308 309 316 315 315 313 312 312 312 313 314 314
313 324 327 327 329 332 332 331 330 327 327 330 330 329 329 328 329 330 331 330 330 329 328 328 327 325 324 320 317 317 316 317 314 307 311 313 312 311 310 310 310 309 309
306 311 322 325 326 328 327 328 328 326 327 326 325 327 327 325 326 326 326 326 328 325 321 321 320 319 320 318 316 313 311 308 309 311 304 306 309 309 308 308 307 305 307
303 305 310 317 320 323 324 325 325 325 323 322 322 322 320 319 320 322 322 319 319 318 318 318 316 314 312 310 309 309 308 306 303 303 305 305 303 306 304 304 303 303 304

GFSSE_sfc_thetae_087.txt.gz
Theta_e
345 351 356 356 353 352 351 349 349 352 353 354 354 355 354 354 353 351 349 347 346 348 347 349 350 348 347 347 346 350 349 348 347 346 346 347 348 345 346 345 344 341 343
348 351 354 356 355 354 350 351 350 351 352 353 356 354 354 354 352 350 348 346 346 347 348 349 349 347 347 347 348 349 346 345 344 342 342 342 344 343 343 344 346 344 347
348 351 352 355 355 355 350 351 349 350 351 353 354 354 354 353 352 349 347 347 346 346 348 347 346 346 347 347 347 346 344 342 340 338 337 336 338 340 340 341 342 344 346
349 351 351 354 354 354 349 350 350 349 349 351 353 354 353 353 350 348 347 347 347 349 347 347 345 346 347 346 346 344 341 338 337 335 334 335 334 339 340 339 340 339 341
349 351 351 353 353 353 349 351 351 347 347 350 351 353 352 352 349 346 346 347 349 348 347 345 346 347 348 348 345 342 339 337 336 335 335 336 336 336 338 338 339 339 339
348 350 351 352 353 351 350 351 351 346 345 346 350 350 351 351 348 345 345 347 347 346 345 345 345 346 348 346 344 341 338 337 335 336 336 337 336 337 337 337 337 338 338
347 350 350 352 352 351 350 351 350 346 344 344 347 349 350 347 346 344 343 344 345 345 345 344 344 344 343 344 344 340 337 334 334 335 336 337 337 337 337 336 335 336 337
346 348 348 349 351 349 349 350 349 345 343 344 347 348 348 344 344 342 341 342 343 344 343 343 342 341 341 341 342 340 336 334 333 335 336 337 339 337 336 335 334 334 334
347 346 347 348 347 346 348 349 349 347 345 345 343 346 343 344 341 341 340 341 343 343 343 342 340 339 338 338 338 336 336 332 335 335 334 337 339 336 335 335 334 333 332
345 345 345 346 344 344 346 346 347 346 344 344 343 343 339 338 338 341 339 343 343 342 341 340 339 337 336 334 333 333 333 330 334 335 336 337 337 335 334 333 333 332 331
341 342 343 342 342 343 345 345 345 345 343 341 340 337 337 339 338 337 337 340 342 341 340 339 338 335 332 330 332 331 327 329 329 331 335 332 338 336 334 332 331 331 330
333 339 342 340 339 341 342 345 346 346 344 341 339 339 339 339 340 339 336 337 341 340 339 338 337 335 331 330 330 326 329 328 327 328 332 332 336 339 337 335 332 331 329
336 337 338 337 337 339 340 341 343 345 345 341 339 337 337 337 338 338 339 339 340 335 338 338 337 335 331 331 331 331 329 328 328 327 326 330 336 338 338 339 338 336 333
336 336 337 336 336 337 339 338 339 340 343 340 339 337 336 335 335 334 335 336 335 336 334 334 333 332 331 331 332 332 332 330 330 329 327 324 328 336 339 338 338 341 339
334 334 335 336 335 336 337 337 338 339 340 342 339 337 336 335 334 335 334 334 334 334 333 331 330 329 331 331 332 332 333 332 331 331 330 323 325 329 336 338 339 339 341
331 335 336 335 335 334 335 336 337 338 338 340 339 337 336 335 334 334 335 335 334 333 333 332 330 330 331 331 329 330 331 332 332 332 332 333 327 329 332 336 338 339 340
332 335 337 336 337 334 332 333 335 336 336 336 337 338 336 335 335 335 334 334 335 333 331 331 331 330 328 328 327 330 332 333 333 334 334 335 334 327 330 335 338 339 340
332 330 332 337 337 336 335 334 332 332 335 336 336 337 335 335 335 334 333 333 334 332 330 329 330 328 325 325 327 331 333 334 334 333 332 332 335 334 332 332 334 337 339
329 329 329 332 333 334 336 336 335 333 330 329 332 334 333 335 334 333 332 332 332 329 328 328 327 325 325 327 328 331 332 331 333 333 334 334 333 333 333 331 329 330 334
327 330 330 331 333 334 336 337 338 337 335 336 332 328 328 331 333 332 331 331 329 326 325 325 324 325 326 329 329 329 333 335 335 334 331 330 330 330 331 332 333 332 326
328 328 331 333 333 335 335 334 332 332 334 336 336 336 335 333 331 330 330 327 326 326 327 327 328 327 327 330 331 330 330 331 331 330 328 327 327 328 328 330 331 331 331
328 329 331 333 333 335 334 334 334 333 335 337 337 336 336 335 334 332 330 328 327 328 329 330 331 332 331 332 329 328 320 323 324 325 325 324 323 325 325 325 327 327 330
327 328 330 330 333 335 333 333 331 331 331 330 331 334 336 334 333 333 333 333 332 330 330 331 331 331 328 331 330 325 319 316 319 324 323 323 322 322 322 322 322 323 324
325 329 331 329 331 333 332 332 330 327 326 329 329 330 333 332 331 332 332 331 331 329 328 326 327 328 328 325 324 321 323 324 319 315 318 319 319 319 318 319 319 317 318
314 318 327 327 328 330 331 332 330 328 329 330 330 329 330 330 331 331 332 331 328 326 325 325 323 323 324 322 320 319 320 319 319 314 310 313 317 317 316 315 315 315 314
308 309 316 325 326 328 328 329 329 329 327 326 326 326 327 326 327 328 329 329 329 326 324 322 320 319 317 317 317 316 316 313 311 311 309 310 310 313 313 312 311 311 312

GFSSE_sfc_thetae_090.txt.gz
Theta_e
345 352 356 356 354 352 349 349 351 352 354 357 356 354 354 353 353 350 348 348 353 353 351 352 349 350 347 351 351 348 346 346 346 345 345 347 346 347 344 343 348 343 343
347 352 355 356 355 352 350 351 354 354 353 356 357 355 354 353 352 349 347 347 351 350 351 349 347 347 347 351 348 346 345 344 342 341 343 342 344 343 344 344 348 345 345
348 351 353 354 355 354 353 351 351 352 354 356 356 356 355 353 351 349 347 348 349 350 350 346 347 346 348 349 345 343 341 340 338 337 339 335 338 340 341 342 342 345 346
348 351 352 354 355 354 353 351 351 352 352 356 355 355 355 353 350 349 347 347 349 349 348 346 346 347 347 346 344 340 338 337 335 337 335 333 333 339 340 340 340 341 344
347 350 351 354 355 353 353 351 351 351 352 353 354 354 354 353 349 348 349 350 350 348 347 346 348 347 347 345 342 338 338 337 335 337 336 337 335 337 338 337 338 339 341
348 350 352 353 353 352 353 353 350 349 351 351 352 352 353 351 348 348 349 349 349 348 346 347 347 348 346 344 341 338 338 336 338 336 336 336 336 337 338 338 338 338 338
347 349 351 352 353 352 353 351 349 348 349 351 351 351 351 349 346 345 346 347 346 346 345 346 346 346 345 344 341 338 336 333 335 335 336 337 337 337 337 336 335 336 337
346 347 349 350 351 351 352 350 349 347 348 350 350 350 349 348 345 344 343 345 345 345 344 344 343 343 342 344 341 338 335 335 334 335 336 336 337 336 336 335 334 334 334
347 347 348 349 347 348 349 348 347 346 346 348 349 348 347 346 344 343 343 344 344 344 343 342 341 341 340 339 339 338 335 332 336 336 334 336 338 336 335 334 333 333 333
345 346 346 347 344 343 349 345 344 344 345 345 345 343 341 340 341 342 341 343 343 344 342 340 339 338 336 336 335 334 334 333 336 337 337 336 337 334 334 333 333 332 332
342 344 345 345 342 340 346 345 343 343 342 341 340 337 336 339 339 339 339 340 343 342 341 339 338 335 334 333 332 331 329 334 334 334 337 333 337 336 334 332 331 331 330
337 340 344 342 338 340 345 346 345 341 339 339 341 337 337 338 338 337 337 339 342 341 340 338 336 334 330 330 330 328 331 333 332 332 334 333 335 340 338 336 334 332 331
335 339 341 338 336 340 344 345 345 343 341 337 336 339 338 337 339 338 339 339 338 335 335 336 335 332 330 332 333 332 332 331 332 332 330 329 335 338 339 339 339 337 335
329 336 340 337 334 338 345 345 345 344 342 340 337 333 333 334 335 335 335 336 336 334 334 334 332 332 331 332 333 334 334 334 335 336 333 326 328 334 338 339 339 341 341
327 334 338 338 335 335 342 343 344 344 342 341 340 337 336 334 332 332 332 332 332 333 332 330 329 329 330 333 334 335 335 336 336 337 337 326 327 330 333 337 340 340 341
328 328 333 336 336 335 336 341 342 343 344 343 342 341 340 338 336 335 334 336 337 337 335 333 332 330 333 334 333 333 335 336 337 337 338 337 329 330 333 336 339 340 340
326 329 333 335 336 335 334 336 340 342 342 343 343 343 341 340 338 338 338 338 338 337 335 334 334 333 333 332 331 333 335 336 337 337 337 337 336 328 331 336 338 340 341
327 329 331 336 335 334 334 336 336 337 339 340 341 342 342 341 340 338 338 337 338 337 335 334 333 333 332 329 328 332 335 336 335 335 334 335 335 335 334 334 335 336 338
328 328 329 336 336 336 337 336 335 336 336 336 338 339 340 340 339 337 336 336 336 336 335 333 332 332 329 329 331 334 334 333 334 333 334 334 335 335 335 333 330 330 332
329 329 330 330 336 337 338 338 338 335 334 335 336 337 338 338 338 337 336 336 335 335 333 332 331 331 330 332 332 331 333 334 334 334 334 333 333 333 332 333 334 333 328
329 329 328 330 332 335 335 335 337 335 335 337 338 337 336 334 334 334 336 335 335 333 334 333 331 330 331 332 330 330 331 332 332 332 333 331 330 330 330 331 333 333 334
325 328 329 330 331 334 334 335 335 337 339 340 340 339 339 339 339 336 335 334 332 328 328 332 332 332 334 336 329 328 322 324 327 329 330 328 328 329 328 328 329 331 334
323 327 329 330 331 335 336 337 334 334 337 336 338 338 339 339 339 337 335 335 331 332 332 333 332 331 330 332 330 326 320 317 321 326 326 326 326 326 326 326 325 327 328
325 328 328 329 330 331 336 333 329 330 329 332 334 335 335 336 336 336 335 334 332 331 329 326 325 324 324 323 327 327 326 324 317 315 321 322 323 321 322 323 323 323 324
327 327 327 328 328 331 331 332 331 330 329 329 331 331 332 333 334 334 334 334 332 330 328 326 324 323 323 322 323 322 321 323 325 320 310 312 317 319 320 320 319 321 320
314 315 322 328 328 331 331 330 330 329 330 328 328 328 329 332 333 333 334 335 332 330 329 327 326 326 324 324 323 324 322 316 314 314 312 312 311 314 317 317 318 318 318

GFSSE_sfc_thetae_093.txt.gz
Theta_e
346 351 357 356 353 352 351 351 350 352 357 357 356 355 354 353 352 350 350 353 352 353 352 351 351 349 352 350 348 347 347 346 346 346 346 347 347 346 346 349 348 341 344
348 351 355 356 354 351 350 351 353 352 357 356 357 354 354 353 351 349 349 351 353 352 350 349 348 349 350 347 346 345 344 343 341 342 343 342 345 344 344 345 348 343 344
347 350 352 355 354 353 352 354 354 353 356 356 356 356 354 353 350 348 348 351 353 351 348 345 345 350 348 346 343 341 340 338 336 338 338 333 338 342 343 343 347 346 346
348 350 350 355 354 353 352 352 352 354 355 355 355 356 354 352 350 347 350 352 352 351 346 347 347 348 345 344 340 338 337 336 334 336 333 331 333 340 341 342 343 344 347
347 350 349 354 355 354 352 351 352 353 355 354 354 354 354 353 349 347 350 352 351 350 348 347 347 346 345 342 338 338 336 335 336 338 335 336 335 337 339 340 339 342 342
345 347 351 353 354 353 352 353 352 352 354 353 353 353 352 352 351 350 350 349 348 347 347 349 347 346 344 340 339 338 336 335 339 335 335 336 335 338 339 338 338 339 339
344 347 350 353 353 353 351 352 352 352 353 353 352 352 352 351 346 345 349 348 347 347 347 348 347 346 345 341 339 337 334 335 334 335 335 335 336 338 338 337 336 336 336
344 347 349 349 351 352 352 350 350 351 351 352 351 351 351 349 348 346 347 348 347 345 346 346 346 345 345 342 339 337 334 335 333 334 335 335 338 337 337 335 335 335 334
344 345 347 349 348 348 349 348 348 350 350 350 350 350 348 346 346 344 346 347 346 345 345 344 343 342 342 343 340 337 334 335 335 334 334 335 339 337 336 335 334 334 333
340 345 345 347 346 344 347 345 345 345 346 347 347 345 342 341 342 344 343 345 346 345 343 341 341 340 339 338 336 336 335 335 334 334 334 335 336 335 335 334 333 332 332
328 326 340 346 342 340 346 343 342 343 343 342 340 337 337 339 339 339 339 341 344 344 341 339 338 337 336 335 334 333 332 333 331 332 334 338 339 336 334 332 332 331 330
322 324 327 344 340 338 343 342 338 338 337 337 339 338 337 337 337 338 337 339 342 342 341 339 337 334 331 330 329 329 329 331 330 330 333 336 335 339 338 336 334 333 331
324 323 322 340 340 336 343 343 337 335 335 334 334 334 335 335 336 337 338 338 338 336 335 336 334 331 329 329 330 330 330 330 330 331 330 335 335 337 339 340 340 338 336
323 323 326 336 336 337 344 341 336 334 334 336 337 335 334 336 335 335 335 335 335 333 333 333 332 331 330 330 330 331 332 332 333 334 329 330 331 334 337 339 340 341 341
324 326 325 337 334 341 343 342 340 336 335 333 334 334 334 334 332 333 333 334 333 332 332 330 330 329 328 328 331 332 333 334 335 335 335 328 330 332 334 336 338 340 341
327 327 334 335 334 338 340 341 341 340 336 338 334 333 331 332 331 331 331 331 331 332 332 331 329 327 327 331 331 332 332 334 335 335 336 333 331 332 334 337 339 341 341
326 328 328 332 333 334 338 340 341 342 338 339 340 336 336 335 334 334 332 334 335 336 333 332 330 330 330 331 330 331 333 334 335 334 334 337 335 330 334 338 339 340 340
327 327 329 332 333 333 334 339 341 342 342 343 342 342 339 337 337 336 336 336 337 336 334 333 332 331 330 329 328 328 332 334 334 334 334 333 335 334 333 336 338 337 337
328 326 327 331 334 333 333 335 336 339 340 341 341 341 341 340 339 337 337 337 336 336 334 333 331 331 329 329 328 330 333 333 332 331 331 333 336 336 335 332 332 332 333
327 327 327 329 334 333 334 335 335 336 335 335 336 337 338 337 337 336 334 335 335 335 334 334 331 331 330 329 328 329 331 332 332 332 331 332 333 333 332 332 333 332 329
326 328 327 327 329 332 333 332 333 331 332 334 336 337 337 338 338 337 337 336 336 335 335 333 332 330 330 332 332 330 330 331 331 332 332 330 330 330 330 330 330 331 331
325 326 327 327 329 332 332 335 333 335 337 336 338 337 337 336 336 336 336 336 334 331 330 329 331 330 332 337 330 329 323 324 327 327 329 328 327 327 327 326 327 328 331
324 325 325 325 329 331 333 334 335 336 337 337 337 336 338 338 339 338 337 336 333 332 328 329 330 327 328 333 332 327 320 318 319 325 326 327 324 325 325 326 325 325 326
323 325 327 325 327 329 332 334 330 326 326 330 330 334 333 334 336 337 336 335 334 333 332 329 327 324 323 321 324 327 325 322 315 313 321 320 322 320 321 322 322 322 324
322 322 325 326 327 328 329 328 327 325 326 328 329 329 331 332 334 335 335 333 332 332 331 327 324 322 323 322 322 322 322 322 321 316 314 312 317 318 320 320 319 319 321
321 324 324 325 324 325 327 327 327 327 327 327 327 325 328 331 333 333 333 333 332 332 328 327 327 326 325 324 324 323 321 319 318 318 315 312 311 314 317 318 317 318 318

GFSSE_sfc_thetae_096.txt.gz
Theta_e
344 349 357 355 354 352 352 351 354 358 357 357 356 354 355 353 352 352 350 351 352 352 352 352 352 351 350 347 347 348 348 347 347 346 346 347 347 348 349 347 347 341 346
347 350 356 356 354 352 352 353 353 357 357 356 357 353 354 353 351 352 354 352 352 352 352 350 352 349 347 346 345 344 344 343 343 345 343 343 345 346 347 347 347 343 348
347 349 353 356 355 354 354 354 353 356 357 357 357 355 354 352 350 352 352 353 352 352 350 349 351 348 345 343 343 340 338 336 338 342 342 334 336 344 345 345 349 348 349
347 348 349 355 355 353 353 354 353 354 357 356 357 356 355 352 350 351 352 354 352 349 349 351 349 345 343 340 338 336 336 335 337 338 329 330 335 341 342 343 345 346 345
347 347 349 355 354 353 354 354 353 354 356 356 355 355 354 353 349 349 353 353 349 345 346 349 347 345 342 339 338 337 336 337 340 335 330 329 330 338 342 341 341 342 342
346 347 352 354 354 353 354 353 353 354 354 355 354 354 353 353 351 352 352 349 347 348 348 347 347 344 340 340 338 337 336 337 338 329 329 336 332 339 339 339 339 339 340
345 347 349 353 353 353 353 353 353 354 354 354 354 352 351 352 350 351 350 348 346 348 350 347 346 344 340 340 338 335 334 337 330 329 330 330 332 339 338 337 337 336 336
344 347 348 350 352 352 352 352 352 354 354 353 352 351 351 350 345 349 347 345 346 347 348 347 346 345 342 340 338 335 336 335 331 329 330 331 339 338 337 336 336 336 335
345 346 345 347 348 349 350 349 350 352 352 351 350 349 348 347 343 344 345 345 346 347 346 346 345 345 344 341 338 336 335 334 328 328 332 331 340 338 337 336 335 335 335
331 326 329 345 345 345 344 345 346 347 348 348 347 345 342 341 342 343 344 344 346 346 345 345 342 341 340 340 338 338 335 334 326 328 331 332 338 336 336 335 334 333 333
328 326 327 326 340 340 343 341 343 344 344 343 342 339 338 338 339 338 339 341 344 344 343 341 340 339 338 335 335 334 332 326 325 327 329 340 338 336 334 333 332 332 331
323 324 326 327 328 337 343 339 337 341 342 341 339 337 336 335 336 336 337 339 342 342 341 340 338 337 333 325 325 329 323 324 322 324 329 339 339 339 337 335 333 333 332
322 324 325 325 326 326 340 338 334 336 338 338 336 337 334 334 332 335 334 338 337 334 334 335 332 328 323 322 323 321 321 322 321 323 331 337 337 337 339 339 340 338 337
321 322 325 325 325 326 332 336 332 329 329 331 334 331 332 331 332 333 332 331 331 330 328 329 328 326 324 323 322 323 323 323 325 325 327 333 337 336 337 339 340 341 341
320 321 323 325 326 327 329 338 331 329 329 330 329 329 330 331 328 331 331 331 329 328 326 326 324 323 323 322 323 325 325 326 327 328 322 328 332 335 335 336 337 339 341
323 321 324 326 328 331 332 336 330 329 328 331 329 330 329 330 327 326 327 327 326 325 325 324 321 320 320 323 324 325 325 326 328 329 327 325 331 334 337 339 340 340 341
323 327 328 327 331 332 332 336 336 332 330 328 326 326 326 327 325 325 324 324 325 327 327 325 323 323 322 325 323 324 325 326 329 329 331 331 330 330 335 340 340 340 340
325 327 330 332 330 330 332 334 335 337 334 332 329 329 328 329 328 327 327 329 331 330 328 326 325 324 324 324 322 322 323 327 328 329 329 326 327 331 331 336 339 339 337
325 326 327 326 325 325 330 333 335 336 336 338 336 333 333 332 331 331 331 332 332 330 328 328 327 326 324 324 323 321 324 328 328 327 325 327 329 328 327 330 332 332 334
326 326 327 327 323 323 331 333 333 333 335 335 335 338 337 336 335 332 331 331 331 330 329 328 326 325 324 324 325 323 327 328 326 325 327 328 327 325 324 324 324 325 328
324 325 326 325 330 330 329 328 329 329 329 330 332 333 336 334 334 331 332 331 330 329 329 328 328 326 325 325 325 325 326 325 324 327 325 321 322 323 322 321 321 322 325
322 323 326 325 326 329 331 330 331 329 329 329 331 332 334 335 335 334 333 332 331 328 327 326 327 326 327 329 323 321 317 320 323 323 321 321 319 320 320 319 320 321 321
320 323 324 324 325 328 328 329 329 329 328 331 332 331 333 332 332 332 333 332 329 328 326 325 327 326 325 327 328 323 316 311 316 319 320 320 317 317 317 319 318 318 319
321 324 324 324 326 327 328 326 324 323 322 325 326 328 329 331 331 333 333 332 329 328 326 327 327 324 323 322 323 325 322 319 313 311 317 317 318 317 314 317 315 316 317
322 323 325 324 324 326 327 327 325 323 324 326 326 325 327 329 330 331 332 331 330 329 328 326 324 322 322 320 319 319 318 319 318 313 310 314 314 314 315 314 314 313 315
320 321 322 323 324 324 325 326 325 324 324 323 323 323 324 327 328 330 330 330 330 329 329 328 325 323 322 321 320 321 319 317 315 314 313 312 308 310 312 313 312 312 312

GFSSE_sfc_thetae_099.txt.gz
Theta_e
342 350 357 356 353 353 355 359 360 359 358 357 354 354 355 355 353 350 349 348 349 352 353 353 352 348 347 349 349 348 347 348 347 346 345 347 349 348 346 345 345 344 349
345 350 355 356 355 354 355 357 359 357 356 356 353 354 355 354 352 351 351 352 352 352 353 352 349 346 346 346 347 346 343 344 344 344 343 343 346 348 348 347 349 347 349
345 350 352 355 355 355 355 354 357 358 357 356 354 354 354 352 352 353 353 353 352 352 352 350 346 346 345 343 341 340 340 340 341 341 341 334 338 346 347 348 349 348 349
347 350 350 355 355 355 354 354 355 357 357 356 355 356 355 352 353 354 352 353 353 351 351 349 346 342 340 339 337 338 338 338 341 338 329 332 336 342 345 346 346 345 346
347 349 351 355 355 354 354 353 353 357 357 357 356 356 355 353 353 352 353 351 349 351 351 347 344 340 339 337 338 339 339 340 340 334 328 329 331 340 342 342 342 343 344
345 347 352 354 354 353 354 354 353 354 357 357 356 355 354 353 353 354 352 349 348 347 350 347 343 340 340 338 339 339 338 339 335 329 330 334 331 339 339 339 339 339 340
343 347 351 354 354 354 354 353 353 353 355 355 354 355 353 353 353 353 350 347 346 348 348 346 343 340 340 338 337 337 337 338 328 328 328 329 331 339 338 338 337 336 336
344 347 350 351 352 353 352 353 353 354 354 353 352 354 352 352 352 352 349 346 346 349 347 345 344 341 341 339 337 336 337 335 329 328 328 330 339 338 338 337 337 337 336
345 345 347 348 349 349 350 351 352 352 352 352 351 350 349 348 349 350 343 345 347 350 349 346 345 343 341 339 337 336 335 334 325 329 331 330 340 338 338 337 336 336 336
330 332 338 344 346 345 345 347 347 349 350 349 348 346 344 341 343 343 340 342 347 348 347 346 345 344 343 341 338 338 335 332 324 329 329 331 339 337 337 336 335 335 334
327 327 330 331 335 341 341 342 344 345 345 344 343 339 338 338 338 338 337 339 344 345 345 343 342 341 339 336 335 334 332 324 323 327 329 339 338 336 335 334 333 333 332
323 324 326 328 328 329 342 337 338 342 342 342 341 339 337 337 337 338 336 338 342 342 341 341 340 338 333 325 325 329 322 321 320 326 330 340 340 339 337 335 334 333 332
323 324 325 327 327 327 327 335 334 337 341 340 339 337 336 335 335 337 337 338 338 334 334 335 333 327 323 322 322 320 319 319 319 325 331 338 340 340 340 340 340 338 337
322 323 324 326 327 327 326 327 333 335 338 337 338 336 334 333 333 334 335 336 334 330 328 328 326 324 322 321 321 320 320 320 321 323 328 334 339 338 339 340 340 341 341
320 323 323 324 325 328 327 329 331 332 336 335 336 336 334 331 332 331 330 331 329 328 326 325 325 324 322 321 321 321 321 322 324 324 323 330 335 339 339 338 339 339 340
320 319 323 323 324 327 328 330 330 333 331 332 335 334 333 332 332 331 330 330 328 327 326 325 323 321 320 320 320 322 323 324 325 328 322 323 331 334 338 339 340 340 341
323 322 321 323 326 326 328 329 331 333 331 329 330 331 331 331 329 329 328 328 328 325 323 322 320 319 318 320 321 323 323 323 325 326 328 326 329 329 335 340 341 341 340
323 324 324 325 324 326 328 329 333 331 331 330 327 328 330 329 326 326 326 326 325 325 324 322 322 321 321 321 321 321 321 324 326 326 327 330 328 328 331 336 339 340 339
322 325 326 329 327 328 330 333 333 332 330 330 327 327 327 327 326 325 325 325 327 326 325 325 324 324 322 322 322 321 321 322 326 327 323 324 327 330 326 329 332 332 333
321 325 327 328 329 326 330 332 332 332 331 333 331 330 328 329 328 328 328 329 330 328 326 326 324 324 324 323 324 321 320 325 327 325 322 327 328 326 323 322 322 323 328
319 324 326 323 323 325 326 327 329 328 330 330 333 333 333 332 331 330 329 328 330 328 327 326 325 323 323 323 323 323 324 325 325 323 325 323 322 321 320 320 320 321 324
317 316 324 324 324 323 328 329 330 329 330 330 330 334 336 335 333 330 329 327 328 327 327 326 327 325 324 325 321 320 317 320 323 323 320 320 319 320 318 319 319 319 321
315 317 319 325 325 324 328 329 328 328 328 327 328 329 330 331 331 333 331 331 328 327 325 325 326 325 323 325 326 321 316 313 316 320 320 321 317 318 317 318 316 319 318
319 321 322 325 326 327 328 327 325 323 322 324 325 327 328 329 329 330 331 330 328 327 326 326 326 325 324 321 322 324 321 319 311 312 317 316 316 316 315 316 314 316 318
320 321 323 324 325 325 326 325 324 323 324 325 325 324 325 327 329 329 330 330 329 327 326 325 324 323 322 320 319 319 318 317 317 312 309 313 314 314 314 313 311 311 314
319 321 321 322 323 325 325 325 324 322 322 322 323 323 323 325 326 327 328 328 328 328 326 326 325 323 321 320 320 319 316 315 314 314 311 312 307 309 311 312 310 310 310

GFSSE_sfc_thetae_102.txt.gz
Theta_e
341 349 357 357 358 360 361 360 359 358 357 356 355 355 354 352 349 348 349 351 352 352 353 352 348 348 348 348 347 348 349 347 346 346 347 349 347 345 347 348 347 344 347
345 350 356 356 358 359 360 360 359 357 357 356 355 355 356 352 349 347 349 351 352 353 352 350 347 346 348 346 345 345 344 344 344 344 343 345 348 347 349 348 349 345 347
346 350 352 355 356 357 359 359 358 357 356 354 352 355 355 353 351 351 350 353 352 353 351 347 345 345 346 345 343 343 343 342 340 342 341 336 339 348 347 347 349 348 349
347 349 349 355 355 355 357 358 358 357 356 355 354 355 354 352 352 354 353 352 352 352 348 345 344 342 340 340 340 340 339 337 339 337 330 333 337 346 346 345 345 346 346
346 348 350 355 355 355 354 356 357 357 356 355 355 355 355 355 354 353 353 353 352 352 347 344 341 339 338 341 341 341 340 340 338 332 328 329 332 340 343 343 342 343 342
345 347 352 354 355 354 354 353 356 357 357 356 355 354 354 354 354 353 352 351 352 350 346 343 340 339 339 341 341 340 340 338 334 329 329 333 330 339 339 339 338 339 340
344 348 351 354 354 354 354 353 353 355 356 356 355 355 353 353 353 352 350 347 350 350 346 342 340 340 339 340 339 340 340 337 328 327 327 328 331 339 338 338 337 336 336
343 348 350 351 353 353 353 353 352 354 354 355 354 353 352 352 353 351 348 347 349 349 345 342 340 339 339 338 338 338 337 334 329 327 328 330 339 338 338 338 337 337 336
345 346 348 349 349 350 351 351 352 352 353 352 353 352 350 349 351 349 347 346 347 348 346 344 342 341 340 338 337 336 336 333 326 328 330 330 341 339 338 337 337 337 336
337 344 346 346 346 346 347 348 348 349 349 349 349 347 344 344 346 347 343 344 348 349 347 346 344 342 341 339 337 335 333 331 324 327 329 330 340 338 337 336 336 335 335
331 334 340 342 341 342 343 344 345 346 346 344 343 341 340 342 341 338 336 339 345 347 347 345 345 344 341 338 335 333 330 322 323 326 328 339 339 338 336 335 334 334 333
327 329 333 333 334 336 343 339 338 342 343 341 342 341 338 337 337 335 334 337 343 343 343 343 342 341 334 326 324 329 321 320 319 325 328 340 340 338 337 335 334 334 333
325 328 327 332 332 331 335 333 336 340 339 339 338 337 336 336 335 335 334 337 337 334 335 337 335 329 323 321 320 319 318 317 318 325 330 339 341 340 340 339 338 338 337
323 325 326 327 328 329 331 328 335 339 340 337 337 335 336 334 333 335 334 335 335 331 329 328 325 323 321 320 319 319 317 318 318 324 326 335 341 340 341 342 342 342 342
321 323 324 326 326 327 327 327 329 335 337 338 336 335 335 334 333 334 335 334 333 330 328 325 323 321 320 319 319 319 319 319 319 322 324 330 335 340 341 340 341 341 341
320 321 323 324 325 327 327 328 329 331 336 336 336 335 335 334 333 332 331 331 331 330 327 325 323 322 320 320 319 319 320 321 321 323 321 324 332 336 340 340 340 340 340
320 320 321 323 324 324 325 327 327 331 331 332 335 335 334 334 333 332 331 331 331 328 326 324 323 321 319 319 318 319 321 322 323 324 322 322 325 329 335 339 341 341 340
320 321 322 324 323 323 325 327 328 331 331 330 332 334 333 333 334 332 330 330 331 327 324 323 321 318 316 318 319 320 321 321 323 325 325 324 326 326 329 336 340 341 339
319 321 322 323 322 323 324 327 328 329 330 330 330 331 330 332 333 332 330 329 327 325 323 322 320 320 319 319 320 320 320 321 323 326 323 325 326 326 326 329 332 332 331
320 322 323 325 323 323 325 326 327 330 329 330 329 328 329 331 330 329 327 326 326 324 324 323 321 322 321 321 323 322 320 320 323 323 324 325 324 328 327 324 324 322 328
318 320 322 323 327 326 326 326 327 326 327 328 328 328 328 329 328 327 326 326 327 326 325 324 322 322 322 322 321 322 323 323 323 323 324 323 323 324 322 320 320 321 325
315 316 321 325 323 325 327 327 329 328 328 328 329 329 329 329 327 327 327 327 328 326 325 324 324 323 322 323 320 319 316 319 323 323 320 320 319 319 318 318 319 319 321
313 313 313 316 324 323 326 327 328 328 329 327 327 328 329 330 329 328 328 327 326 327 326 325 325 325 322 324 325 321 314 313 315 319 318 318 317 318 318 317 318 319 319
313 314 314 317 321 324 324 325 324 323 322 325 325 326 326 328 329 330 329 328 327 326 325 325 325 324 323 321 322 325 321 319 313 311 315 315 315 316 316 315 316 317 316
317 318 319 321 319 323 323 326 322 322 323 324 324 324 325 326 327 327 328 327 326 327 325 324 324 323 323 321 318 320 318 316 315 313 308 311 316 316 315 313 311 311 314
318 319 320 321 323 323 324 325 323 323 321 322 322 322 323 324 325 326 327 327 327 327 326 325 324 323 322 320 320 318 318 315 313 311 309 310 310 311 312 312 309 310 311

GFSSE_sfc_thetae_105.txt.gz
Theta_e
339 348 358 359 359 360 358 357 357 357 357 357 355 355 354 352 349 349 349 349 350 352 351 348 347 346 348 349 349 346 346 347 347 348 349 347 346 348 349 348 348 339 343
343 350 356 358 359 360 359 359 358 357 356 356 355 354 352 349 348 351 350 353 353 353 350 347 348 346 346 346 346 344 345 345 345 345 345 346 347 349 349 347 348 342 345
345 350 352 357 358 359 359 359 358 357 356 356 356 354 352 349 347 352 352 353 352 352 349 346 347 345 344 343 343 342 341 343 342 342 341 336 341 346 348 347 347 348 348
347 349 350 356 358 359 358 358 357 357 356 355 355 356 353 350 348 351 353 353 352 349 346 345 345 344 343 342 341 340 339 339 338 337 332 333 339 344 345 345 346 346 345
346 348 349 355 356 357 358 358 356 356 355 354 355 355 354 352 352 353 353 352 352 349 345 343 341 340 341 341 341 340 341 338 337 332 329 330 332 340 342 342 341 341 341
344 347 351 354 355 355 356 356 355 355 354 354 355 355 353 355 354 353 352 351 350 347 342 341 339 340 342 342 341 340 340 338 333 328 329 333 330 339 340 339 339 340 340
342 346 350 354 355 354 354 355 355 356 354 354 353 354 353 353 353 352 352 351 349 346 342 340 339 340 341 341 341 341 339 336 327 326 327 328 330 338 338 337 336 336 335
342 346 349 351 353 353 353 353 355 355 355 354 353 352 353 353 352 352 352 351 348 345 342 340 340 340 340 340 340 340 337 333 328 326 327 328 339 338 338 338 337 337 336
343 346 346 348 349 350 350 350 351 354 353 352 352 351 350 349 350 349 348 350 348 345 342 341 340 339 339 339 338 338 337 333 325 327 330 329 340 338 338 337 337 336 336
342 345 346 345 346 346 347 348 348 349 350 350 349 347 344 343 345 347 345 346 348 347 345 343 341 340 340 339 338 336 335 333 324 327 328 329 340 339 337 337 336 336 335
335 338 344 343 341 341 342 344 346 346 346 345 345 341 340 342 342 341 337 341 345 346 346 344 343 342 340 337 336 333 329 323 323 325 327 336 340 339 337 336 335 334 333
329 334 339 341 338 339 344 339 340 343 343 342 342 340 341 340 341 337 333 338 345 345 345 345 344 343 337 326 324 329 320 320 322 324 326 338 339 338 337 336 335 334 333
326 330 335 336 336 339 337 336 338 337 338 338 339 339 337 338 333 331 332 334 339 336 339 338 337 330 324 322 321 319 319 317 317 324 328 337 340 339 338 337 337 337 336
322 327 328 331 333 334 335 336 339 341 340 336 337 336 334 335 333 331 331 334 335 335 334 332 328 325 322 320 318 317 316 316 316 323 325 334 341 341 341 341 341 341 341
319 324 327 327 327 333 333 332 337 338 339 337 333 334 335 334 333 332 332 333 333 332 332 329 324 321 319 318 318 318 318 317 317 320 323 328 335 341 342 341 342 342 341
317 321 324 327 327 329 329 332 334 336 337 337 335 334 333 334 334 333 332 332 330 332 329 328 322 320 318 318 318 318 318 318 318 320 321 322 331 335 340 341 341 341 340
312 319 322 326 325 326 326 327 330 335 337 337 335 335 334 334 334 333 331 331 331 331 328 326 323 321 319 319 318 318 318 319 321 321 322 321 323 328 334 340 341 341 340
310 318 321 326 325 324 325 326 326 329 332 335 336 334 334 334 334 333 332 330 330 330 329 325 321 319 318 317 317 317 319 320 321 322 324 322 321 324 328 335 339 341 340
310 316 318 321 323 324 325 326 327 327 327 330 333 335 334 333 334 333 331 330 330 328 326 324 320 319 316 316 317 318 319 319 320 324 323 323 324 324 323 328 332 333 332
310 314 320 320 321 321 322 324 326 327 327 329 328 332 333 333 333 333 331 329 327 327 323 321 321 319 318 318 320 320 319 320 319 320 322 323 323 325 325 324 325 324 328
311 316 320 321 320 321 321 321 322 321 325 326 328 329 331 332 332 330 328 327 327 326 325 323 321 320 320 320 319 320 321 322 321 321 323 322 323 323 323 322 321 320 324
311 317 320 322 324 323 324 323 322 322 324 326 327 327 328 329 330 330 328 326 326 325 324 323 322 320 320 321 319 318 314 318 322 323 322 321 322 321 320 319 319 319 320
312 315 319 321 322 325 326 326 326 327 325 325 327 327 326 328 328 329 329 328 325 326 324 324 324 322 319 321 322 319 313 312 314 319 318 318 318 317 317 317 318 320 320
312 313 316 320 321 322 323 324 323 323 323 326 326 327 327 327 327 327 328 328 327 327 326 325 325 323 322 320 321 323 321 319 313 310 315 315 316 317 317 317 318 319 318
312 312 313 313 314 319 321 323 325 323 323 326 325 325 325 326 327 327 327 327 326 325 324 323 322 322 322 320 319 320 319 317 313 311 308 310 314 315 318 317 316 316 315
312 313 313 314 313 318 320 321 324 323 321 323 322 322 323 324 324 325 325 326 325 324 324 323 323 323 322 321 320 319 317 315 315 311 309 310 310 311 314 315 313 312 312

GFSSE_sfc_thetae_108.txt.gz
Theta_e
336 349 358 360 358 358 357 357 358 359 358 359 357 356 354 352 349 347 349 350 351 351 347 348 345 350 347 346 346 347 347 347 348 347 347 348 349 348 348 345 343 339 344
341 350 357 359 359 359 358 358 357 357 357 357 355 354 354 351 349 349 349 351 352 351 347 347 347 347 350 348 344 345 345 346 346 346 345 346 347 348 348 346 345 342 344
345 351 353 359 359 357 357 357 357 357 356 356 354 353 351 349 350 350 352 353 352 350 347 347 344 345 345 344 343 344 345 345 343 342 341 337 340 348 348 348 348 348 348
347 349 349 358 359 358 357 357 357 356 356 356 354 353 350 348 351 352 353 353 352 350 347 348 345 343 343 343 342 340 341 341 340 338 333 335 337 345 344 343 344 345 345
345 347 348 357 358 358 357 356 357 356 356 355 356 355 352 350 352 353 353 352 351 348 347 345 344 343 342 341 341 340 338 339 338 333 329 331 332 339 342 341 341 340 341
342 344 350 355 357 357 357 356 356 356 355 355 355 354 353 353 352 354 352 351 349 347 344 343 342 342 343 342 342 342 339 337 333 327 328 334 331 340 340 340 340 340 340
342 343 348 354 356 357 355 356 356 355 355 355 355 354 353 354 355 353 350 349 347 345 341 340 341 342 342 342 341 341 339 335 326 325 326 327 329 338 338 337 336 336 335
342 344 347 351 353 355 355 355 355 356 355 354 354 353 353 353 352 351 350 350 347 342 340 340 341 342 341 341 342 341 337 333 328 325 326 327 339 339 338 338 337 337 336
341 343 345 347 349 350 351 353 354 355 354 353 352 352 351 349 349 351 350 349 346 343 342 342 342 342 341 340 341 340 337 333 323 326 328 328 341 339 338 338 337 337 336
336 340 342 344 345 345 345 347 348 351 351 351 350 348 345 344 345 347 347 348 347 344 343 343 343 341 341 340 339 339 335 332 323 326 327 328 340 339 338 337 337 336 335
331 335 340 342 342 342 342 343 345 346 346 346 345 342 340 341 342 341 341 343 345 344 343 343 342 342 340 338 337 334 333 323 322 324 326 333 339 339 337 336 336 335 334
318 328 335 341 341 341 344 341 341 342 342 344 344 341 340 340 340 340 335 340 344 344 343 343 343 342 336 326 325 329 320 320 321 323 324 334 340 339 337 336 335 335 333
316 324 331 336 339 338 339 340 341 341 338 338 339 340 338 340 336 332 331 337 339 337 338 339 338 332 325 322 320 319 319 318 317 323 326 334 339 339 338 337 337 336 336
309 318 325 330 332 335 336 338 340 340 341 337 337 337 335 334 334 330 330 333 335 336 336 332 330 326 323 320 318 317 317 316 316 318 323 331 338 340 340 340 340 340 340
307 316 323 329 330 332 335 337 337 339 340 339 336 336 334 332 332 330 330 332 333 332 333 331 329 322 320 318 317 316 316 315 315 317 322 326 333 340 342 342 342 342 342
306 314 320 326 329 330 333 334 336 337 339 338 335 335 332 332 333 332 330 332 331 332 329 330 327 323 318 317 316 316 316 316 317 317 319 322 329 335 339 341 342 342 341
304 309 318 325 328 328 329 330 334 337 338 336 335 333 332 332 332 333 332 331 331 331 329 327 325 322 318 317 316 317 317 317 318 318 320 321 322 328 333 337 340 342 341
306 308 316 324 327 327 328 326 327 331 336 337 337 335 334 333 333 333 332 331 332 331 328 327 325 322 320 318 316 317 317 317 319 320 321 322 321 322 327 333 338 341 342
305 308 314 320 325 326 326 326 327 329 329 331 336 335 333 333 333 332 331 332 331 329 327 327 324 321 318 317 316 316 317 318 319 322 320 322 323 322 322 326 330 333 336
306 308 312 317 322 325 325 323 323 324 327 328 330 335 334 333 332 332 331 331 330 328 325 323 323 320 320 317 319 317 318 319 319 319 320 322 323 324 323 322 324 326 329
304 304 310 315 318 321 321 323 324 324 324 324 328 330 333 333 333 331 330 330 330 327 327 325 323 321 319 318 316 317 319 320 319 319 320 321 322 322 323 323 322 322 323
302 305 310 316 318 319 320 320 319 320 321 324 325 328 329 332 332 331 329 327 325 325 325 325 323 320 320 319 317 317 313 317 321 323 322 321 321 321 320 321 320 320 322
301 304 309 316 319 322 321 321 320 320 320 320 323 324 326 327 331 331 328 327 325 325 323 324 323 321 319 320 321 318 312 312 314 319 319 320 319 318 318 318 318 320 320
304 307 312 317 321 322 322 323 321 320 319 321 322 324 325 325 326 329 328 326 324 324 323 324 324 323 322 319 319 322 320 317 313 311 315 315 316 317 317 316 316 319 320
307 309 312 317 320 321 323 322 321 321 322 324 325 323 324 325 326 327 327 327 325 324 324 324 324 323 323 322 321 319 319 317 315 311 309 312 314 314 315 315 317 318 318
307 310 310 310 312 315 318 319 319 320 320 321 323 324 325 326 326 326 326 327 326 325 325 324 324 324 323 322 321 318 318 316 315 314 310 310 311 312 314 314 313 315 316

GFSSE_sfc_thetae_111.txt.gz
Theta_e
344 353 359 360 358 358 358 359 359 359 359 359 357 355 355 353 350 348 350 352 352 352 348 345 346 350 349 347 347 349 349 349 346 347 349 349 349 349 344 344 345 343 347
346 354 358 359 359 358 358 358 357 358 358 358 356 354 353 352 349 349 350 353 352 350 347 350 351 348 346 346 347 346 346 346 346 346 346 347 348 348 346 344 346 343 345
346 354 353 358 358 358 358 358 357 357 357 357 357 354 353 351 348 348 351 353 353 350 348 348 350 350 346 344 345 345 345 346 345 344 343 346 347 349 349 347 348 348 348
349 353 352 358 358 358 357 357 357 356 357 356 356 354 352 350 350 350 353 352 353 350 350 349 347 346 344 343 344 345 344 343 342 341 342 343 344 345 344 345 345 346 345
349 352 353 357 357 357 357 356 356 356 356 355 354 354 352 352 351 354 353 352 351 349 349 347 345 345 343 343 341 341 342 341 339 340 341 342 342 341 342 343 341 342 341
349 351 351 355 357 356 356 355 356 356 356 356 355 353 352 352 354 354 352 351 349 348 348 346 344 343 343 343 341 340 339 339 336 339 340 340 340 342 342 341 341 340 339
345 349 351 355 354 356 356 355 355 356 356 356 356 354 353 353 354 352 351 349 348 347 346 344 343 343 343 344 343 341 338 336 335 336 337 338 338 339 338 338 337 336 336
344 348 351 351 352 353 354 355 355 356 355 355 355 355 354 353 354 351 350 349 347 344 343 342 343 343 343 342 342 340 337 334 332 335 336 338 341 339 339 338 338 337 337
339 345 349 350 349 348 350 352 353 354 354 353 353 353 352 350 350 352 349 348 345 343 343 344 344 343 342 343 343 339 336 333 334 335 335 338 341 339 339 338 338 337 336
329 338 345 348 349 350 350 346 349 350 350 351 350 349 346 345 346 348 347 347 346 344 343 344 345 343 342 343 343 339 335 332 333 334 336 337 339 339 338 338 337 337 336
317 325 336 344 347 348 349 348 346 346 346 346 346 342 342 348 348 347 343 343 344 344 343 344 344 343 341 339 339 337 334 332 332 333 335 334 340 339 338 337 337 336 335
311 317 328 336 343 347 347 348 347 349 351 350 350 350 348 347 347 346 341 340 344 343 342 343 343 342 337 335 334 333 334 333 332 333 333 334 340 339 338 337 337 335 334
310 315 320 329 337 342 345 346 346 345 347 347 348 348 347 346 345 344 345 346 345 338 338 340 340 338 336 333 332 331 330 330 331 333 332 333 339 340 339 338 337 337 336
308 311 317 326 333 335 339 343 345 343 344 345 347 347 346 345 343 341 340 343 343 342 340 340 340 338 335 330 329 328 328 327 327 328 331 330 336 340 340 340 339 339 339
306 310 315 322 330 334 335 339 342 342 343 343 344 345 345 343 342 340 337 339 341 342 340 339 339 337 332 329 327 326 325 325 325 325 327 326 331 338 341 342 342 343 343
305 308 314 319 328 332 335 337 338 341 342 343 342 343 343 342 342 338 336 336 338 340 339 336 337 333 329 326 325 325 325 325 325 325 326 328 328 333 337 340 342 343 343
305 308 310 316 325 330 332 334 336 338 341 342 341 339 339 341 340 338 336 336 338 338 335 336 334 332 330 325 324 324 325 326 326 326 326 327 328 327 332 337 339 341 343
305 306 309 313 323 328 331 334 335 337 338 340 339 338 337 337 338 337 337 335 335 333 334 331 331 327 326 325 323 323 325 326 326 326 327 328 329 328 328 333 337 340 342
305 306 308 313 320 326 329 332 331 333 336 339 339 339 336 336 336 336 336 336 335 333 331 330 331 328 328 327 324 324 326 326 326 325 326 328 329 329 330 328 330 333 336
306 307 308 312 318 324 326 330 328 329 332 336 337 336 336 335 335 335 335 335 335 334 332 327 327 325 325 327 325 323 325 325 325 325 326 327 328 329 330 330 330 330 329
307 307 308 310 316 323 323 323 325 325 328 331 335 336 335 335 335 335 334 334 334 333 331 330 326 324 323 323 324 324 323 325 325 325 326 326 326 327 329 330 330 331 331
305 306 308 309 314 320 324 323 327 327 328 330 331 332 336 335 334 334 333 331 332 332 331 329 328 325 325 321 320 320 317 323 326 326 326 325 326 326 326 327 330 330 331
303 305 306 308 313 318 322 325 324 323 324 325 327 329 330 333 335 335 334 332 333 332 328 328 329 328 324 322 323 323 316 316 319 324 325 325 326 325 325 326 327 327 329
304 305 306 308 313 318 322 321 321 322 321 324 325 327 327 329 331 335 334 332 332 331 329 328 329 328 326 322 320 323 326 323 318 316 320 320 321 322 324 325 325 325 326
307 307 308 310 315 320 322 320 320 321 323 324 325 325 326 327 328 329 332 331 328 329 328 327 327 326 326 323 322 320 322 323 321 317 315 319 320 320 320 321 323 324 325
311 310 311 314 316 320 321 320 320 320 322 323 325 325 325 327 327 328 329 331 329 328 328 327 327 326 325 323 323 322 322 320 319 317 316 316 315 319 319 320 321 322 322

GFSSE_sfc_thetae_114.txt.gz
Theta_e
349 352 358 359 358 359 359 359 360 359 359 358 355 355 355 352 349 349 352 348 350 349 346 346 348 350 348 348 349 349 349 348 348 349 349 350 349 344 345 344 348 345 348
350 351 357 359 359 359 360 360 359 359 358 358 357 355 354 351 348 350 352 351 349 348 346 346 350 349 347 348 348 348 347 347 347 347 348 348 348 345 344 343 348 343 346
349 352 354 358 358 358 358 358 358 359 358 356 357 355 353 351 349 350 352 352 352 349 349 350 349 346 346 346 345 346 346 346 346 344 345 347 348 349 348 347 348 348 348
349 353 352 357 358 358 359 358 357 358 357 356 355 355 352 351 348 349 353 352 353 352 351 351 350 347 344 345 345 345 345 345 344 344 343 344 343 346 346 346 346 346 345
350 354 352 355 356 357 358 358 357 357 356 356 356 355 354 350 349 349 353 352 352 350 351 348 346 344 343 344 344 344 343 342 341 341 342 342 342 342 343 342 342 342 342
350 353 353 354 355 356 355 356 357 357 357 356 355 354 353 353 351 353 352 351 351 350 349 346 344 344 343 342 341 340 341 340 339 340 338 339 339 342 342 342 341 340 339
346 351 353 355 354 355 356 355 355 356 356 356 356 354 353 354 355 353 351 351 350 349 348 344 344 343 343 342 341 340 339 337 334 335 336 336 339 339 338 338 337 337 336
339 347 351 351 353 353 354 354 355 355 356 356 355 355 353 354 355 352 352 349 349 347 345 344 343 343 342 343 343 340 337 335 331 333 334 337 339 339 338 338 337 337 336
330 343 351 351 350 349 349 350 352 354 354 353 354 353 352 350 351 352 351 349 348 347 346 346 344 343 343 343 342 339 336 334 333 334 334 337 340 339 339 338 337 337 336
318 325 343 348 348 349 350 347 348 350 350 350 351 349 346 345 346 349 346 346 347 345 344 345 346 343 342 345 342 338 335 333 333 334 335 337 338 339 339 338 337 336 335
316 318 323 340 347 347 347 347 347 345 344 344 345 342 341 348 348 347 343 342 344 344 344 345 346 344 342 341 341 337 333 333 333 333 335 337 339 339 339 338 337 336 335
313 315 318 322 338 347 346 347 348 348 349 348 348 349 349 347 347 346 341 340 343 343 342 344 345 343 338 336 337 335 335 335 335 335 334 336 340 340 339 338 337 336 335
312 313 316 318 326 341 347 348 345 344 346 346 346 346 346 345 346 347 348 347 345 338 339 340 341 338 336 335 335 334 335 335 334 335 334 333 337 341 340 339 338 337 337
310 312 315 316 320 331 343 346 345 342 342 344 344 346 345 344 344 344 343 345 344 342 340 336 333 334 335 335 334 333 333 333 333 333 334 332 334 339 341 340 339 339 339
309 311 313 316 317 325 335 341 344 343 342 342 344 344 344 343 342 343 343 343 343 341 340 337 334 335 333 332 331 330 330 332 332 331 331 329 331 335 339 342 342 342 342
309 310 312 314 316 322 329 337 341 342 343 342 343 342 343 342 342 342 342 342 341 341 341 339 333 332 333 332 330 329 328 329 329 330 330 331 329 332 335 339 342 343 344
309 311 311 313 314 317 325 333 339 341 344 343 343 344 342 344 343 342 342 340 340 341 340 339 336 334 332 332 330 329 328 328 328 328 330 331 331 327 331 336 339 340 342
310 310 311 311 312 314 320 329 336 339 341 343 342 342 342 341 344 343 343 340 341 340 341 338 337 335 333 330 328 328 326 327 329 329 330 331 332 332 330 332 337 339 341
310 310 311 313 312 312 318 324 333 336 338 340 343 340 340 340 342 341 344 341 341 340 340 334 334 334 334 331 329 329 327 326 328 329 329 329 332 333 334 332 330 332 336
311 311 311 312 313 313 316 323 331 335 334 338 340 340 338 338 339 341 340 341 341 339 338 335 331 332 333 333 329 326 327 327 328 329 329 329 330 331 334 334 335 332 328
311 311 311 311 313 313 314 320 323 326 331 333 337 339 339 339 336 339 338 336 338 336 337 336 335 334 329 327 324 325 326 328 326 328 329 327 328 330 332 333 333 333 333
309 311 311 311 312 313 314 318 323 326 329 333 334 337 338 339 338 335 336 337 336 335 335 334 334 331 332 331 326 324 318 321 325 326 328 327 327 329 330 330 331 331 333
310 310 310 312 312 313 315 320 324 327 329 328 329 332 336 337 338 337 335 335 335 337 333 333 335 333 328 330 329 323 318 315 320 327 328 328 327 328 330 329 329 331 331
313 313 312 312 312 313 316 318 320 320 321 325 327 331 334 334 336 336 336 335 335 334 332 335 336 335 332 327 328 329 329 325 319 316 324 328 328 328 329 329 327 329 330
315 314 314 313 312 312 315 317 317 317 323 326 329 330 332 333 334 334 336 336 333 332 331 332 333 333 333 330 329 326 326 328 325 321 313 321 324 325 326 327 327 329 329
314 317 318 314 312 312 315 317 318 318 320 324 325 327 328 329 330 331 331 333 334 334 331 331 331 330 332 330 329 327 324 321 322 321 317 319 322 324 325 323 325 326 325

GFSSE_sfc_thetae_117.txt.gz
Theta_e
347 352 359 360 359 359 359 359 359 358 359 357 354 353 353 351 347 348 347 348 346 346 345 347 348 350 349 349 350 350 350 349 349 349 350 349 346 346 346 345 349 343 347
347 350 357 359 360 359 359 360 358 358 358 357 357 355 354 350 348 351 350 348 348 348 347 348 350 348 349 348 349 348 347 348 347 349 348 346 346 344 345 349 349 345 348
347 350 352 359 359 359 359 359 358 357 358 357 356 356 353 350 348 351 353 349 351 347 347 349 349 349 348 346 345 344 346 347 346 346 347 346 347 348 348 348 349 348 348
348 352 351 357 359 359 359 358 359 358 358 358 356 356 353 351 349 350 353 352 352 350 350 352 350 346 346 345 345 345 345 345 342 344 344 343 343 347 347 346 346 345 345
348 351 352 356 356 358 358 358 358 358 357 356 356 356 353 352 349 349 352 351 353 352 352 350 347 345 344 345 345 344 344 342 342 341 340 342 341 343 343 343 342 342 342
346 350 353 355 355 356 358 358 358 357 357 355 356 354 354 351 349 350 353 350 351 351 350 346 345 343 343 344 343 343 341 340 340 337 338 338 340 342 342 342 340 338 338
342 348 351 354 355 355 356 355 356 356 356 356 355 353 352 351 352 354 351 351 351 349 348 345 344 343 342 341 339 339 340 338 336 334 335 337 338 340 339 338 338 337 337
328 345 349 351 352 353 353 353 354 356 356 355 355 354 353 354 354 352 352 351 349 349 347 345 344 343 342 342 341 339 337 336 330 332 334 338 340 339 339 338 338 337 337
323 328 348 351 350 348 350 351 352 353 353 354 353 352 352 351 351 352 352 350 348 348 347 346 344 344 342 343 342 339 335 334 331 332 333 336 341 339 339 338 337 337 336
319 321 329 346 348 349 349 348 348 349 349 349 350 348 344 346 347 348 346 347 347 348 347 346 346 344 343 344 342 338 335 333 332 333 333 338 341 340 339 338 337 336 335
318 319 321 328 343 345 347 347 347 346 346 346 346 343 342 347 346 345 343 343 345 346 345 346 346 345 343 343 341 337 333 330 331 332 333 340 339 339 339 338 337 336 335
314 316 318 320 326 342 346 345 348 348 348 346 346 346 346 346 344 343 340 339 344 343 343 345 346 344 339 337 338 335 333 334 333 332 333 339 340 340 339 338 337 336 335
312 314 317 317 320 326 343 347 345 346 346 346 344 344 345 343 342 346 348 343 343 337 337 341 341 339 335 334 334 334 333 333 332 333 333 337 338 341 341 339 338 338 337
313 314 315 316 317 320 332 345 346 343 343 342 342 341 342 340 340 341 344 347 346 341 339 336 334 334 334 333 333 332 331 332 332 333 333 333 336 338 341 341 340 339 339
310 313 316 315 316 317 323 336 345 344 340 340 342 343 343 342 339 340 342 344 344 343 339 336 333 332 331 333 332 331 330 330 330 331 331 330 333 336 338 341 342 342 341
310 312 315 314 315 317 320 328 339 344 344 341 340 343 343 342 340 340 339 341 342 342 340 336 334 332 331 331 329 329 328 328 328 329 330 330 331 334 336 338 341 344 343
310 313 315 315 314 314 318 324 330 340 344 345 342 342 341 340 340 339 337 337 340 342 339 338 335 332 330 330 329 329 328 327 327 326 328 330 331 329 333 337 338 340 341
312 312 314 313 313 313 315 320 326 337 340 343 345 344 342 339 340 341 341 340 341 340 341 339 337 332 330 330 328 328 327 327 326 326 328 329 331 331 330 334 337 339 341
313 312 314 314 313 312 312 316 323 330 338 339 343 343 343 342 342 340 341 341 342 339 339 339 337 334 331 327 329 329 328 327 325 326 327 329 330 331 333 331 330 332 335
314 313 313 313 313 314 314 315 321 326 336 337 338 342 342 341 340 339 340 340 340 341 339 339 337 337 333 333 329 329 327 326 327 326 326 328 329 330 332 333 334 331 328
313 312 312 313 313 314 314 312 317 321 329 333 336 340 341 340 338 340 337 337 338 339 336 338 336 334 333 333 330 330 328 327 326 325 328 328 329 328 329 331 333 333 332
312 312 312 312 313 313 315 315 316 323 326 331 335 336 338 339 339 338 339 338 336 335 335 334 334 331 331 333 327 325 320 323 327 327 327 327 328 328 328 329 331 332 333
312 313 312 313 314 314 315 316 317 322 327 326 331 332 335 337 339 339 338 338 337 335 333 334 333 332 328 331 331 326 319 316 319 324 324 326 326 327 328 329 330 330 331
309 317 315 314 315 315 316 314 314 318 319 325 327 331 333 335 336 338 337 337 335 335 334 333 334 333 332 329 331 330 328 325 319 317 324 325 327 326 328 328 329 330 331
308 311 317 316 315 314 315 314 315 317 320 324 327 328 329 332 333 335 337 336 337 335 335 335 334 331 333 331 329 328 326 326 325 321 317 320 325 326 328 328 329 329 329
308 310 314 317 316 315 314 314 315 316 317 320 323 325 327 329 330 332 333 335 335 334 331 332 333 333 331 330 330 329 325 322 322 322 319 319 318 323 325 324 325 327 328